<?xml version='1.0' encoding='UTF-8'?>
<gpx version="1.1" creator="https://www.komoot.de" xmlns="http://www.topografix.com/GPX/1/1" xmlns:xsi="http://www.w3.org/2001/XMLSchema-instance" xsi:schemaLocation="http://www.topografix.com/GPX/1/1 http://www.topografix.com/GPX/1/1/gpx.xsd">
  <metadata>
    <name>53_530Arlesheim-Schauen</name>
    <author>
      <link href="https://www.komoot.de">
        <text>komoot</text>
        <type>text/html</type>
      </link>
    </author>
  </metadata>
  <trk>
    <name>53_530Arlesheim-Schauen</name>
    <trkseg>
      <trkpt lat="47.541521" lon="7.870517">
        <ele>339.022574</ele>
        <time>2021-11-13T13:53:31.502Z</time>
      </trkpt>
      <trkpt lat="47.541521" lon="7.870517">
        <ele>339.022574</ele>
        <time>2021-11-13T13:53:31.526Z</time>
      </trkpt>
      <trkpt lat="47.541606" lon="7.870424">
        <ele>339.022574</ele>
        <time>2021-11-13T13:53:33.265Z</time>
      </trkpt>
      <trkpt lat="47.541910" lon="7.870106">
        <ele>339.022574</ele>
        <time>2021-11-13T13:53:39.126Z</time>
      </trkpt>
      <trkpt lat="47.542014" lon="7.870126">
        <ele>339.022574</ele>
        <time>2021-11-13T13:53:40.722Z</time>
      </trkpt>
      <trkpt lat="47.542118" lon="7.870135">
        <ele>339.022574</ele>
        <time>2021-11-13T13:53:42.385Z</time>
      </trkpt>
      <trkpt lat="47.542181" lon="7.870131">
        <ele>339.022574</ele>
        <time>2021-11-13T13:53:43.272Z</time>
      </trkpt>
      <trkpt lat="47.542317" lon="7.870012">
        <ele>339.012286</ele>
        <time>2021-11-13T13:53:45.524Z</time>
      </trkpt>
      <trkpt lat="47.542348" lon="7.869983">
        <ele>338.968231</ele>
        <time>2021-11-13T13:53:45.983Z</time>
      </trkpt>
      <trkpt lat="47.542329" lon="7.869820">
        <ele>338.834061</ele>
        <time>2021-11-13T13:53:47.674Z</time>
      </trkpt>
      <trkpt lat="47.542372" lon="7.869746">
        <ele>338.754863</ele>
        <time>2021-11-13T13:53:48.506Z</time>
      </trkpt>
      <trkpt lat="47.542657" lon="7.869354">
        <ele>338.287562</ele>
        <time>2021-11-13T13:53:53.370Z</time>
      </trkpt>
      <trkpt lat="47.542696" lon="7.869257">
        <ele>338.195985</ele>
        <time>2021-11-13T13:53:54.305Z</time>
      </trkpt>
      <trkpt lat="47.542722" lon="7.869201">
        <ele>338.140856</ele>
        <time>2021-11-13T13:53:54.896Z</time>
      </trkpt>
      <trkpt lat="47.543049" lon="7.868759">
        <ele>337.608958</ele>
        <time>2021-11-13T13:53:59.809Z</time>
      </trkpt>
      <trkpt lat="47.543105" lon="7.868711">
        <ele>337.531217</ele>
        <time>2021-11-13T13:54:00.547Z</time>
      </trkpt>
      <trkpt lat="47.543201" lon="7.868657">
        <ele>337.407830</ele>
        <time>2021-11-13T13:54:01.626Z</time>
      </trkpt>
      <trkpt lat="47.543657" lon="7.868359">
        <ele>336.816356</ele>
        <time>2021-11-13T13:54:07.421Z</time>
      </trkpt>
      <trkpt lat="47.543801" lon="7.868269">
        <ele>336.655063</ele>
        <time>2021-11-13T13:54:09.901Z</time>
      </trkpt>
      <trkpt lat="47.544214" lon="7.867988">
        <ele>336.186042</ele>
        <time>2021-11-13T13:54:17.517Z</time>
      </trkpt>
      <trkpt lat="47.544246" lon="7.867967">
        <ele>336.149923</ele>
        <time>2021-11-13T13:54:18.114Z</time>
      </trkpt>
      <trkpt lat="47.544410" lon="7.867825">
        <ele>335.953886</ele>
        <time>2021-11-13T13:54:21.367Z</time>
      </trkpt>
      <trkpt lat="47.544469" lon="7.867776">
        <ele>335.884082</ele>
        <time>2021-11-13T13:54:22.389Z</time>
      </trkpt>
      <trkpt lat="47.544568" lon="7.867693">
        <ele>335.766687</ele>
        <time>2021-11-13T13:54:24.316Z</time>
      </trkpt>
      <trkpt lat="47.545003" lon="7.867278">
        <ele>335.232732</ele>
        <time>2021-11-13T13:54:33.164Z</time>
      </trkpt>
      <trkpt lat="47.545160" lon="7.866985">
        <ele>335.048256</ele>
        <time>2021-11-13T13:54:37.815Z</time>
      </trkpt>
      <trkpt lat="47.545240" lon="7.866887">
        <ele>335.188154</ele>
        <time>2021-11-13T13:54:40.088Z</time>
      </trkpt>
      <trkpt lat="47.546096" lon="7.866147">
        <ele>336.523800</ele>
        <time>2021-11-13T13:55:05.158Z</time>
      </trkpt>
      <trkpt lat="47.546327" lon="7.865959">
        <ele>336.878993</ele>
        <time>2021-11-13T13:55:12.895Z</time>
      </trkpt>
      <trkpt lat="47.546510" lon="7.865766">
        <ele>337.181724</ele>
        <time>2021-11-13T13:55:19.997Z</time>
      </trkpt>
      <trkpt lat="47.546819" lon="7.865489">
        <ele>337.764115</ele>
        <time>2021-11-13T13:55:30.228Z</time>
      </trkpt>
      <trkpt lat="47.546889" lon="7.865225">
        <ele>338.125256</ele>
        <time>2021-11-13T13:55:35.419Z</time>
      </trkpt>
      <trkpt lat="47.546894" lon="7.864837">
        <ele>338.619365</ele>
        <time>2021-11-13T13:55:42.839Z</time>
      </trkpt>
      <trkpt lat="47.546885" lon="7.864500">
        <ele>339.048784</ele>
        <time>2021-11-13T13:55:49.627Z</time>
      </trkpt>
      <trkpt lat="47.546877" lon="7.864345">
        <ele>339.246713</ele>
        <time>2021-11-13T13:55:52.521Z</time>
      </trkpt>
      <trkpt lat="47.546592" lon="7.863006">
        <ele>340.868764</ele>
        <time>2021-11-13T13:56:18.604Z</time>
      </trkpt>
      <trkpt lat="47.546526" lon="7.861665">
        <ele>341.246110</ele>
        <time>2021-11-13T13:56:39.634Z</time>
      </trkpt>
      <trkpt lat="47.546494" lon="7.859547">
        <ele>341.324361</ele>
        <time>2021-11-13T13:57:06.654Z</time>
      </trkpt>
      <trkpt lat="47.546487" lon="7.859119">
        <ele>341.215503</ele>
        <time>2021-11-13T13:57:12.096Z</time>
      </trkpt>
      <trkpt lat="47.546490" lon="7.859011">
        <ele>341.188019</ele>
        <time>2021-11-13T13:57:13.402Z</time>
      </trkpt>
      <trkpt lat="47.546537" lon="7.857497">
        <ele>340.835905</ele>
        <time>2021-11-13T13:57:32.939Z</time>
      </trkpt>
      <trkpt lat="47.546582" lon="7.856413">
        <ele>340.662263</ele>
        <time>2021-11-13T13:57:47.205Z</time>
      </trkpt>
      <trkpt lat="47.546945" lon="7.851719">
        <ele>339.235518</ele>
        <time>2021-11-13T13:58:48.373Z</time>
      </trkpt>
      <trkpt lat="47.547141" lon="7.850355">
        <ele>338.089121</ele>
        <time>2021-11-13T13:59:03.939Z</time>
      </trkpt>
      <trkpt lat="47.547143" lon="7.849985">
        <ele>337.784955</ele>
        <time>2021-11-13T13:59:07.847Z</time>
      </trkpt>
      <trkpt lat="47.547124" lon="7.848795">
        <ele>336.209527</ele>
        <time>2021-11-13T13:59:20.445Z</time>
      </trkpt>
      <trkpt lat="47.547274" lon="7.845536">
        <ele>332.231739</ele>
        <time>2021-11-13T13:59:55.204Z</time>
      </trkpt>
      <trkpt lat="47.547295" lon="7.844722">
        <ele>331.338291</ele>
        <time>2021-11-13T14:00:04.687Z</time>
      </trkpt>
      <trkpt lat="47.547313" lon="7.843735">
        <ele>330.487973</ele>
        <time>2021-11-13T14:00:16.475Z</time>
      </trkpt>
      <trkpt lat="47.547354" lon="7.842839">
        <ele>329.745063</ele>
        <time>2021-11-13T14:00:26.747Z</time>
      </trkpt>
      <trkpt lat="47.547448" lon="7.842262">
        <ele>329.254039</ele>
        <time>2021-11-13T14:00:33.548Z</time>
      </trkpt>
      <trkpt lat="47.547549" lon="7.842268">
        <ele>329.130156</ele>
        <time>2021-11-13T14:00:35.242Z</time>
      </trkpt>
      <trkpt lat="47.547674" lon="7.842266">
        <ele>328.962716</ele>
        <time>2021-11-13T14:00:37.336Z</time>
      </trkpt>
      <trkpt lat="47.548105" lon="7.842284">
        <ele>328.067845</ele>
        <time>2021-11-13T14:00:44.092Z</time>
      </trkpt>
      <trkpt lat="47.549188" lon="7.842622">
        <ele>325.770811</ele>
        <time>2021-11-13T14:01:01.007Z</time>
      </trkpt>
      <trkpt lat="47.549582" lon="7.842702">
        <ele>325.129149</ele>
        <time>2021-11-13T14:01:07.195Z</time>
      </trkpt>
      <trkpt lat="47.549927" lon="7.842747">
        <ele>324.824226</ele>
        <time>2021-11-13T14:01:12.978Z</time>
      </trkpt>
      <trkpt lat="47.551243" lon="7.842849">
        <ele>323.671654</ele>
        <time>2021-11-13T14:01:37.116Z</time>
      </trkpt>
      <trkpt lat="47.551454" lon="7.842815">
        <ele>323.569369</ele>
        <time>2021-11-13T14:01:41.775Z</time>
      </trkpt>
      <trkpt lat="47.551668" lon="7.842770">
        <ele>323.465204</ele>
        <time>2021-11-13T14:01:46.333Z</time>
      </trkpt>
      <trkpt lat="47.551922" lon="7.842704">
        <ele>323.340928</ele>
        <time>2021-11-13T14:01:51.255Z</time>
      </trkpt>
      <trkpt lat="47.552380" lon="7.842592">
        <ele>323.117222</ele>
        <time>2021-11-13T14:02:00.151Z</time>
      </trkpt>
      <trkpt lat="47.552833" lon="7.842495">
        <ele>322.896644</ele>
        <time>2021-11-13T14:02:08.435Z</time>
      </trkpt>
      <trkpt lat="47.553133" lon="7.842431">
        <ele>322.617062</ele>
        <time>2021-11-13T14:02:13.719Z</time>
      </trkpt>
      <trkpt lat="47.553123" lon="7.842222">
        <ele>322.405705</ele>
        <time>2021-11-13T14:02:15.300Z</time>
      </trkpt>
      <trkpt lat="47.553216" lon="7.841849">
        <ele>322.004587</ele>
        <time>2021-11-13T14:02:18.511Z</time>
      </trkpt>
      <trkpt lat="47.553231" lon="7.841529">
        <ele>321.681010</ele>
        <time>2021-11-13T14:02:21.003Z</time>
      </trkpt>
      <trkpt lat="47.552939" lon="7.839526">
        <ele>319.603883</ele>
        <time>2021-11-13T14:02:36.538Z</time>
      </trkpt>
      <trkpt lat="47.552802" lon="7.839009">
        <ele>319.032649</ele>
        <time>2021-11-13T14:02:40.860Z</time>
      </trkpt>
      <trkpt lat="47.552736" lon="7.838578">
        <ele>318.578112</ele>
        <time>2021-11-13T14:02:44.300Z</time>
      </trkpt>
      <trkpt lat="47.552697" lon="7.838068">
        <ele>318.050236</ele>
        <time>2021-11-13T14:02:48.315Z</time>
      </trkpt>
      <trkpt lat="47.552719" lon="7.836790">
        <ele>316.646916</ele>
        <time>2021-11-13T14:02:58.343Z</time>
      </trkpt>
      <trkpt lat="47.552714" lon="7.835010">
        <ele>314.566742</ele>
        <time>2021-11-13T14:03:12.093Z</time>
      </trkpt>
      <trkpt lat="47.552700" lon="7.833938">
        <ele>312.720882</ele>
        <time>2021-11-13T14:03:19.659Z</time>
      </trkpt>
      <trkpt lat="47.552696" lon="7.833789">
        <ele>312.438635</ele>
        <time>2021-11-13T14:03:20.657Z</time>
      </trkpt>
      <trkpt lat="47.552452" lon="7.833284">
        <ele>311.263088</ele>
        <time>2021-11-13T14:03:24.982Z</time>
      </trkpt>
      <trkpt lat="47.552467" lon="7.833198">
        <ele>311.094961</ele>
        <time>2021-11-13T14:03:25.594Z</time>
      </trkpt>
      <trkpt lat="47.552511" lon="7.833072">
        <ele>310.826438</ele>
        <time>2021-11-13T14:03:26.600Z</time>
      </trkpt>
      <trkpt lat="47.552556" lon="7.832977">
        <ele>310.606757</ele>
        <time>2021-11-13T14:03:27.416Z</time>
      </trkpt>
      <trkpt lat="47.552616" lon="7.832891">
        <ele>310.372638</ele>
        <time>2021-11-13T14:03:28.222Z</time>
      </trkpt>
      <trkpt lat="47.552690" lon="7.832598">
        <ele>309.780497</ele>
        <time>2021-11-13T14:03:30.423Z</time>
      </trkpt>
      <trkpt lat="47.552645" lon="7.830686">
        <ele>306.168647</ele>
        <time>2021-11-13T14:03:43.546Z</time>
      </trkpt>
      <trkpt lat="47.552554" lon="7.829266">
        <ele>303.804731</ele>
        <time>2021-11-13T14:03:53.832Z</time>
      </trkpt>
      <trkpt lat="47.552416" lon="7.828822">
        <ele>303.301963</ele>
        <time>2021-11-13T14:03:57.496Z</time>
      </trkpt>
      <trkpt lat="47.552404" lon="7.828582">
        <ele>303.054438</ele>
        <time>2021-11-13T14:03:59.411Z</time>
      </trkpt>
      <trkpt lat="47.552421" lon="7.828481">
        <ele>302.947374</ele>
        <time>2021-11-13T14:04:00.166Z</time>
      </trkpt>
      <trkpt lat="47.552477" lon="7.828294">
        <ele>302.736955</ele>
        <time>2021-11-13T14:04:01.742Z</time>
      </trkpt>
      <trkpt lat="47.552515" lon="7.828094">
        <ele>302.523252</ele>
        <time>2021-11-13T14:04:03.460Z</time>
      </trkpt>
      <trkpt lat="47.552491" lon="7.827227">
        <ele>301.630762</ele>
        <time>2021-11-13T14:04:10.368Z</time>
      </trkpt>
      <trkpt lat="47.552567" lon="7.824508">
        <ele>300.261519</ele>
        <time>2021-11-13T14:04:34.216Z</time>
      </trkpt>
      <trkpt lat="47.552896" lon="7.820699">
        <ele>298.366240</ele>
        <time>2021-11-13T14:05:06.954Z</time>
      </trkpt>
      <trkpt lat="47.552948" lon="7.819358">
        <ele>297.750469</ele>
        <time>2021-11-13T14:05:18.494Z</time>
      </trkpt>
      <trkpt lat="47.552844" lon="7.816432">
        <ele>297.301459</ele>
        <time>2021-11-13T14:05:46.128Z</time>
      </trkpt>
      <trkpt lat="47.552711" lon="7.812955">
        <ele>298.599586</ele>
        <time>2021-11-13T14:06:26.782Z</time>
      </trkpt>
      <trkpt lat="47.552566" lon="7.810386">
        <ele>299.725082</ele>
        <time>2021-11-13T14:06:56.814Z</time>
      </trkpt>
      <trkpt lat="47.552398" lon="7.808880">
        <ele>300.414937</ele>
        <time>2021-11-13T14:07:15.295Z</time>
      </trkpt>
      <trkpt lat="47.552068" lon="7.806445">
        <ele>300.852050</ele>
        <time>2021-11-13T14:07:43.635Z</time>
      </trkpt>
      <trkpt lat="47.552015" lon="7.806307">
        <ele>300.871508</ele>
        <time>2021-11-13T14:07:45.358Z</time>
      </trkpt>
      <trkpt lat="47.551895" lon="7.806278">
        <ele>300.893586</ele>
        <time>2021-11-13T14:07:46.667Z</time>
      </trkpt>
      <trkpt lat="47.551651" lon="7.806246">
        <ele>300.860872</ele>
        <time>2021-11-13T14:07:50.429Z</time>
      </trkpt>
      <trkpt lat="47.551671" lon="7.806117">
        <ele>300.790122</ele>
        <time>2021-11-13T14:07:51.743Z</time>
      </trkpt>
      <trkpt lat="47.551681" lon="7.805477">
        <ele>300.447932</ele>
        <time>2021-11-13T14:07:59.442Z</time>
      </trkpt>
      <trkpt lat="47.551709" lon="7.805000">
        <ele>300.191999</ele>
        <time>2021-11-13T14:08:05.081Z</time>
      </trkpt>
      <trkpt lat="47.551731" lon="7.804667">
        <ele>300.013150</ele>
        <time>2021-11-13T14:08:09.666Z</time>
      </trkpt>
      <trkpt lat="47.551744" lon="7.804473">
        <ele>299.908942</ele>
        <time>2021-11-13T14:08:11.662Z</time>
      </trkpt>
      <trkpt lat="47.551741" lon="7.804294">
        <ele>299.813232</ele>
        <time>2021-11-13T14:08:13.997Z</time>
      </trkpt>
      <trkpt lat="47.551692" lon="7.803510">
        <ele>299.388634</ele>
        <time>2021-11-13T14:08:23.127Z</time>
      </trkpt>
      <trkpt lat="47.551751" lon="7.803369">
        <ele>299.296856</ele>
        <time>2021-11-13T14:08:25.062Z</time>
      </trkpt>
      <trkpt lat="47.551744" lon="7.803277">
        <ele>299.245637</ele>
        <time>2021-11-13T14:08:25.857Z</time>
      </trkpt>
      <trkpt lat="47.551732" lon="7.803125">
        <ele>299.160975</ele>
        <time>2021-11-13T14:08:27.254Z</time>
      </trkpt>
      <trkpt lat="47.551700" lon="7.802648">
        <ele>298.895790</ele>
        <time>2021-11-13T14:08:31.600Z</time>
      </trkpt>
      <trkpt lat="47.551688" lon="7.802394">
        <ele>298.754929</ele>
        <time>2021-11-13T14:08:33.994Z</time>
      </trkpt>
      <trkpt lat="47.551679" lon="7.802228">
        <ele>298.662799</ele>
        <time>2021-11-13T14:08:35.488Z</time>
      </trkpt>
      <trkpt lat="47.551671" lon="7.802077">
        <ele>298.579006</ele>
        <time>2021-11-13T14:08:37.048Z</time>
      </trkpt>
      <trkpt lat="47.551669" lon="7.801853">
        <ele>298.455075</ele>
        <time>2021-11-13T14:08:39.031Z</time>
      </trkpt>
      <trkpt lat="47.551666" lon="7.801632">
        <ele>298.332789</ele>
        <time>2021-11-13T14:08:41.005Z</time>
      </trkpt>
      <trkpt lat="47.551669" lon="7.801438">
        <ele>298.225437</ele>
        <time>2021-11-13T14:08:42.507Z</time>
      </trkpt>
      <trkpt lat="47.551672" lon="7.801147">
        <ele>298.064431</ele>
        <time>2021-11-13T14:08:44.971Z</time>
      </trkpt>
      <trkpt lat="47.551704" lon="7.800451">
        <ele>296.797922</ele>
        <time>2021-11-13T14:08:50.395Z</time>
      </trkpt>
      <trkpt lat="47.551712" lon="7.800249">
        <ele>296.401391</ele>
        <time>2021-11-13T14:08:51.836Z</time>
      </trkpt>
      <trkpt lat="47.551754" lon="7.799766">
        <ele>295.447058</ele>
        <time>2021-11-13T14:08:55.178Z</time>
      </trkpt>
      <trkpt lat="47.551793" lon="7.799434">
        <ele>294.786674</ele>
        <time>2021-11-13T14:08:57.520Z</time>
      </trkpt>
      <trkpt lat="47.551805" lon="7.799326">
        <ele>294.572183</ele>
        <time>2021-11-13T14:08:58.220Z</time>
      </trkpt>
      <trkpt lat="47.551948" lon="7.798607">
        <ele>293.103297</ele>
        <time>2021-11-13T14:09:03.303Z</time>
      </trkpt>
      <trkpt lat="47.552084" lon="7.798083">
        <ele>291.731198</ele>
        <time>2021-11-13T14:09:06.922Z</time>
      </trkpt>
      <trkpt lat="47.552152" lon="7.797876">
        <ele>291.126578</ele>
        <time>2021-11-13T14:09:08.385Z</time>
      </trkpt>
      <trkpt lat="47.552493" lon="7.797048">
        <ele>288.579133</ele>
        <time>2021-11-13T14:09:14.613Z</time>
      </trkpt>
      <trkpt lat="47.552762" lon="7.796425">
        <ele>286.636779</ele>
        <time>2021-11-13T14:09:19.570Z</time>
      </trkpt>
      <trkpt lat="47.552817" lon="7.796239">
        <ele>286.103466</ele>
        <time>2021-11-13T14:09:20.972Z</time>
      </trkpt>
      <trkpt lat="47.552886" lon="7.795976">
        <ele>285.620006</ele>
        <time>2021-11-13T14:09:22.974Z</time>
      </trkpt>
      <trkpt lat="47.552906" lon="7.795800">
        <ele>285.425031</ele>
        <time>2021-11-13T14:09:24.307Z</time>
      </trkpt>
      <trkpt lat="47.552930" lon="7.795600">
        <ele>285.203117</ele>
        <time>2021-11-13T14:09:25.871Z</time>
      </trkpt>
      <trkpt lat="47.552917" lon="7.795354">
        <ele>284.933555</ele>
        <time>2021-11-13T14:09:27.768Z</time>
      </trkpt>
      <trkpt lat="47.552909" lon="7.795229">
        <ele>284.796388</ele>
        <time>2021-11-13T14:09:28.747Z</time>
      </trkpt>
      <trkpt lat="47.552892" lon="7.795106">
        <ele>284.659230</ele>
        <time>2021-11-13T14:09:29.676Z</time>
      </trkpt>
      <trkpt lat="47.552861" lon="7.794992">
        <ele>284.524964</ele>
        <time>2021-11-13T14:09:30.564Z</time>
      </trkpt>
      <trkpt lat="47.552837" lon="7.794925">
        <ele>284.442100</ele>
        <time>2021-11-13T14:09:31.140Z</time>
      </trkpt>
      <trkpt lat="47.552826" lon="7.794894">
        <ele>284.403839</ele>
        <time>2021-11-13T14:09:31.404Z</time>
      </trkpt>
      <trkpt lat="47.552786" lon="7.794796">
        <ele>284.278725</ele>
        <time>2021-11-13T14:09:32.242Z</time>
      </trkpt>
      <trkpt lat="47.552763" lon="7.794750">
        <ele>284.216185</ele>
        <time>2021-11-13T14:09:32.765Z</time>
      </trkpt>
      <trkpt lat="47.552644" lon="7.794507">
        <ele>283.888203</ele>
        <time>2021-11-13T14:09:35.039Z</time>
      </trkpt>
      <trkpt lat="47.552532" lon="7.794285">
        <ele>283.585412</ele>
        <time>2021-11-13T14:09:37.208Z</time>
      </trkpt>
      <trkpt lat="47.552494" lon="7.794200">
        <ele>283.474030</ele>
        <time>2021-11-13T14:09:38.025Z</time>
      </trkpt>
      <trkpt lat="47.552384" lon="7.793915">
        <ele>283.115368</ele>
        <time>2021-11-13T14:09:40.757Z</time>
      </trkpt>
      <trkpt lat="47.552369" lon="7.793872">
        <ele>283.062489</ele>
        <time>2021-11-13T14:09:41.395Z</time>
      </trkpt>
      <trkpt lat="47.552292" lon="7.793607">
        <ele>282.844192</ele>
        <time>2021-11-13T14:09:43.803Z</time>
      </trkpt>
      <trkpt lat="47.552233" lon="7.793294">
        <ele>282.726701</ele>
        <time>2021-11-13T14:09:47.218Z</time>
      </trkpt>
      <trkpt lat="47.552216" lon="7.793160">
        <ele>282.677407</ele>
        <time>2021-11-13T14:09:48.377Z</time>
      </trkpt>
      <trkpt lat="47.552198" lon="7.792976">
        <ele>282.610189</ele>
        <time>2021-11-13T14:09:50.111Z</time>
      </trkpt>
      <trkpt lat="47.552184" lon="7.792540">
        <ele>282.452381</ele>
        <time>2021-11-13T14:09:54.518Z</time>
      </trkpt>
      <trkpt lat="47.552180" lon="7.792294">
        <ele>282.363418</ele>
        <time>2021-11-13T14:09:57.038Z</time>
      </trkpt>
      <trkpt lat="47.552182" lon="7.792040">
        <ele>282.271582</ele>
        <time>2021-11-13T14:09:59.203Z</time>
      </trkpt>
      <trkpt lat="47.552201" lon="7.791031">
        <ele>281.894368</ele>
        <time>2021-11-13T14:10:07.702Z</time>
      </trkpt>
      <trkpt lat="47.552135" lon="7.790302">
        <ele>281.479868</ele>
        <time>2021-11-13T14:10:14.130Z</time>
      </trkpt>
      <trkpt lat="47.552036" lon="7.789826">
        <ele>281.199175</ele>
        <time>2021-11-13T14:10:18.460Z</time>
      </trkpt>
      <trkpt lat="47.551858" lon="7.788906">
        <ele>280.659834</ele>
        <time>2021-11-13T14:10:26.491Z</time>
      </trkpt>
      <trkpt lat="47.551712" lon="7.788013">
        <ele>280.029855</ele>
        <time>2021-11-13T14:10:33.992Z</time>
      </trkpt>
      <trkpt lat="47.551694" lon="7.787879">
        <ele>279.922529</ele>
        <time>2021-11-13T14:10:35.106Z</time>
      </trkpt>
      <trkpt lat="47.551690" lon="7.787827">
        <ele>279.881417</ele>
        <time>2021-11-13T14:10:35.532Z</time>
      </trkpt>
      <trkpt lat="47.551672" lon="7.787603">
        <ele>279.704214</ele>
        <time>2021-11-13T14:10:37.284Z</time>
      </trkpt>
      <trkpt lat="47.551498" lon="7.785081">
        <ele>277.947873</ele>
        <time>2021-11-13T14:10:57.694Z</time>
      </trkpt>
      <trkpt lat="47.551479" lon="7.784929">
        <ele>277.872441</ele>
        <time>2021-11-13T14:10:58.944Z</time>
      </trkpt>
      <trkpt lat="47.551510" lon="7.784910">
        <ele>277.848187</ele>
        <time>2021-11-13T14:10:59.414Z</time>
      </trkpt>
      <trkpt lat="47.551531" lon="7.784884">
        <ele>277.828401</ele>
        <time>2021-11-13T14:10:59.769Z</time>
      </trkpt>
      <trkpt lat="47.551548" lon="7.784841">
        <ele>277.804084</ele>
        <time>2021-11-13T14:11:00.236Z</time>
      </trkpt>
      <trkpt lat="47.551554" lon="7.784788">
        <ele>277.777861</ele>
        <time>2021-11-13T14:11:00.710Z</time>
      </trkpt>
      <trkpt lat="47.551547" lon="7.784737">
        <ele>277.752466</ele>
        <time>2021-11-13T14:11:01.161Z</time>
      </trkpt>
      <trkpt lat="47.551525" lon="7.784691">
        <ele>277.724955</ele>
        <time>2021-11-13T14:11:01.667Z</time>
      </trkpt>
      <trkpt lat="47.551500" lon="7.784666">
        <ele>277.703149</ele>
        <time>2021-11-13T14:11:02.045Z</time>
      </trkpt>
      <trkpt lat="47.551472" lon="7.784654">
        <ele>277.682076</ele>
        <time>2021-11-13T14:11:02.409Z</time>
      </trkpt>
      <trkpt lat="47.551437" lon="7.784657">
        <ele>277.656729</ele>
        <time>2021-11-13T14:11:02.835Z</time>
      </trkpt>
      <trkpt lat="47.551439" lon="7.784323">
        <ele>277.493743</ele>
        <time>2021-11-13T14:11:05.769Z</time>
      </trkpt>
      <trkpt lat="47.551412" lon="7.783996">
        <ele>277.332990</ele>
        <time>2021-11-13T14:11:08.576Z</time>
      </trkpt>
      <trkpt lat="47.551302" lon="7.782671">
        <ele>276.934785</ele>
        <time>2021-11-13T14:11:21.388Z</time>
      </trkpt>
      <trkpt lat="47.551230" lon="7.781831">
        <ele>276.819307</ele>
        <time>2021-11-13T14:11:29.557Z</time>
      </trkpt>
      <trkpt lat="47.551198" lon="7.781475">
        <ele>276.770328</ele>
        <time>2021-11-13T14:11:33.094Z</time>
      </trkpt>
      <trkpt lat="47.551270" lon="7.781390">
        <ele>276.751726</ele>
        <time>2021-11-13T14:11:34.875Z</time>
      </trkpt>
      <trkpt lat="47.551208" lon="7.780694">
        <ele>276.641354</ele>
        <time>2021-11-13T14:11:41.631Z</time>
      </trkpt>
      <trkpt lat="47.551085" lon="7.779125">
        <ele>276.193962</ele>
        <time>2021-11-13T14:11:56.112Z</time>
      </trkpt>
      <trkpt lat="47.550982" lon="7.777915">
        <ele>275.907856</ele>
        <time>2021-11-13T14:12:06.672Z</time>
      </trkpt>
      <trkpt lat="47.550963" lon="7.777797">
        <ele>275.904278</ele>
        <time>2021-11-13T14:12:07.685Z</time>
      </trkpt>
      <trkpt lat="47.550782" lon="7.776690">
        <ele>275.870677</ele>
        <time>2021-11-13T14:12:18.458Z</time>
      </trkpt>
      <trkpt lat="47.550645" lon="7.776051">
        <ele>275.850898</ele>
        <time>2021-11-13T14:12:25.626Z</time>
      </trkpt>
      <trkpt lat="47.550607" lon="7.775871">
        <ele>275.845335</ele>
        <time>2021-11-13T14:12:27.793Z</time>
      </trkpt>
      <trkpt lat="47.550598" lon="7.775828">
        <ele>275.844007</ele>
        <time>2021-11-13T14:12:28.278Z</time>
      </trkpt>
      <trkpt lat="47.550505" lon="7.775364">
        <ele>275.912003</ele>
        <time>2021-11-13T14:12:33.792Z</time>
      </trkpt>
      <trkpt lat="47.550320" lon="7.774602">
        <ele>276.194640</ele>
        <time>2021-11-13T14:12:43.279Z</time>
      </trkpt>
      <trkpt lat="47.550090" lon="7.773646">
        <ele>276.548869</ele>
        <time>2021-11-13T14:12:55.159Z</time>
      </trkpt>
      <trkpt lat="47.550061" lon="7.773283">
        <ele>276.676449</ele>
        <time>2021-11-13T14:12:59.297Z</time>
      </trkpt>
      <trkpt lat="47.550203" lon="7.772543">
        <ele>276.904198</ele>
        <time>2021-11-13T14:13:07.507Z</time>
      </trkpt>
      <trkpt lat="47.550199" lon="7.772076">
        <ele>277.030026</ele>
        <time>2021-11-13T14:13:12.495Z</time>
      </trkpt>
      <trkpt lat="47.550069" lon="7.771373">
        <ele>277.226406</ele>
        <time>2021-11-13T14:13:20.309Z</time>
      </trkpt>
      <trkpt lat="47.549845" lon="7.770734">
        <ele>277.420398</ele>
        <time>2021-11-13T14:13:28.465Z</time>
      </trkpt>
      <trkpt lat="47.549714" lon="7.770276">
        <ele>277.672067</ele>
        <time>2021-11-13T14:13:34.237Z</time>
      </trkpt>
      <trkpt lat="47.549678" lon="7.770148">
        <ele>277.772030</ele>
        <time>2021-11-13T14:13:36.028Z</time>
      </trkpt>
      <trkpt lat="47.549363" lon="7.768846">
        <ele>278.769099</ele>
        <time>2021-11-13T14:13:53.210Z</time>
      </trkpt>
      <trkpt lat="47.549184" lon="7.768021">
        <ele>279.393806</ele>
        <time>2021-11-13T14:14:05.652Z</time>
      </trkpt>
      <trkpt lat="47.548990" lon="7.767248">
        <ele>279.659513</ele>
        <time>2021-11-13T14:14:17.326Z</time>
      </trkpt>
      <trkpt lat="47.548565" lon="7.765680">
        <ele>280.190690</ele>
        <time>2021-11-13T14:14:36.136Z</time>
      </trkpt>
      <trkpt lat="47.547909" lon="7.763208">
        <ele>278.054323</ele>
        <time>2021-11-13T14:14:57.010Z</time>
      </trkpt>
      <trkpt lat="47.547848" lon="7.762928">
        <ele>277.784434</ele>
        <time>2021-11-13T14:14:59.160Z</time>
      </trkpt>
      <trkpt lat="47.547778" lon="7.762713">
        <ele>277.552084</ele>
        <time>2021-11-13T14:15:00.967Z</time>
      </trkpt>
      <trkpt lat="47.547648" lon="7.762450">
        <ele>277.234781</ele>
        <time>2021-11-13T14:15:03.397Z</time>
      </trkpt>
      <trkpt lat="47.547577" lon="7.762307">
        <ele>277.061986</ele>
        <time>2021-11-13T14:15:04.737Z</time>
      </trkpt>
      <trkpt lat="47.547194" lon="7.761352">
        <ele>275.980699</ele>
        <time>2021-11-13T14:15:13.246Z</time>
      </trkpt>
      <trkpt lat="47.546989" lon="7.760612">
        <ele>275.364543</ele>
        <time>2021-11-13T14:15:19.729Z</time>
      </trkpt>
      <trkpt lat="47.546948" lon="7.760482">
        <ele>275.441533</ele>
        <time>2021-11-13T14:15:20.969Z</time>
      </trkpt>
      <trkpt lat="47.546870" lon="7.760301">
        <ele>275.556753</ele>
        <time>2021-11-13T14:15:22.861Z</time>
      </trkpt>
      <trkpt lat="47.546804" lon="7.760164">
        <ele>275.647062</ele>
        <time>2021-11-13T14:15:24.313Z</time>
      </trkpt>
      <trkpt lat="47.546552" lon="7.759727">
        <ele>275.955451</ele>
        <time>2021-11-13T14:15:30.297Z</time>
      </trkpt>
      <trkpt lat="47.546312" lon="7.759326">
        <ele>276.243008</ele>
        <time>2021-11-13T14:15:36.661Z</time>
      </trkpt>
      <trkpt lat="47.546264" lon="7.759224">
        <ele>276.309724</ele>
        <time>2021-11-13T14:15:38.295Z</time>
      </trkpt>
      <trkpt lat="47.545911" lon="7.758393">
        <ele>277.151128</ele>
        <time>2021-11-13T14:15:54.695Z</time>
      </trkpt>
      <trkpt lat="47.545677" lon="7.757815">
        <ele>278.650530</ele>
        <time>2021-11-13T14:16:07.147Z</time>
      </trkpt>
      <trkpt lat="47.545429" lon="7.757231">
        <ele>280.185466</ele>
        <time>2021-11-13T14:16:20.454Z</time>
      </trkpt>
      <trkpt lat="47.545360" lon="7.757065">
        <ele>280.619167</ele>
        <time>2021-11-13T14:16:25.113Z</time>
      </trkpt>
      <trkpt lat="47.545326" lon="7.756949">
        <ele>280.900510</ele>
        <time>2021-11-13T14:16:27.864Z</time>
      </trkpt>
      <trkpt lat="47.545304" lon="7.756852">
        <ele>281.128160</ele>
        <time>2021-11-13T14:16:30.065Z</time>
      </trkpt>
      <trkpt lat="47.545260" lon="7.756637">
        <ele>281.627968</ele>
        <time>2021-11-13T14:16:35.123Z</time>
      </trkpt>
      <trkpt lat="47.545021" lon="7.756243">
        <ele>282.774030</ele>
        <time>2021-11-13T14:16:46.212Z</time>
      </trkpt>
      <trkpt lat="47.544022" lon="7.753705">
        <ele>287.523523</ele>
        <time>2021-11-13T14:17:34.683Z</time>
      </trkpt>
      <trkpt lat="47.543798" lon="7.753068">
        <ele>288.129713</ele>
        <time>2021-11-13T14:17:44.422Z</time>
      </trkpt>
      <trkpt lat="47.543319" lon="7.751355">
        <ele>289.552148</ele>
        <time>2021-11-13T14:18:07.503Z</time>
      </trkpt>
      <trkpt lat="47.543222" lon="7.751091">
        <ele>289.631094</ele>
        <time>2021-11-13T14:18:10.788Z</time>
      </trkpt>
      <trkpt lat="47.543115" lon="7.750826">
        <ele>289.712198</ele>
        <time>2021-11-13T14:18:15.521Z</time>
      </trkpt>
      <trkpt lat="47.543033" lon="7.750614">
        <ele>289.776373</ele>
        <time>2021-11-13T14:18:18.124Z</time>
      </trkpt>
      <trkpt lat="47.542895" lon="7.750331">
        <ele>289.868069</ele>
        <time>2021-11-13T14:18:22.091Z</time>
      </trkpt>
      <trkpt lat="47.542614" lon="7.749755">
        <ele>290.054729</ele>
        <time>2021-11-13T14:18:29.664Z</time>
      </trkpt>
      <trkpt lat="47.542390" lon="7.749307">
        <ele>290.188079</ele>
        <time>2021-11-13T14:18:35.475Z</time>
      </trkpt>
      <trkpt lat="47.542347" lon="7.749227">
        <ele>290.188973</ele>
        <time>2021-11-13T14:18:37.009Z</time>
      </trkpt>
      <trkpt lat="47.542132" lon="7.748742">
        <ele>290.194044</ele>
        <time>2021-11-13T14:18:44.570Z</time>
      </trkpt>
      <trkpt lat="47.541758" lon="7.747784">
        <ele>290.203717</ele>
        <time>2021-11-13T14:18:59.348Z</time>
      </trkpt>
      <trkpt lat="47.541583" lon="7.747186">
        <ele>290.209413</ele>
        <time>2021-11-13T14:19:08.526Z</time>
      </trkpt>
      <trkpt lat="47.541511" lon="7.746885">
        <ele>290.215474</ele>
        <time>2021-11-13T14:19:12.997Z</time>
      </trkpt>
      <trkpt lat="47.541432" lon="7.746552">
        <ele>290.226393</ele>
        <time>2021-11-13T14:19:18.108Z</time>
      </trkpt>
      <trkpt lat="47.541167" lon="7.745463">
        <ele>290.262202</ele>
        <time>2021-11-13T14:19:33.944Z</time>
      </trkpt>
      <trkpt lat="47.541160" lon="7.745250">
        <ele>290.268799</ele>
        <time>2021-11-13T14:19:36.815Z</time>
      </trkpt>
      <trkpt lat="47.541148" lon="7.745144">
        <ele>290.272124</ele>
        <time>2021-11-13T14:19:38.330Z</time>
      </trkpt>
      <trkpt lat="47.541130" lon="7.745083">
        <ele>290.274183</ele>
        <time>2021-11-13T14:19:39.239Z</time>
      </trkpt>
      <trkpt lat="47.541038" lon="7.744940">
        <ele>290.280294</ele>
        <time>2021-11-13T14:19:41.628Z</time>
      </trkpt>
      <trkpt lat="47.541019" lon="7.744859">
        <ele>290.282947</ele>
        <time>2021-11-13T14:19:42.873Z</time>
      </trkpt>
      <trkpt lat="47.540913" lon="7.744421">
        <ele>290.286584</ele>
        <time>2021-11-13T14:19:49.417Z</time>
      </trkpt>
      <trkpt lat="47.540757" lon="7.743728">
        <ele>290.248441</ele>
        <time>2021-11-13T14:19:59.894Z</time>
      </trkpt>
      <trkpt lat="47.540738" lon="7.743641">
        <ele>290.243667</ele>
        <time>2021-11-13T14:20:01.203Z</time>
      </trkpt>
      <trkpt lat="47.540617" lon="7.742875">
        <ele>290.202591</ele>
        <time>2021-11-13T14:20:12.170Z</time>
      </trkpt>
      <trkpt lat="47.540589" lon="7.742558">
        <ele>290.185899</ele>
        <time>2021-11-13T14:20:16.526Z</time>
      </trkpt>
      <trkpt lat="47.540552" lon="7.742240">
        <ele>290.169050</ele>
        <time>2021-11-13T14:20:20.814Z</time>
      </trkpt>
      <trkpt lat="47.540438" lon="7.740453">
        <ele>289.204931</ele>
        <time>2021-11-13T14:20:42.623Z</time>
      </trkpt>
      <trkpt lat="47.540374" lon="7.739620">
        <ele>288.678205</ele>
        <time>2021-11-13T14:20:52.081Z</time>
      </trkpt>
      <trkpt lat="47.540372" lon="7.739490">
        <ele>288.596509</ele>
        <time>2021-11-13T14:20:53.631Z</time>
      </trkpt>
      <trkpt lat="47.540387" lon="7.739372">
        <ele>288.521070</ele>
        <time>2021-11-13T14:20:55.118Z</time>
      </trkpt>
      <trkpt lat="47.540394" lon="7.739259">
        <ele>288.451237</ele>
        <time>2021-11-13T14:20:56.449Z</time>
      </trkpt>
      <trkpt lat="47.540388" lon="7.739213">
        <ele>288.423210</ele>
        <time>2021-11-13T14:20:56.841Z</time>
      </trkpt>
      <trkpt lat="47.540032" lon="7.737141">
        <ele>287.144187</ele>
        <time>2021-11-13T14:21:21.370Z</time>
      </trkpt>
      <trkpt lat="47.539305" lon="7.734151">
        <ele>287.604290</ele>
        <time>2021-11-13T14:22:08.163Z</time>
      </trkpt>
      <trkpt lat="47.539263" lon="7.733885">
        <ele>287.754023</ele>
        <time>2021-11-13T14:22:12.564Z</time>
      </trkpt>
      <trkpt lat="47.539178" lon="7.733656">
        <ele>287.897263</ele>
        <time>2021-11-13T14:22:16.714Z</time>
      </trkpt>
      <trkpt lat="47.538887" lon="7.732454">
        <ele>288.597183</ele>
        <time>2021-11-13T14:22:37.401Z</time>
      </trkpt>
      <trkpt lat="47.538512" lon="7.730958">
        <ele>289.174303</ele>
        <time>2021-11-13T14:23:02.905Z</time>
      </trkpt>
      <trkpt lat="47.538339" lon="7.730082">
        <ele>289.345661</ele>
        <time>2021-11-13T14:23:16.277Z</time>
      </trkpt>
      <trkpt lat="47.538275" lon="7.729744">
        <ele>289.411568</ele>
        <time>2021-11-13T14:23:21.139Z</time>
      </trkpt>
      <trkpt lat="47.538248" lon="7.729713">
        <ele>289.421068</ele>
        <time>2021-11-13T14:23:21.753Z</time>
      </trkpt>
      <trkpt lat="47.538168" lon="7.729263">
        <ele>289.508435</ele>
        <time>2021-11-13T14:23:27.838Z</time>
      </trkpt>
      <trkpt lat="47.538148" lon="7.729131">
        <ele>289.435806</ele>
        <time>2021-11-13T14:23:29.506Z</time>
      </trkpt>
      <trkpt lat="47.538123" lon="7.729100">
        <ele>289.382927</ele>
        <time>2021-11-13T14:23:30.102Z</time>
      </trkpt>
      <trkpt lat="47.538083" lon="7.728919">
        <ele>289.174395</ele>
        <time>2021-11-13T14:23:32.434Z</time>
      </trkpt>
      <trkpt lat="47.538042" lon="7.728654">
        <ele>288.876714</ele>
        <time>2021-11-13T14:23:35.752Z</time>
      </trkpt>
      <trkpt lat="47.537932" lon="7.727936">
        <ele>288.070559</ele>
        <time>2021-11-13T14:23:44.246Z</time>
      </trkpt>
      <trkpt lat="47.537861" lon="7.727909">
        <ele>287.951670</ele>
        <time>2021-11-13T14:23:45.433Z</time>
      </trkpt>
      <trkpt lat="47.537824" lon="7.727674">
        <ele>287.687454</ele>
        <time>2021-11-13T14:23:47.285Z</time>
      </trkpt>
      <trkpt lat="47.537675" lon="7.726458">
        <ele>285.993414</ele>
        <time>2021-11-13T14:23:56.228Z</time>
      </trkpt>
      <trkpt lat="47.537323" lon="7.724748">
        <ele>281.546846</ele>
        <time>2021-11-13T14:24:07.970Z</time>
      </trkpt>
      <trkpt lat="47.537127" lon="7.723974">
        <ele>279.613286</ele>
        <time>2021-11-13T14:24:13.407Z</time>
      </trkpt>
      <trkpt lat="47.537106" lon="7.723875">
        <ele>279.420424</ele>
        <time>2021-11-13T14:24:14.090Z</time>
      </trkpt>
      <trkpt lat="47.537075" lon="7.723694">
        <ele>279.073375</ele>
        <time>2021-11-13T14:24:15.319Z</time>
      </trkpt>
      <trkpt lat="47.536854" lon="7.722329">
        <ele>276.464556</ele>
        <time>2021-11-13T14:24:25.233Z</time>
      </trkpt>
      <trkpt lat="47.536667" lon="7.721718">
        <ele>275.217753</ele>
        <time>2021-11-13T14:24:30.356Z</time>
      </trkpt>
      <trkpt lat="47.536590" lon="7.721558">
        <ele>274.863378</ele>
        <time>2021-11-13T14:24:31.872Z</time>
      </trkpt>
      <trkpt lat="47.536471" lon="7.721389">
        <ele>274.438130</ele>
        <time>2021-11-13T14:24:33.801Z</time>
      </trkpt>
      <trkpt lat="47.536092" lon="7.720862">
        <ele>273.097245</ele>
        <time>2021-11-13T14:24:39.188Z</time>
      </trkpt>
      <trkpt lat="47.535988" lon="7.720671">
        <ele>272.669928</ele>
        <time>2021-11-13T14:24:40.878Z</time>
      </trkpt>
      <trkpt lat="47.535897" lon="7.720461">
        <ele>272.235372</ele>
        <time>2021-11-13T14:24:42.553Z</time>
      </trkpt>
      <trkpt lat="47.535876" lon="7.720409">
        <ele>272.129852</ele>
        <time>2021-11-13T14:24:42.970Z</time>
      </trkpt>
      <trkpt lat="47.535806" lon="7.720212">
        <ele>271.742169</ele>
        <time>2021-11-13T14:24:44.532Z</time>
      </trkpt>
      <trkpt lat="47.535746" lon="7.719899">
        <ele>271.175545</ele>
        <time>2021-11-13T14:24:46.797Z</time>
      </trkpt>
      <trkpt lat="47.535713" lon="7.719682">
        <ele>270.788179</ele>
        <time>2021-11-13T14:24:48.381Z</time>
      </trkpt>
      <trkpt lat="47.535661" lon="7.719317">
        <ele>270.246799</ele>
        <time>2021-11-13T14:24:51.051Z</time>
      </trkpt>
      <trkpt lat="47.535617" lon="7.719010">
        <ele>269.940711</ele>
        <time>2021-11-13T14:24:53.500Z</time>
      </trkpt>
      <trkpt lat="47.535608" lon="7.718948">
        <ele>269.878861</ele>
        <time>2021-11-13T14:24:53.901Z</time>
      </trkpt>
      <trkpt lat="47.535572" lon="7.718705">
        <ele>269.636225</ele>
        <time>2021-11-13T14:24:55.627Z</time>
      </trkpt>
      <trkpt lat="47.535558" lon="7.718578">
        <ele>269.510723</ele>
        <time>2021-11-13T14:24:56.835Z</time>
      </trkpt>
      <trkpt lat="47.535516" lon="7.718273">
        <ele>269.207133</ele>
        <time>2021-11-13T14:24:59.009Z</time>
      </trkpt>
      <trkpt lat="47.535494" lon="7.718111">
        <ele>269.045970</ele>
        <time>2021-11-13T14:25:00.215Z</time>
      </trkpt>
      <trkpt lat="47.535490" lon="7.718086">
        <ele>269.020912</ele>
        <time>2021-11-13T14:25:00.782Z</time>
      </trkpt>
      <trkpt lat="47.535419" lon="7.717562">
        <ele>268.499666</ele>
        <time>2021-11-13T14:25:04.803Z</time>
      </trkpt>
      <trkpt lat="47.535384" lon="7.717243">
        <ele>268.184464</ele>
        <time>2021-11-13T14:25:07.324Z</time>
      </trkpt>
      <trkpt lat="47.535370" lon="7.716931">
        <ele>267.879500</ele>
        <time>2021-11-13T14:25:11.063Z</time>
      </trkpt>
      <trkpt lat="47.535347" lon="7.716584">
        <ele>268.021708</ele>
        <time>2021-11-13T14:25:14.272Z</time>
      </trkpt>
      <trkpt lat="47.535313" lon="7.716133">
        <ele>268.443844</ele>
        <time>2021-11-13T14:25:21.422Z</time>
      </trkpt>
      <trkpt lat="47.535254" lon="7.715336">
        <ele>269.189671</ele>
        <time>2021-11-13T14:25:33.971Z</time>
      </trkpt>
      <trkpt lat="47.535269" lon="7.714924">
        <ele>269.573478</ele>
        <time>2021-11-13T14:25:40.104Z</time>
      </trkpt>
      <trkpt lat="47.535269" lon="7.714705">
        <ele>269.777196</ele>
        <time>2021-11-13T14:25:43.364Z</time>
      </trkpt>
      <trkpt lat="47.535269" lon="7.714432">
        <ele>270.031146</ele>
        <time>2021-11-13T14:25:47.014Z</time>
      </trkpt>
      <trkpt lat="47.535222" lon="7.713738">
        <ele>270.548818</ele>
        <time>2021-11-13T14:25:56.521Z</time>
      </trkpt>
      <trkpt lat="47.535202" lon="7.713540">
        <ele>270.676267</ele>
        <time>2021-11-13T14:25:59.211Z</time>
      </trkpt>
      <trkpt lat="47.535174" lon="7.713262">
        <ele>270.855200</ele>
        <time>2021-11-13T14:26:02.658Z</time>
      </trkpt>
      <trkpt lat="47.535128" lon="7.712889">
        <ele>271.096580</ele>
        <time>2021-11-13T14:26:07.458Z</time>
      </trkpt>
      <trkpt lat="47.535110" lon="7.712748">
        <ele>271.187931</ele>
        <time>2021-11-13T14:26:09.191Z</time>
      </trkpt>
      <trkpt lat="47.535067" lon="7.712436">
        <ele>271.390647</ele>
        <time>2021-11-13T14:26:13.233Z</time>
      </trkpt>
      <trkpt lat="47.535045" lon="7.712277">
        <ele>271.493970</ele>
        <time>2021-11-13T14:26:15.091Z</time>
      </trkpt>
      <trkpt lat="47.534965" lon="7.711682">
        <ele>271.880185</ele>
        <time>2021-11-13T14:26:22.295Z</time>
      </trkpt>
      <trkpt lat="47.534909" lon="7.711265">
        <ele>272.012005</ele>
        <time>2021-11-13T14:26:27.332Z</time>
      </trkpt>
      <trkpt lat="47.534905" lon="7.711243">
        <ele>272.015932</ele>
        <time>2021-11-13T14:26:27.573Z</time>
      </trkpt>
      <trkpt lat="47.534768" lon="7.710504">
        <ele>272.148005</ele>
        <time>2021-11-13T14:26:36.427Z</time>
      </trkpt>
      <trkpt lat="47.534734" lon="7.710344">
        <ele>272.176913</ele>
        <time>2021-11-13T14:26:38.309Z</time>
      </trkpt>
      <trkpt lat="47.534641" lon="7.709912">
        <ele>272.255056</ele>
        <time>2021-11-13T14:26:43.147Z</time>
      </trkpt>
      <trkpt lat="47.534615" lon="7.709805">
        <ele>272.274655</ele>
        <time>2021-11-13T14:26:44.340Z</time>
      </trkpt>
      <trkpt lat="47.534577" lon="7.709613">
        <ele>272.309137</ele>
        <time>2021-11-13T14:26:46.410Z</time>
      </trkpt>
      <trkpt lat="47.534509" lon="7.709297">
        <ele>272.366295</ele>
        <time>2021-11-13T14:26:49.580Z</time>
      </trkpt>
      <trkpt lat="47.534390" lon="7.708741">
        <ele>272.344992</ele>
        <time>2021-11-13T14:26:54.977Z</time>
      </trkpt>
      <trkpt lat="47.534357" lon="7.708594">
        <ele>272.302815</ele>
        <time>2021-11-13T14:26:56.370Z</time>
      </trkpt>
      <trkpt lat="47.534132" lon="7.707553">
        <ele>272.005221</ele>
        <time>2021-11-13T14:27:06.179Z</time>
      </trkpt>
      <trkpt lat="47.534017" lon="7.707047">
        <ele>271.859860</ele>
        <time>2021-11-13T14:27:11.204Z</time>
      </trkpt>
      <trkpt lat="47.533747" lon="7.705801">
        <ele>271.472086</ele>
        <time>2021-11-13T14:27:22.937Z</time>
      </trkpt>
      <trkpt lat="47.533715" lon="7.705652">
        <ele>271.422486</ele>
        <time>2021-11-13T14:27:24.341Z</time>
      </trkpt>
      <trkpt lat="47.533704" lon="7.705593">
        <ele>271.403070</ele>
        <time>2021-11-13T14:27:24.887Z</time>
      </trkpt>
      <trkpt lat="47.533527" lon="7.704796">
        <ele>271.136916</ele>
        <time>2021-11-13T14:27:32.291Z</time>
      </trkpt>
      <trkpt lat="47.533301" lon="7.703780">
        <ele>270.805336</ele>
        <time>2021-11-13T14:27:42.078Z</time>
      </trkpt>
      <trkpt lat="47.532835" lon="7.701725">
        <ele>270.221091</ele>
        <time>2021-11-13T14:28:01.871Z</time>
      </trkpt>
      <trkpt lat="47.532793" lon="7.701522">
        <ele>270.163869</ele>
        <time>2021-11-13T14:28:03.748Z</time>
      </trkpt>
      <trkpt lat="47.532428" lon="7.699970">
        <ele>269.530018</ele>
        <time>2021-11-13T14:28:18.717Z</time>
      </trkpt>
      <trkpt lat="47.532407" lon="7.699875">
        <ele>269.490539</ele>
        <time>2021-11-13T14:28:19.611Z</time>
      </trkpt>
      <trkpt lat="47.532378" lon="7.699751">
        <ele>269.438713</ele>
        <time>2021-11-13T14:28:20.770Z</time>
      </trkpt>
      <trkpt lat="47.532326" lon="7.699504">
        <ele>269.336532</ele>
        <time>2021-11-13T14:28:23.132Z</time>
      </trkpt>
      <trkpt lat="47.532317" lon="7.699464">
        <ele>269.319881</ele>
        <time>2021-11-13T14:28:23.486Z</time>
      </trkpt>
      <trkpt lat="47.532234" lon="7.699115">
        <ele>269.173748</ele>
        <time>2021-11-13T14:28:26.681Z</time>
      </trkpt>
      <trkpt lat="47.532082" lon="7.698472">
        <ele>268.658047</ele>
        <time>2021-11-13T14:28:32.305Z</time>
      </trkpt>
      <trkpt lat="47.531987" lon="7.698056">
        <ele>268.239358</ele>
        <time>2021-11-13T14:28:35.814Z</time>
      </trkpt>
      <trkpt lat="47.531820" lon="7.697324">
        <ele>267.502698</ele>
        <time>2021-11-13T14:28:41.788Z</time>
      </trkpt>
      <trkpt lat="47.531503" lon="7.695640">
        <ele>266.154300</ele>
        <time>2021-11-13T14:28:55.033Z</time>
      </trkpt>
      <trkpt lat="47.531279" lon="7.693388">
        <ele>265.331658</ele>
        <time>2021-11-13T14:29:15.267Z</time>
      </trkpt>
      <trkpt lat="47.531252" lon="7.693049">
        <ele>265.509628</ele>
        <time>2021-11-13T14:29:19.839Z</time>
      </trkpt>
      <trkpt lat="47.531247" lon="7.692506">
        <ele>265.792758</ele>
        <time>2021-11-13T14:29:27.359Z</time>
      </trkpt>
      <trkpt lat="47.531250" lon="7.692032">
        <ele>266.039899</ele>
        <time>2021-11-13T14:29:33.837Z</time>
      </trkpt>
      <trkpt lat="47.531253" lon="7.691880">
        <ele>266.119181</ele>
        <time>2021-11-13T14:29:35.871Z</time>
      </trkpt>
      <trkpt lat="47.531254" lon="7.691721">
        <ele>266.202082</ele>
        <time>2021-11-13T14:29:37.872Z</time>
      </trkpt>
      <trkpt lat="47.531257" lon="7.691497">
        <ele>266.318892</ele>
        <time>2021-11-13T14:29:40.682Z</time>
      </trkpt>
      <trkpt lat="47.531218" lon="7.691259">
        <ele>266.446580</ele>
        <time>2021-11-13T14:29:43.452Z</time>
      </trkpt>
      <trkpt lat="47.531228" lon="7.690572">
        <ele>266.491086</ele>
        <time>2021-11-13T14:29:51.913Z</time>
      </trkpt>
      <trkpt lat="47.531244" lon="7.689927">
        <ele>266.431913</ele>
        <time>2021-11-13T14:29:58.493Z</time>
      </trkpt>
      <trkpt lat="47.531254" lon="7.689619">
        <ele>266.403643</ele>
        <time>2021-11-13T14:30:01.505Z</time>
      </trkpt>
      <trkpt lat="47.531264" lon="7.689333">
        <ele>266.377387</ele>
        <time>2021-11-13T14:30:04.179Z</time>
      </trkpt>
      <trkpt lat="47.531265" lon="7.689138">
        <ele>266.359509</ele>
        <time>2021-11-13T14:30:05.832Z</time>
      </trkpt>
      <trkpt lat="47.531267" lon="7.688842">
        <ele>266.332370</ele>
        <time>2021-11-13T14:30:08.531Z</time>
      </trkpt>
      <trkpt lat="47.531309" lon="7.687734">
        <ele>266.123501</ele>
        <time>2021-11-13T14:30:17.539Z</time>
      </trkpt>
      <trkpt lat="47.531311" lon="7.686964">
        <ele>265.933154</ele>
        <time>2021-11-13T14:30:24.119Z</time>
      </trkpt>
      <trkpt lat="47.531302" lon="7.686543">
        <ele>265.829030</ele>
        <time>2021-11-13T14:30:28.372Z</time>
      </trkpt>
      <trkpt lat="47.531297" lon="7.685934">
        <ele>265.678473</ele>
        <time>2021-11-13T14:30:34.899Z</time>
      </trkpt>
      <trkpt lat="47.531296" lon="7.684922">
        <ele>265.942807</ele>
        <time>2021-11-13T14:30:46.342Z</time>
      </trkpt>
      <trkpt lat="47.531277" lon="7.683432">
        <ele>266.490290</ele>
        <time>2021-11-13T14:31:03.504Z</time>
      </trkpt>
      <trkpt lat="47.531276" lon="7.682944">
        <ele>266.705163</ele>
        <time>2021-11-13T14:31:09.255Z</time>
      </trkpt>
      <trkpt lat="47.531275" lon="7.682615">
        <ele>266.903316</ele>
        <time>2021-11-13T14:31:13.236Z</time>
      </trkpt>
      <trkpt lat="47.531257" lon="7.681446">
        <ele>267.607566</ele>
        <time>2021-11-13T14:31:28.029Z</time>
      </trkpt>
      <trkpt lat="47.531222" lon="7.679157">
        <ele>268.606715</ele>
        <time>2021-11-13T14:31:56.577Z</time>
      </trkpt>
      <trkpt lat="47.531218" lon="7.678940">
        <ele>268.672814</ele>
        <time>2021-11-13T14:31:58.886Z</time>
      </trkpt>
      <trkpt lat="47.531215" lon="7.678292">
        <ele>268.870131</ele>
        <time>2021-11-13T14:32:05.402Z</time>
      </trkpt>
      <trkpt lat="47.531238" lon="7.677761">
        <ele>269.028427</ele>
        <time>2021-11-13T14:32:10.559Z</time>
      </trkpt>
      <trkpt lat="47.531253" lon="7.677527">
        <ele>269.000260</ele>
        <time>2021-11-13T14:32:12.934Z</time>
      </trkpt>
      <trkpt lat="47.531275" lon="7.677355">
        <ele>268.979283</ele>
        <time>2021-11-13T14:32:14.613Z</time>
      </trkpt>
      <trkpt lat="47.531314" lon="7.677106">
        <ele>268.948652</ele>
        <time>2021-11-13T14:32:17.477Z</time>
      </trkpt>
      <trkpt lat="47.531325" lon="7.677036">
        <ele>268.940040</ele>
        <time>2021-11-13T14:32:18.188Z</time>
      </trkpt>
      <trkpt lat="47.531397" lon="7.676665">
        <ele>268.893783</ele>
        <time>2021-11-13T14:32:22.144Z</time>
      </trkpt>
      <trkpt lat="47.531455" lon="7.676389">
        <ele>268.859145</ele>
        <time>2021-11-13T14:32:25.043Z</time>
      </trkpt>
      <trkpt lat="47.531545" lon="7.675929">
        <ele>268.801755</ele>
        <time>2021-11-13T14:32:30.242Z</time>
      </trkpt>
      <trkpt lat="47.531606" lon="7.675606">
        <ele>268.761565</ele>
        <time>2021-11-13T14:32:33.493Z</time>
      </trkpt>
      <trkpt lat="47.531635" lon="7.675449">
        <ele>268.742060</ele>
        <time>2021-11-13T14:32:34.828Z</time>
      </trkpt>
      <trkpt lat="47.531719" lon="7.675071">
        <ele>268.658243</ele>
        <time>2021-11-13T14:32:38.035Z</time>
      </trkpt>
      <trkpt lat="47.531825" lon="7.674498">
        <ele>268.425117</ele>
        <time>2021-11-13T14:32:42.823Z</time>
      </trkpt>
      <trkpt lat="47.531884" lon="7.674105">
        <ele>268.267142</ele>
        <time>2021-11-13T14:32:46.462Z</time>
      </trkpt>
      <trkpt lat="47.531942" lon="7.673731">
        <ele>268.116567</ele>
        <time>2021-11-13T14:32:50.072Z</time>
      </trkpt>
      <trkpt lat="47.531990" lon="7.673394">
        <ele>267.981421</ele>
        <time>2021-11-13T14:32:53.038Z</time>
      </trkpt>
      <trkpt lat="47.532036" lon="7.673089">
        <ele>267.858793</ele>
        <time>2021-11-13T14:32:55.950Z</time>
      </trkpt>
      <trkpt lat="47.532065" lon="7.672871">
        <ele>267.771608</ele>
        <time>2021-11-13T14:32:57.827Z</time>
      </trkpt>
      <trkpt lat="47.532344" lon="7.670949">
        <ele>268.420719</ele>
        <time>2021-11-13T14:33:15.967Z</time>
      </trkpt>
      <trkpt lat="47.532378" lon="7.670762">
        <ele>268.507114</ele>
        <time>2021-11-13T14:33:18.932Z</time>
      </trkpt>
      <trkpt lat="47.532450" lon="7.670414">
        <ele>268.669486</ele>
        <time>2021-11-13T14:33:24.842Z</time>
      </trkpt>
      <trkpt lat="47.532528" lon="7.670085">
        <ele>268.825042</ele>
        <time>2021-11-13T14:33:30.940Z</time>
      </trkpt>
      <trkpt lat="47.532604" lon="7.669823">
        <ele>269.067881</ele>
        <time>2021-11-13T14:33:36.074Z</time>
      </trkpt>
      <trkpt lat="47.532727" lon="7.669421">
        <ele>269.495032</ele>
        <time>2021-11-13T14:33:43.228Z</time>
      </trkpt>
      <trkpt lat="47.532897" lon="7.668969">
        <ele>269.995782</ele>
        <time>2021-11-13T14:33:51.021Z</time>
      </trkpt>
      <trkpt lat="47.533053" lon="7.668607">
        <ele>270.411414</ele>
        <time>2021-11-13T14:33:56.317Z</time>
      </trkpt>
      <trkpt lat="47.533159" lon="7.668361">
        <ele>270.693851</ele>
        <time>2021-11-13T14:34:00.613Z</time>
      </trkpt>
      <trkpt lat="47.533253" lon="7.668149">
        <ele>270.939317</ele>
        <time>2021-11-13T14:34:03.299Z</time>
      </trkpt>
      <trkpt lat="47.533486" lon="7.667627">
        <ele>271.408610</ele>
        <time>2021-11-13T14:34:10.922Z</time>
      </trkpt>
      <trkpt lat="47.533740" lon="7.667075">
        <ele>271.277124</ele>
        <time>2021-11-13T14:34:18.445Z</time>
      </trkpt>
      <trkpt lat="47.533835" lon="7.666868">
        <ele>271.227859</ele>
        <time>2021-11-13T14:34:20.515Z</time>
      </trkpt>
      <trkpt lat="47.533775" lon="7.666807">
        <ele>271.206642</ele>
        <time>2021-11-13T14:34:21.836Z</time>
      </trkpt>
      <trkpt lat="47.533696" lon="7.666647">
        <ele>271.167626</ele>
        <time>2021-11-13T14:34:23.797Z</time>
      </trkpt>
      <trkpt lat="47.533398" lon="7.666305">
        <ele>271.057721</ele>
        <time>2021-11-13T14:34:28.305Z</time>
      </trkpt>
      <trkpt lat="47.533116" lon="7.665988">
        <ele>270.954512</ele>
        <time>2021-11-13T14:34:32.528Z</time>
      </trkpt>
      <trkpt lat="47.532925" lon="7.665760">
        <ele>270.967969</ele>
        <time>2021-11-13T14:34:35.617Z</time>
      </trkpt>
      <trkpt lat="47.532786" lon="7.665641">
        <ele>271.084911</ele>
        <time>2021-11-13T14:34:37.763Z</time>
      </trkpt>
      <trkpt lat="47.532672" lon="7.665583">
        <ele>271.172710</ele>
        <time>2021-11-13T14:34:39.395Z</time>
      </trkpt>
      <trkpt lat="47.532292" lon="7.665148">
        <ele>271.522531</ele>
        <time>2021-11-13T14:34:47.891Z</time>
      </trkpt>
      <trkpt lat="47.532140" lon="7.664972">
        <ele>271.663064</ele>
        <time>2021-11-13T14:34:51.331Z</time>
      </trkpt>
      <trkpt lat="47.531991" lon="7.664806">
        <ele>271.798869</ele>
        <time>2021-11-13T14:34:55.213Z</time>
      </trkpt>
      <trkpt lat="47.531765" lon="7.664540">
        <ele>272.009134</ele>
        <time>2021-11-13T14:35:00.949Z</time>
      </trkpt>
      <trkpt lat="47.530899" lon="7.663616">
        <ele>273.957226</ele>
        <time>2021-11-13T14:35:24.424Z</time>
      </trkpt>
      <trkpt lat="47.530793" lon="7.663521">
        <ele>274.233087</ele>
        <time>2021-11-13T14:35:27.951Z</time>
      </trkpt>
      <trkpt lat="47.530719" lon="7.663465">
        <ele>274.418114</ele>
        <time>2021-11-13T14:35:30.326Z</time>
      </trkpt>
      <trkpt lat="47.529792" lon="7.663087">
        <ele>276.585686</ele>
        <time>2021-11-13T14:35:59.448Z</time>
      </trkpt>
      <trkpt lat="47.529676" lon="7.663021">
        <ele>276.884357</ele>
        <time>2021-11-13T14:36:03.170Z</time>
      </trkpt>
      <trkpt lat="47.529624" lon="7.662986">
        <ele>277.021641</ele>
        <time>2021-11-13T14:36:04.569Z</time>
      </trkpt>
      <trkpt lat="47.529576" lon="7.662954">
        <ele>277.148158</ele>
        <time>2021-11-13T14:36:05.941Z</time>
      </trkpt>
      <trkpt lat="47.529502" lon="7.662906">
        <ele>277.342328</ele>
        <time>2021-11-13T14:36:08.099Z</time>
      </trkpt>
      <trkpt lat="47.528985" lon="7.662541">
        <ele>278.718900</ele>
        <time>2021-11-13T14:36:25.379Z</time>
      </trkpt>
      <trkpt lat="47.528693" lon="7.662320">
        <ele>279.507055</ele>
        <time>2021-11-13T14:36:35.117Z</time>
      </trkpt>
      <trkpt lat="47.528592" lon="7.662229">
        <ele>279.791202</ele>
        <time>2021-11-13T14:36:38.232Z</time>
      </trkpt>
      <trkpt lat="47.528425" lon="7.662035">
        <ele>280.301334</ele>
        <time>2021-11-13T14:36:43.039Z</time>
      </trkpt>
      <trkpt lat="47.528226" lon="7.661637">
        <ele>280.919710</ele>
        <time>2021-11-13T14:36:50.814Z</time>
      </trkpt>
      <trkpt lat="47.527912" lon="7.660639">
        <ele>282.115032</ele>
        <time>2021-11-13T14:37:07.985Z</time>
      </trkpt>
      <trkpt lat="47.527673" lon="7.659801">
        <ele>283.102632</ele>
        <time>2021-11-13T14:37:21.270Z</time>
      </trkpt>
      <trkpt lat="47.527666" lon="7.659776">
        <ele>283.132015</ele>
        <time>2021-11-13T14:37:21.706Z</time>
      </trkpt>
      <trkpt lat="47.527370" lon="7.658528">
        <ele>283.219021</ele>
        <time>2021-11-13T14:37:35.225Z</time>
      </trkpt>
      <trkpt lat="47.527241" lon="7.658123">
        <ele>283.125293</ele>
        <time>2021-11-13T14:37:39.067Z</time>
      </trkpt>
      <trkpt lat="47.527139" lon="7.657807">
        <ele>283.051982</ele>
        <time>2021-11-13T14:37:42.064Z</time>
      </trkpt>
      <trkpt lat="47.527042" lon="7.657604">
        <ele>282.999929</ele>
        <time>2021-11-13T14:37:44.199Z</time>
      </trkpt>
      <trkpt lat="47.526917" lon="7.657402">
        <ele>282.942580</ele>
        <time>2021-11-13T14:37:46.546Z</time>
      </trkpt>
      <trkpt lat="47.526859" lon="7.657325">
        <ele>282.918434</ele>
        <time>2021-11-13T14:37:47.483Z</time>
      </trkpt>
      <trkpt lat="47.526880" lon="7.657295">
        <ele>282.909390</ele>
        <time>2021-11-13T14:37:47.836Z</time>
      </trkpt>
      <trkpt lat="47.526883" lon="7.657129">
        <ele>282.878725</ele>
        <time>2021-11-13T14:37:49.473Z</time>
      </trkpt>
      <trkpt lat="47.526863" lon="7.657097">
        <ele>282.877223</ele>
        <time>2021-11-13T14:37:49.809Z</time>
      </trkpt>
      <trkpt lat="47.526840" lon="7.657078">
        <ele>282.875880</ele>
        <time>2021-11-13T14:37:50.130Z</time>
      </trkpt>
      <trkpt lat="47.526789" lon="7.657068">
        <ele>282.873257</ele>
        <time>2021-11-13T14:37:50.753Z</time>
      </trkpt>
      <trkpt lat="47.526764" lon="7.657078">
        <ele>282.871936</ele>
        <time>2021-11-13T14:37:51.064Z</time>
      </trkpt>
      <trkpt lat="47.526741" lon="7.657100">
        <ele>282.870540</ele>
        <time>2021-11-13T14:37:51.408Z</time>
      </trkpt>
      <trkpt lat="47.526722" lon="7.657130">
        <ele>282.869123</ele>
        <time>2021-11-13T14:37:51.728Z</time>
      </trkpt>
      <trkpt lat="47.526710" lon="7.657166">
        <ele>282.867741</ele>
        <time>2021-11-13T14:37:52.054Z</time>
      </trkpt>
      <trkpt lat="47.526706" lon="7.657209">
        <ele>282.866246</ele>
        <time>2021-11-13T14:37:52.407Z</time>
      </trkpt>
      <trkpt lat="47.526723" lon="7.657291">
        <ele>282.863292</ele>
        <time>2021-11-13T14:37:53.176Z</time>
      </trkpt>
      <trkpt lat="47.526743" lon="7.657323">
        <ele>282.861791</ele>
        <time>2021-11-13T14:37:53.695Z</time>
      </trkpt>
      <trkpt lat="47.526694" lon="7.657412">
        <ele>282.857837</ele>
        <time>2021-11-13T14:37:55.084Z</time>
      </trkpt>
      <trkpt lat="47.526672" lon="7.657453">
        <ele>282.856033</ele>
        <time>2021-11-13T14:37:55.651Z</time>
      </trkpt>
      <trkpt lat="47.526339" lon="7.657736">
        <ele>282.836454</ele>
        <time>2021-11-13T14:38:02.449Z</time>
      </trkpt>
      <trkpt lat="47.526194" lon="7.657732">
        <ele>282.829059</ele>
        <time>2021-11-13T14:38:04.899Z</time>
      </trkpt>
      <trkpt lat="47.526129" lon="7.657714">
        <ele>282.825686</ele>
        <time>2021-11-13T14:38:06.202Z</time>
      </trkpt>
      <trkpt lat="47.526058" lon="7.657663">
        <ele>282.821662</ele>
        <time>2021-11-13T14:38:07.648Z</time>
      </trkpt>
      <trkpt lat="47.525992" lon="7.657583">
        <ele>282.817313</ele>
        <time>2021-11-13T14:38:09.219Z</time>
      </trkpt>
      <trkpt lat="47.525949" lon="7.657484">
        <ele>282.813259</ele>
        <time>2021-11-13T14:38:10.879Z</time>
      </trkpt>
      <trkpt lat="47.525879" lon="7.657237">
        <ele>282.804035</ele>
        <time>2021-11-13T14:38:14.884Z</time>
      </trkpt>
      <trkpt lat="47.525864" lon="7.656858">
        <ele>282.790962</ele>
        <time>2021-11-13T14:38:21.004Z</time>
      </trkpt>
      <trkpt lat="47.525910" lon="7.656589">
        <ele>283.161899</ele>
        <time>2021-11-13T14:38:25.750Z</time>
      </trkpt>
      <trkpt lat="47.525936" lon="7.656458">
        <ele>283.436697</ele>
        <time>2021-11-13T14:38:28.276Z</time>
      </trkpt>
      <trkpt lat="47.525829" lon="7.656401">
        <ele>283.775609</ele>
        <time>2021-11-13T14:38:32.148Z</time>
      </trkpt>
      <trkpt lat="47.525670" lon="7.656313">
        <ele>284.281511</ele>
        <time>2021-11-13T14:38:35.841Z</time>
      </trkpt>
      <trkpt lat="47.525472" lon="7.656212">
        <ele>284.905665</ele>
        <time>2021-11-13T14:38:43.130Z</time>
      </trkpt>
      <trkpt lat="47.525397" lon="7.656172">
        <ele>285.143252</ele>
        <time>2021-11-13T14:38:44.783Z</time>
      </trkpt>
      <trkpt lat="47.525220" lon="7.656078">
        <ele>285.703685</ele>
        <time>2021-11-13T14:38:51.384Z</time>
      </trkpt>
      <trkpt lat="47.524818" lon="7.655865">
        <ele>286.976201</ele>
        <time>2021-11-13T14:39:03.350Z</time>
      </trkpt>
      <trkpt lat="47.524761" lon="7.655834">
        <ele>287.157180</ele>
        <time>2021-11-13T14:39:04.457Z</time>
      </trkpt>
      <trkpt lat="47.524698" lon="7.655801">
        <ele>287.356347</ele>
        <time>2021-11-13T14:39:05.807Z</time>
      </trkpt>
      <trkpt lat="47.524663" lon="7.655783">
        <ele>287.466774</ele>
        <time>2021-11-13T14:39:06.571Z</time>
      </trkpt>
      <trkpt lat="47.524616" lon="7.655757">
        <ele>287.616309</ele>
        <time>2021-11-13T14:39:09.378Z</time>
      </trkpt>
      <trkpt lat="47.524572" lon="7.655735">
        <ele>287.754721</ele>
        <time>2021-11-13T14:39:10.330Z</time>
      </trkpt>
      <trkpt lat="47.524519" lon="7.655706">
        <ele>287.923122</ele>
        <time>2021-11-13T14:39:12.863Z</time>
      </trkpt>
      <trkpt lat="47.524305" lon="7.655610">
        <ele>288.484681</ele>
        <time>2021-11-13T14:39:16.716Z</time>
      </trkpt>
      <trkpt lat="47.524277" lon="7.655598">
        <ele>288.550898</ele>
        <time>2021-11-13T14:39:18.995Z</time>
      </trkpt>
      <trkpt lat="47.524304" lon="7.655410">
        <ele>288.845741</ele>
        <time>2021-11-13T14:39:22.759Z</time>
      </trkpt>
      <trkpt lat="47.524475" lon="7.654210">
        <ele>290.727080</ele>
        <time>2021-11-13T14:39:42.712Z</time>
      </trkpt>
      <trkpt lat="47.524506" lon="7.653987">
        <ele>291.076335</ele>
        <time>2021-11-13T14:39:47.192Z</time>
      </trkpt>
      <trkpt lat="47.524516" lon="7.653915">
        <ele>291.189095</ele>
        <time>2021-11-13T14:39:48.788Z</time>
      </trkpt>
      <trkpt lat="47.524555" lon="7.653632">
        <ele>291.632163</ele>
        <time>2021-11-13T14:39:52.818Z</time>
      </trkpt>
      <trkpt lat="47.524557" lon="7.652450">
        <ele>292.638674</ele>
        <time>2021-11-13T14:40:07.178Z</time>
      </trkpt>
      <trkpt lat="47.524523" lon="7.652322">
        <ele>292.709109</ele>
        <time>2021-11-13T14:40:08.525Z</time>
      </trkpt>
      <trkpt lat="47.524484" lon="7.652177">
        <ele>292.789033</ele>
        <time>2021-11-13T14:40:09.958Z</time>
      </trkpt>
      <trkpt lat="47.524402" lon="7.651879">
        <ele>292.953814</ele>
        <time>2021-11-13T14:40:13.194Z</time>
      </trkpt>
      <trkpt lat="47.524245" lon="7.651314">
        <ele>293.266676</ele>
        <time>2021-11-13T14:40:19.767Z</time>
      </trkpt>
      <trkpt lat="47.524034" lon="7.650528">
        <ele>293.795028</ele>
        <time>2021-11-13T14:40:31.347Z</time>
      </trkpt>
      <trkpt lat="47.523968" lon="7.650324">
        <ele>294.019635</ele>
        <time>2021-11-13T14:40:34.042Z</time>
      </trkpt>
      <trkpt lat="47.523851" lon="7.649952">
        <ele>294.427106</ele>
        <time>2021-11-13T14:40:40.486Z</time>
      </trkpt>
      <trkpt lat="47.523799" lon="7.649826">
        <ele>294.573731</ele>
        <time>2021-11-13T14:40:42.274Z</time>
      </trkpt>
      <trkpt lat="47.523763" lon="7.649750">
        <ele>294.665909</ele>
        <time>2021-11-13T14:40:44.081Z</time>
      </trkpt>
      <trkpt lat="47.523318" lon="7.648996">
        <ele>295.660228</ele>
        <time>2021-11-13T14:40:57.174Z</time>
      </trkpt>
      <trkpt lat="47.523157" lon="7.648702">
        <ele>296.036081</ele>
        <time>2021-11-13T14:41:02.843Z</time>
      </trkpt>
      <trkpt lat="47.523005" lon="7.648426">
        <ele>296.344411</ele>
        <time>2021-11-13T14:41:08.446Z</time>
      </trkpt>
      <trkpt lat="47.522716" lon="7.647943">
        <ele>296.787125</ele>
        <time>2021-11-13T14:41:17.851Z</time>
      </trkpt>
      <trkpt lat="47.522552" lon="7.647695">
        <ele>297.025254</ele>
        <time>2021-11-13T14:41:22.038Z</time>
      </trkpt>
      <trkpt lat="47.522504" lon="7.647599">
        <ele>297.107202</ele>
        <time>2021-11-13T14:41:23.874Z</time>
      </trkpt>
      <trkpt lat="47.522477" lon="7.647501">
        <ele>297.179814</ele>
        <time>2021-11-13T14:41:25.117Z</time>
      </trkpt>
      <trkpt lat="47.522444" lon="7.647497">
        <ele>297.213451</ele>
        <time>2021-11-13T14:41:25.836Z</time>
      </trkpt>
      <trkpt lat="47.522408" lon="7.647467">
        <ele>297.255417</ele>
        <time>2021-11-13T14:41:26.451Z</time>
      </trkpt>
      <trkpt lat="47.521923" lon="7.646845">
        <ele>297.907228</ele>
        <time>2021-11-13T14:41:37.511Z</time>
      </trkpt>
      <trkpt lat="47.521902" lon="7.646594">
        <ele>298.069189</ele>
        <time>2021-11-13T14:41:39.855Z</time>
      </trkpt>
      <trkpt lat="47.521879" lon="7.646397">
        <ele>298.053258</ele>
        <time>2021-11-13T14:41:43.523Z</time>
      </trkpt>
      <trkpt lat="47.521817" lon="7.645962">
        <ele>298.017830</ele>
        <time>2021-11-13T14:41:47.701Z</time>
      </trkpt>
      <trkpt lat="47.521825" lon="7.645908">
        <ele>298.013425</ele>
        <time>2021-11-13T14:41:48.864Z</time>
      </trkpt>
      <trkpt lat="47.521909" lon="7.645686">
        <ele>297.993147</ele>
        <time>2021-11-13T14:41:51.234Z</time>
      </trkpt>
      <trkpt lat="47.521991" lon="7.645472">
        <ele>297.973540</ele>
        <time>2021-11-13T14:41:53.386Z</time>
      </trkpt>
      <trkpt lat="47.522133" lon="7.645245">
        <ele>297.948883</ele>
        <time>2021-11-13T14:41:56.104Z</time>
      </trkpt>
      <trkpt lat="47.522203" lon="7.645103">
        <ele>297.934874</ele>
        <time>2021-11-13T14:41:57.474Z</time>
      </trkpt>
      <trkpt lat="47.522112" lon="7.645020">
        <ele>297.922262</ele>
        <time>2021-11-13T14:41:59.589Z</time>
      </trkpt>
      <trkpt lat="47.521941" lon="7.644834">
        <ele>297.897226</ele>
        <time>2021-11-13T14:42:01.888Z</time>
      </trkpt>
      <trkpt lat="47.521870" lon="7.644697">
        <ele>297.883465</ele>
        <time>2021-11-13T14:42:04.227Z</time>
      </trkpt>
      <trkpt lat="47.521896" lon="7.644663">
        <ele>297.879372</ele>
        <time>2021-11-13T14:42:04.632Z</time>
      </trkpt>
      <trkpt lat="47.521979" lon="7.644414">
        <ele>297.858323</ele>
        <time>2021-11-13T14:42:06.868Z</time>
      </trkpt>
      <trkpt lat="47.522007" lon="7.644293">
        <ele>297.860250</ele>
        <time>2021-11-13T14:42:08.361Z</time>
      </trkpt>
      <trkpt lat="47.522032" lon="7.644163">
        <ele>297.862287</ele>
        <time>2021-11-13T14:42:10.214Z</time>
      </trkpt>
      <trkpt lat="47.522072" lon="7.643901">
        <ele>297.866334</ele>
        <time>2021-11-13T14:42:12.668Z</time>
      </trkpt>
      <trkpt lat="47.522081" lon="7.643783">
        <ele>297.868123</ele>
        <time>2021-11-13T14:42:14.221Z</time>
      </trkpt>
      <trkpt lat="47.522081" lon="7.643755">
        <ele>297.868545</ele>
        <time>2021-11-13T14:42:14.782Z</time>
      </trkpt>
      <trkpt lat="47.522082" lon="7.643656">
        <ele>297.870037</ele>
        <time>2021-11-13T14:42:16.244Z</time>
      </trkpt>
      <trkpt lat="47.522082" lon="7.643568">
        <ele>297.871363</ele>
        <time>2021-11-13T14:42:17.066Z</time>
      </trkpt>
      <trkpt lat="47.522055" lon="7.642957">
        <ele>297.880588</ele>
        <time>2021-11-13T14:42:24.481Z</time>
      </trkpt>
      <trkpt lat="47.522051" lon="7.642850">
        <ele>297.882203</ele>
        <time>2021-11-13T14:42:25.457Z</time>
      </trkpt>
      <trkpt lat="47.522009" lon="7.642032">
        <ele>297.894564</ele>
        <time>2021-11-13T14:42:33.113Z</time>
      </trkpt>
      <trkpt lat="47.522026" lon="7.641831">
        <ele>297.897616</ele>
        <time>2021-11-13T14:42:34.957Z</time>
      </trkpt>
      <trkpt lat="47.522038" lon="7.641697">
        <ele>297.830353</ele>
        <time>2021-11-13T14:42:36.228Z</time>
      </trkpt>
      <trkpt lat="47.522121" lon="7.641251">
        <ele>297.484877</ele>
        <time>2021-11-13T14:42:40.169Z</time>
      </trkpt>
      <trkpt lat="47.522213" lon="7.640855">
        <ele>297.172145</ele>
        <time>2021-11-13T14:42:43.919Z</time>
      </trkpt>
      <trkpt lat="47.522447" lon="7.639953">
        <ele>296.450566</ele>
        <time>2021-11-13T14:42:51.970Z</time>
      </trkpt>
      <trkpt lat="47.522550" lon="7.639700">
        <ele>296.229957</ele>
        <time>2021-11-13T14:42:54.469Z</time>
      </trkpt>
      <trkpt lat="47.522677" lon="7.639473">
        <ele>296.009823</ele>
        <time>2021-11-13T14:42:56.577Z</time>
      </trkpt>
      <trkpt lat="47.522788" lon="7.639280">
        <ele>295.674435</ele>
        <time>2021-11-13T14:42:58.484Z</time>
      </trkpt>
      <trkpt lat="47.522996" lon="7.638639">
        <ele>294.269564</ele>
        <time>2021-11-13T14:43:03.418Z</time>
      </trkpt>
      <trkpt lat="47.523089" lon="7.638357">
        <ele>293.649606</ele>
        <time>2021-11-13T14:43:05.666Z</time>
      </trkpt>
      <trkpt lat="47.523154" lon="7.638160">
        <ele>293.216474</ele>
        <time>2021-11-13T14:43:07.102Z</time>
      </trkpt>
      <trkpt lat="47.523801" lon="7.637031">
        <ele>290.418641</ele>
        <time>2021-11-13T14:43:17.234Z</time>
      </trkpt>
      <trkpt lat="47.524249" lon="7.636392">
        <ele>289.249023</ele>
        <time>2021-11-13T14:43:23.630Z</time>
      </trkpt>
      <trkpt lat="47.524358" lon="7.636235">
        <ele>288.963102</ele>
        <time>2021-11-13T14:43:25.282Z</time>
      </trkpt>
      <trkpt lat="47.524748" lon="7.635671">
        <ele>287.938081</ele>
        <time>2021-11-13T14:43:31.589Z</time>
      </trkpt>
      <trkpt lat="47.525218" lon="7.635093">
        <ele>287.589862</ele>
        <time>2021-11-13T14:43:39.528Z</time>
      </trkpt>
      <trkpt lat="47.525496" lon="7.634757">
        <ele>288.049307</ele>
        <time>2021-11-13T14:43:45.350Z</time>
      </trkpt>
      <trkpt lat="47.525562" lon="7.634678">
        <ele>288.157964</ele>
        <time>2021-11-13T14:43:46.923Z</time>
      </trkpt>
      <trkpt lat="47.525828" lon="7.634421">
        <ele>288.564618</ele>
        <time>2021-11-13T14:43:53.502Z</time>
      </trkpt>
      <trkpt lat="47.526076" lon="7.634113">
        <ele>288.979032</ele>
        <time>2021-11-13T14:44:00.680Z</time>
      </trkpt>
      <trkpt lat="47.526449" lon="7.633750">
        <ele>289.550504</ele>
        <time>2021-11-13T14:44:11.809Z</time>
      </trkpt>
      <trkpt lat="47.526697" lon="7.633482">
        <ele>290.565291</ele>
        <time>2021-11-13T14:44:20.470Z</time>
      </trkpt>
      <trkpt lat="47.526830" lon="7.633347">
        <ele>291.113937</ele>
        <time>2021-11-13T14:44:25.038Z</time>
      </trkpt>
      <trkpt lat="47.526975" lon="7.633190">
        <ele>291.725123</ele>
        <time>2021-11-13T14:44:29.988Z</time>
      </trkpt>
      <trkpt lat="47.527279" lon="7.632659">
        <ele>293.324638</ele>
        <time>2021-11-13T14:44:44.103Z</time>
      </trkpt>
      <trkpt lat="47.527458" lon="7.632289">
        <ele>294.370416</ele>
        <time>2021-11-13T14:44:53.464Z</time>
      </trkpt>
      <trkpt lat="47.527665" lon="7.631910">
        <ele>295.490401</ele>
        <time>2021-11-13T14:45:03.642Z</time>
      </trkpt>
      <trkpt lat="47.527861" lon="7.631503">
        <ele>296.222157</ele>
        <time>2021-11-13T14:45:13.283Z</time>
      </trkpt>
      <trkpt lat="47.528027" lon="7.631157">
        <ele>296.769634</ele>
        <time>2021-11-13T14:45:21.203Z</time>
      </trkpt>
      <trkpt lat="47.528096" lon="7.630940">
        <ele>297.079015</ele>
        <time>2021-11-13T14:45:23.312Z</time>
      </trkpt>
      <trkpt lat="47.528264" lon="7.630411">
        <ele>297.833051</ele>
        <time>2021-11-13T14:45:31.163Z</time>
      </trkpt>
      <trkpt lat="47.528284" lon="7.630360">
        <ele>297.909123</ele>
        <time>2021-11-13T14:45:32.533Z</time>
      </trkpt>
      <trkpt lat="47.528516" lon="7.629750">
        <ele>298.812160</ele>
        <time>2021-11-13T14:45:41.158Z</time>
      </trkpt>
      <trkpt lat="47.528686" lon="7.629298">
        <ele>299.410779</ele>
        <time>2021-11-13T14:45:48.523Z</time>
      </trkpt>
      <trkpt lat="47.528711" lon="7.629281">
        <ele>299.453154</ele>
        <time>2021-11-13T14:45:49.196Z</time>
      </trkpt>
      <trkpt lat="47.528732" lon="7.629282">
        <ele>299.485520</ele>
        <time>2021-11-13T14:45:49.616Z</time>
      </trkpt>
      <trkpt lat="47.528775" lon="7.629297">
        <ele>299.553570</ele>
        <time>2021-11-13T14:45:50.054Z</time>
      </trkpt>
      <trkpt lat="47.528956" lon="7.629459">
        <ele>299.879345</ele>
        <time>2021-11-13T14:45:55.043Z</time>
      </trkpt>
      <trkpt lat="47.529013" lon="7.629325">
        <ele>300.044072</ele>
        <time>2021-11-13T14:45:57.632Z</time>
      </trkpt>
      <trkpt lat="47.529126" lon="7.629058">
        <ele>300.371824</ele>
        <time>2021-11-13T14:46:02.060Z</time>
      </trkpt>
      <trkpt lat="47.529242" lon="7.628533">
        <ele>300.946374</ele>
        <time>2021-11-13T14:46:09.155Z</time>
      </trkpt>
      <trkpt lat="47.529256" lon="7.628309">
        <ele>301.180354</ele>
        <time>2021-11-13T14:46:12.524Z</time>
      </trkpt>
      <trkpt lat="47.529243" lon="7.628048">
        <ele>301.452560</ele>
        <time>2021-11-13T14:46:16.151Z</time>
      </trkpt>
      <trkpt lat="47.529188" lon="7.627028">
        <ele>301.780293</ele>
        <time>2021-11-13T14:46:32.536Z</time>
      </trkpt>
      <trkpt lat="47.529178" lon="7.626842">
        <ele>301.744437</ele>
        <time>2021-11-13T14:46:35.764Z</time>
      </trkpt>
      <trkpt lat="47.529108" lon="7.625842">
        <ele>301.551245</ele>
        <time>2021-11-13T14:46:47.031Z</time>
      </trkpt>
      <trkpt lat="47.528999" lon="7.625008">
        <ele>301.388006</ele>
        <time>2021-11-13T14:46:53.741Z</time>
      </trkpt>
      <trkpt lat="47.528967" lon="7.624774">
        <ele>300.409496</ele>
        <time>2021-11-13T14:46:55.271Z</time>
      </trkpt>
      <trkpt lat="47.528899" lon="7.624493">
        <ele>299.051806</ele>
        <time>2021-11-13T14:46:57.135Z</time>
      </trkpt>
      <trkpt lat="47.528856" lon="7.624416">
        <ele>298.597322</ele>
        <time>2021-11-13T14:46:57.740Z</time>
      </trkpt>
      <trkpt lat="47.528828" lon="7.624375">
        <ele>298.332086</ele>
        <time>2021-11-13T14:46:58.070Z</time>
      </trkpt>
      <trkpt lat="47.527839" lon="7.623515">
        <ele>290.606578</ele>
        <time>2021-11-13T14:47:08.223Z</time>
      </trkpt>
      <trkpt lat="47.527668" lon="7.623366">
        <ele>289.270118</ele>
        <time>2021-11-13T14:47:09.978Z</time>
      </trkpt>
      <trkpt lat="47.527585" lon="7.623336">
        <ele>288.851668</ele>
        <time>2021-11-13T14:47:10.712Z</time>
      </trkpt>
      <trkpt lat="47.527349" lon="7.623302">
        <ele>287.692413</ele>
        <time>2021-11-13T14:47:12.835Z</time>
      </trkpt>
      <trkpt lat="47.527294" lon="7.623295">
        <ele>287.422526</ele>
        <time>2021-11-13T14:47:13.332Z</time>
      </trkpt>
      <trkpt lat="47.526978" lon="7.623273">
        <ele>285.875889</ele>
        <time>2021-11-13T14:47:16.215Z</time>
      </trkpt>
      <trkpt lat="47.525187" lon="7.623251">
        <ele>279.786566</ele>
        <time>2021-11-13T14:47:34.214Z</time>
      </trkpt>
      <trkpt lat="47.524983" lon="7.623179">
        <ele>279.576517</ele>
        <time>2021-11-13T14:47:37.022Z</time>
      </trkpt>
      <trkpt lat="47.524857" lon="7.623123">
        <ele>279.444754</ele>
        <time>2021-11-13T14:47:38.665Z</time>
      </trkpt>
      <trkpt lat="47.524607" lon="7.623024">
        <ele>279.185555</ele>
        <time>2021-11-13T14:47:42.163Z</time>
      </trkpt>
      <trkpt lat="47.524384" lon="7.623050">
        <ele>278.961507</ele>
        <time>2021-11-13T14:47:45.148Z</time>
      </trkpt>
      <trkpt lat="47.523991" lon="7.622959">
        <ele>279.152388</ele>
        <time>2021-11-13T14:47:52.383Z</time>
      </trkpt>
      <trkpt lat="47.523145" lon="7.622731">
        <ele>282.940627</ele>
        <time>2021-11-13T14:48:19.372Z</time>
      </trkpt>
      <trkpt lat="47.522782" lon="7.622574">
        <ele>284.606623</ele>
        <time>2021-11-13T14:48:33.197Z</time>
      </trkpt>
      <trkpt lat="47.522665" lon="7.622571">
        <ele>285.122139</ele>
        <time>2021-11-13T14:48:35.822Z</time>
      </trkpt>
      <trkpt lat="47.522585" lon="7.622690">
        <ele>285.621685</ele>
        <time>2021-11-13T14:48:42.939Z</time>
      </trkpt>
      <trkpt lat="47.522503" lon="7.623110">
        <ele>287.094847</ele>
        <time>2021-11-13T14:48:51.912Z</time>
      </trkpt>
      <trkpt lat="47.522482" lon="7.623173">
        <ele>287.414367</ele>
        <time>2021-11-13T14:48:56.248Z</time>
      </trkpt>
      <trkpt lat="47.522347" lon="7.623294">
        <ele>288.477104</ele>
        <time>2021-11-13T14:49:01.792Z</time>
      </trkpt>
      <trkpt lat="47.521784" lon="7.623713">
        <ele>292.720593</ele>
        <time>2021-11-13T14:49:31.286Z</time>
      </trkpt>
      <trkpt lat="47.521370" lon="7.623827">
        <ele>295.556506</ele>
        <time>2021-11-13T14:49:50.956Z</time>
      </trkpt>
      <trkpt lat="47.520946" lon="7.624186">
        <ele>298.767983</ele>
        <time>2021-11-13T14:50:09.588Z</time>
      </trkpt>
      <trkpt lat="47.520872" lon="7.624220">
        <ele>298.992484</ele>
        <time>2021-11-13T14:50:12.335Z</time>
      </trkpt>
      <trkpt lat="47.520815" lon="7.624237">
        <ele>299.160960</ele>
        <time>2021-11-13T14:50:14.022Z</time>
      </trkpt>
      <trkpt lat="47.520733" lon="7.624234">
        <ele>299.398630</ele>
        <time>2021-11-13T14:50:16.797Z</time>
      </trkpt>
      <trkpt lat="47.520376" lon="7.624074">
        <ele>300.479391</ele>
        <time>2021-11-13T14:50:28.016Z</time>
      </trkpt>
      <trkpt lat="47.520189" lon="7.623874">
        <ele>301.147784</ele>
        <time>2021-11-13T14:50:34.582Z</time>
      </trkpt>
      <trkpt lat="47.519373" lon="7.622581">
        <ele>302.887047</ele>
        <time>2021-11-13T14:51:04.214Z</time>
      </trkpt>
      <trkpt lat="47.518610" lon="7.621067">
        <ele>297.347648</ele>
        <time>2021-11-13T14:51:16.060Z</time>
      </trkpt>
      <trkpt lat="47.518522" lon="7.620852">
        <ele>296.610444</ele>
        <time>2021-11-13T14:51:17.775Z</time>
      </trkpt>
      <trkpt lat="47.518498" lon="7.620755">
        <ele>296.307518</ele>
        <time>2021-11-13T14:51:18.353Z</time>
      </trkpt>
      <trkpt lat="47.518254" lon="7.619753">
        <ele>292.100790</ele>
        <time>2021-11-13T14:51:24.728Z</time>
      </trkpt>
      <trkpt lat="47.518224" lon="7.619647">
        <ele>291.639035</ele>
        <time>2021-11-13T14:51:25.376Z</time>
      </trkpt>
      <trkpt lat="47.518095" lon="7.619236">
        <ele>289.818158</ele>
        <time>2021-11-13T14:51:28.212Z</time>
      </trkpt>
      <trkpt lat="47.518048" lon="7.619062">
        <ele>289.065241</ele>
        <time>2021-11-13T14:51:29.333Z</time>
      </trkpt>
      <trkpt lat="47.517971" lon="7.619084">
        <ele>288.598721</ele>
        <time>2021-11-13T14:51:30.623Z</time>
      </trkpt>
      <trkpt lat="47.517896" lon="7.619090">
        <ele>288.151899</ele>
        <time>2021-11-13T14:51:31.368Z</time>
      </trkpt>
      <trkpt lat="47.517673" lon="7.619037">
        <ele>286.808299</ele>
        <time>2021-11-13T14:51:33.342Z</time>
      </trkpt>
      <trkpt lat="47.517607" lon="7.619013">
        <ele>286.404001</ele>
        <time>2021-11-13T14:51:34.822Z</time>
      </trkpt>
      <trkpt lat="47.517519" lon="7.618985">
        <ele>285.868542</ele>
        <time>2021-11-13T14:51:36.025Z</time>
      </trkpt>
      <trkpt lat="47.517425" lon="7.618967">
        <ele>285.427256</ele>
        <time>2021-11-13T14:51:36.863Z</time>
      </trkpt>
      <trkpt lat="47.517339" lon="7.618976">
        <ele>285.504874</ele>
        <time>2021-11-13T14:51:37.700Z</time>
      </trkpt>
      <trkpt lat="47.517243" lon="7.618988">
        <ele>285.591608</ele>
        <time>2021-11-13T14:51:39.989Z</time>
      </trkpt>
      <trkpt lat="47.517018" lon="7.619070">
        <ele>285.800217</ele>
        <time>2021-11-13T14:51:42.263Z</time>
      </trkpt>
      <trkpt lat="47.516562" lon="7.619236">
        <ele>286.222971</ele>
        <time>2021-11-13T14:51:51.219Z</time>
      </trkpt>
      <trkpt lat="47.516384" lon="7.619306">
        <ele>286.388777</ele>
        <time>2021-11-13T14:51:55.449Z</time>
      </trkpt>
      <trkpt lat="47.516297" lon="7.619344">
        <ele>286.470438</ele>
        <time>2021-11-13T14:51:58.085Z</time>
      </trkpt>
      <trkpt lat="47.516297" lon="7.619344">
        <ele>286.470438</ele>
        <time>2021-11-13T14:51:58.091Z</time>
      </trkpt>
      <trkpt lat="47.516078" lon="7.619459">
        <ele>286.679632</ele>
        <time>2021-11-13T14:52:04.548Z</time>
      </trkpt>
      <trkpt lat="47.516017" lon="7.619486">
        <ele>286.736950</ele>
        <time>2021-11-13T14:52:06.570Z</time>
      </trkpt>
      <trkpt lat="47.515378" lon="7.619769">
        <ele>288.538508</ele>
        <time>2021-11-13T14:52:27.128Z</time>
      </trkpt>
      <trkpt lat="47.515045" lon="7.619952">
        <ele>290.109435</ele>
        <time>2021-11-13T14:52:37.919Z</time>
      </trkpt>
      <trkpt lat="47.514972" lon="7.619996">
        <ele>290.458018</ele>
        <time>2021-11-13T14:52:40.491Z</time>
      </trkpt>
      <trkpt lat="47.514570" lon="7.620207">
        <ele>292.344348</ele>
        <time>2021-11-13T14:52:54.012Z</time>
      </trkpt>
      <trkpt lat="47.514417" lon="7.620289">
        <ele>293.063987</ele>
        <time>2021-11-13T14:52:59.450Z</time>
      </trkpt>
      <trkpt lat="47.513993" lon="7.620506">
        <ele>295.048150</ele>
        <time>2021-11-13T14:53:15.108Z</time>
      </trkpt>
      <trkpt lat="47.513927" lon="7.620535">
        <ele>295.352984</ele>
        <time>2021-11-13T14:53:17.621Z</time>
      </trkpt>
      <trkpt lat="47.513861" lon="7.620554">
        <ele>295.650694</ele>
        <time>2021-11-13T14:53:20.679Z</time>
      </trkpt>
      <trkpt lat="47.513848" lon="7.620558">
        <ele>295.709485</ele>
        <time>2021-11-13T14:53:21.170Z</time>
      </trkpt>
      <trkpt lat="47.513713" lon="7.620598">
        <ele>296.319095</ele>
        <time>2021-11-13T14:53:25.613Z</time>
      </trkpt>
      <trkpt lat="47.513499" lon="7.620661">
        <ele>297.285200</ele>
        <time>2021-11-13T14:53:34.543Z</time>
      </trkpt>
      <trkpt lat="47.513422" lon="7.620681">
        <ele>297.631350</ele>
        <time>2021-11-13T14:53:37.065Z</time>
      </trkpt>
      <trkpt lat="47.513328" lon="7.620704">
        <ele>298.053211</ele>
        <time>2021-11-13T14:53:40.472Z</time>
      </trkpt>
      <trkpt lat="47.513204" lon="7.620721">
        <ele>298.604611</ele>
        <time>2021-11-13T14:53:44.890Z</time>
      </trkpt>
      <trkpt lat="47.513126" lon="7.620738">
        <ele>298.953703</ele>
        <time>2021-11-13T14:53:48.121Z</time>
      </trkpt>
      <trkpt lat="47.512974" lon="7.620771">
        <ele>299.633931</ele>
        <time>2021-11-13T14:53:52.648Z</time>
      </trkpt>
      <trkpt lat="47.512586" lon="7.620836">
        <ele>301.362892</ele>
        <time>2021-11-13T14:54:04.382Z</time>
      </trkpt>
      <trkpt lat="47.512484" lon="7.620846">
        <ele>301.815519</ele>
        <time>2021-11-13T14:54:07.578Z</time>
      </trkpt>
      <trkpt lat="47.512183" lon="7.620945">
        <ele>303.054492</ele>
        <time>2021-11-13T14:54:16.064Z</time>
      </trkpt>
      <trkpt lat="47.512137" lon="7.620969">
        <ele>303.152603</ele>
        <time>2021-11-13T14:54:17.602Z</time>
      </trkpt>
      <trkpt lat="47.512084" lon="7.620988">
        <ele>303.262299</ele>
        <time>2021-11-13T14:54:19.228Z</time>
      </trkpt>
      <trkpt lat="47.511978" lon="7.621014">
        <ele>303.478435</ele>
        <time>2021-11-13T14:54:21.703Z</time>
      </trkpt>
      <trkpt lat="47.511960" lon="7.621016">
        <ele>303.514746</ele>
        <time>2021-11-13T14:54:22.249Z</time>
      </trkpt>
      <trkpt lat="47.511800" lon="7.621034">
        <ele>303.837529</ele>
        <time>2021-11-13T14:54:26.207Z</time>
      </trkpt>
      <trkpt lat="47.511656" lon="7.621046">
        <ele>304.127658</ele>
        <time>2021-11-13T14:54:29.824Z</time>
      </trkpt>
      <trkpt lat="47.511541" lon="7.621047">
        <ele>304.358996</ele>
        <time>2021-11-13T14:54:32.256Z</time>
      </trkpt>
      <trkpt lat="47.511365" lon="7.621043">
        <ele>304.713080</ele>
        <time>2021-11-13T14:54:36.355Z</time>
      </trkpt>
      <trkpt lat="47.511298" lon="7.621034">
        <ele>304.848410</ele>
        <time>2021-11-13T14:54:37.713Z</time>
      </trkpt>
      <trkpt lat="47.511233" lon="7.621026">
        <ele>304.979615</ele>
        <time>2021-11-13T14:54:39.184Z</time>
      </trkpt>
      <trkpt lat="47.510934" lon="7.620963">
        <ele>305.587144</ele>
        <time>2021-11-13T14:54:45.553Z</time>
      </trkpt>
      <trkpt lat="47.510811" lon="7.620935">
        <ele>305.837479</ele>
        <time>2021-11-13T14:54:48.013Z</time>
      </trkpt>
      <trkpt lat="47.510466" lon="7.620854">
        <ele>306.540153</ele>
        <time>2021-11-13T14:54:55.078Z</time>
      </trkpt>
      <trkpt lat="47.510340" lon="7.620825">
        <ele>306.671618</ele>
        <time>2021-11-13T14:54:57.457Z</time>
      </trkpt>
      <trkpt lat="47.510287" lon="7.620804">
        <ele>306.721764</ele>
        <time>2021-11-13T14:54:58.486Z</time>
      </trkpt>
      <trkpt lat="47.509922" lon="7.620670">
        <ele>307.065472</ele>
        <time>2021-11-13T14:55:05.537Z</time>
      </trkpt>
      <trkpt lat="47.509508" lon="7.620519">
        <ele>307.455175</ele>
        <time>2021-11-13T14:55:13.800Z</time>
      </trkpt>
      <trkpt lat="47.509079" lon="7.620306">
        <ele>307.868736</ele>
        <time>2021-11-13T14:55:22.269Z</time>
      </trkpt>
      <trkpt lat="47.509013" lon="7.620273">
        <ele>307.932407</ele>
        <time>2021-11-13T14:55:23.510Z</time>
      </trkpt>
      <trkpt lat="47.508663" lon="7.620098">
        <ele>308.177206</ele>
        <time>2021-11-13T14:55:29.879Z</time>
      </trkpt>
      <trkpt lat="47.507966" lon="7.619751">
        <ele>307.784923</ele>
        <time>2021-11-13T14:55:40.775Z</time>
      </trkpt>
      <trkpt lat="47.507606" lon="7.619563">
        <ele>307.581279</ele>
        <time>2021-11-13T14:55:45.410Z</time>
      </trkpt>
      <trkpt lat="47.507380" lon="7.619501">
        <ele>307.458665</ele>
        <time>2021-11-13T14:55:48.256Z</time>
      </trkpt>
      <trkpt lat="47.506979" lon="7.619510">
        <ele>307.249374</ele>
        <time>2021-11-13T14:55:52.915Z</time>
      </trkpt>
      <trkpt lat="47.506634" lon="7.619453">
        <ele>307.183838</ele>
        <time>2021-11-13T14:55:57.096Z</time>
      </trkpt>
      <trkpt lat="47.506542" lon="7.619438">
        <ele>307.166365</ele>
        <time>2021-11-13T14:55:58.107Z</time>
      </trkpt>
      <trkpt lat="47.506328" lon="7.619429">
        <ele>307.125948</ele>
        <time>2021-11-13T14:56:00.879Z</time>
      </trkpt>
      <trkpt lat="47.506241" lon="7.619425">
        <ele>307.109516</ele>
        <time>2021-11-13T14:56:01.844Z</time>
      </trkpt>
      <trkpt lat="47.505968" lon="7.619447">
        <ele>307.057901</ele>
        <time>2021-11-13T14:56:05.929Z</time>
      </trkpt>
      <trkpt lat="47.505759" lon="7.619472">
        <ele>307.018316</ele>
        <time>2021-11-13T14:56:08.751Z</time>
      </trkpt>
      <trkpt lat="47.505257" lon="7.619587">
        <ele>306.922417</ele>
        <time>2021-11-13T14:56:18.091Z</time>
      </trkpt>
      <trkpt lat="47.504951" lon="7.619637">
        <ele>307.477278</ele>
        <time>2021-11-13T14:56:23.908Z</time>
      </trkpt>
      <trkpt lat="47.504399" lon="7.619611">
        <ele>308.702713</ele>
        <time>2021-11-13T14:56:36.437Z</time>
      </trkpt>
      <trkpt lat="47.504266" lon="7.619606">
        <ele>308.997917</ele>
        <time>2021-11-13T14:56:39.783Z</time>
      </trkpt>
      <trkpt lat="47.503777" lon="7.619587">
        <ele>310.083317</ele>
        <time>2021-11-13T14:56:53.315Z</time>
      </trkpt>
      <trkpt lat="47.503702" lon="7.619579">
        <ele>310.250163</ele>
        <time>2021-11-13T14:56:55.119Z</time>
      </trkpt>
      <trkpt lat="47.503407" lon="7.619587">
        <ele>310.904975</ele>
        <time>2021-11-13T14:57:02.684Z</time>
      </trkpt>
      <trkpt lat="47.502869" lon="7.619611">
        <ele>312.206233</ele>
        <time>2021-11-13T14:57:16.113Z</time>
      </trkpt>
      <trkpt lat="47.502748" lon="7.619618">
        <ele>312.498985</ele>
        <time>2021-11-13T14:57:19.418Z</time>
      </trkpt>
      <trkpt lat="47.502423" lon="7.619573">
        <ele>313.288134</ele>
        <time>2021-11-13T14:57:26.967Z</time>
      </trkpt>
      <trkpt lat="47.501858" lon="7.619248">
        <ele>314.753586</ele>
        <time>2021-11-13T14:57:40.495Z</time>
      </trkpt>
      <trkpt lat="47.501815" lon="7.619219">
        <ele>314.867824</ele>
        <time>2021-11-13T14:57:42.038Z</time>
      </trkpt>
      <trkpt lat="47.501728" lon="7.619173">
        <ele>315.091170</ele>
        <time>2021-11-13T14:57:44.435Z</time>
      </trkpt>
      <trkpt lat="47.501642" lon="7.619135">
        <ele>315.330898</ele>
        <time>2021-11-13T14:57:46.605Z</time>
      </trkpt>
      <trkpt lat="47.501258" lon="7.619029">
        <ele>316.655878</ele>
        <time>2021-11-13T14:57:56.671Z</time>
      </trkpt>
      <trkpt lat="47.501024" lon="7.619039">
        <ele>317.449935</ele>
        <time>2021-11-13T14:58:02.620Z</time>
      </trkpt>
      <trkpt lat="47.500324" lon="7.619214">
        <ele>319.857956</ele>
        <time>2021-11-13T14:58:23.621Z</time>
      </trkpt>
      <trkpt lat="47.499712" lon="7.619298">
        <ele>322.051541</ele>
        <time>2021-11-13T14:58:42.886Z</time>
      </trkpt>
      <trkpt lat="47.499629" lon="7.619296">
        <ele>322.385022</ele>
        <time>2021-11-13T14:58:45.399Z</time>
      </trkpt>
      <trkpt lat="47.499588" lon="7.619273">
        <ele>322.561164</ele>
        <time>2021-11-13T14:58:46.733Z</time>
      </trkpt>
      <trkpt lat="47.499552" lon="7.619300">
        <ele>322.723293</ele>
        <time>2021-11-13T14:58:48.789Z</time>
      </trkpt>
      <trkpt lat="47.499482" lon="7.619313">
        <ele>323.006710</ele>
        <time>2021-11-13T14:58:51.184Z</time>
      </trkpt>
      <trkpt lat="47.499079" lon="7.619349">
        <ele>324.628631</ele>
        <time>2021-11-13T14:59:05.744Z</time>
      </trkpt>
      <trkpt lat="47.498887" lon="7.619379">
        <ele>325.404240</ele>
        <time>2021-11-13T14:59:12.535Z</time>
      </trkpt>
      <trkpt lat="47.498443" lon="7.619450">
        <ele>327.198304</ele>
        <time>2021-11-13T14:59:29.275Z</time>
      </trkpt>
      <trkpt lat="47.498018" lon="7.619431">
        <ele>328.822336</ele>
        <time>2021-11-13T14:59:44.428Z</time>
      </trkpt>
      <trkpt lat="47.497861" lon="7.619439">
        <ele>329.291630</ele>
        <time>2021-11-13T14:59:49.967Z</time>
      </trkpt>
      <trkpt lat="47.497749" lon="7.619469">
        <ele>329.631650</ele>
        <time>2021-11-13T14:59:53.834Z</time>
      </trkpt>
      <trkpt lat="47.497635" lon="7.619528">
        <ele>329.992428</ele>
        <time>2021-11-13T14:59:57.994Z</time>
      </trkpt>
      <trkpt lat="47.497529" lon="7.619591">
        <ele>330.333665</ele>
        <time>2021-11-13T15:00:02.187Z</time>
      </trkpt>
      <trkpt lat="47.497427" lon="7.619683">
        <ele>330.690496</ele>
        <time>2021-11-13T15:00:06.261Z</time>
      </trkpt>
      <trkpt lat="47.497282" lon="7.619853">
        <ele>331.243094</ele>
        <time>2021-11-13T15:00:12.567Z</time>
      </trkpt>
      <trkpt lat="47.496981" lon="7.620187">
        <ele>332.366928</ele>
        <time>2021-11-13T15:00:24.630Z</time>
      </trkpt>
      <trkpt lat="47.496874" lon="7.620315">
        <ele>332.777926</ele>
        <time>2021-11-13T15:00:28.635Z</time>
      </trkpt>
      <trkpt lat="47.496715" lon="7.620506">
        <ele>333.389671</ele>
        <time>2021-11-13T15:00:34.480Z</time>
      </trkpt>
      <trkpt lat="47.496519" lon="7.620793">
        <ele>334.047877</ele>
        <time>2021-11-13T15:00:41.979Z</time>
      </trkpt>
      <trkpt lat="47.496439" lon="7.620890">
        <ele>334.161529</ele>
        <time>2021-11-13T15:00:45.024Z</time>
      </trkpt>
      <trkpt lat="47.496331" lon="7.621021">
        <ele>334.314982</ele>
        <time>2021-11-13T15:00:48.646Z</time>
      </trkpt>
      <trkpt lat="47.496219" lon="7.621150">
        <ele>334.470944</ele>
        <time>2021-11-13T15:00:52.229Z</time>
      </trkpt>
      <trkpt lat="47.496143" lon="7.621224">
        <ele>334.570918</ele>
        <time>2021-11-13T15:00:54.639Z</time>
      </trkpt>
      <trkpt lat="47.496025" lon="7.621316">
        <ele>334.717488</ele>
        <time>2021-11-13T15:00:57.929Z</time>
      </trkpt>
      <trkpt lat="47.495914" lon="7.621389">
        <ele>334.850973</ele>
        <time>2021-11-13T15:01:00.770Z</time>
      </trkpt>
      <trkpt lat="47.495847" lon="7.621416">
        <ele>334.927285</ele>
        <time>2021-11-13T15:01:02.405Z</time>
      </trkpt>
      <trkpt lat="47.495742" lon="7.621459">
        <ele>335.047012</ele>
        <time>2021-11-13T15:01:05.016Z</time>
      </trkpt>
      <trkpt lat="47.495602" lon="7.621476">
        <ele>335.201384</ele>
        <time>2021-11-13T15:01:08.245Z</time>
      </trkpt>
      <trkpt lat="47.495544" lon="7.621488">
        <ele>335.265744</ele>
        <time>2021-11-13T15:01:09.534Z</time>
      </trkpt>
      <trkpt lat="47.495126" lon="7.621574">
        <ele>335.729528</ele>
        <time>2021-11-13T15:01:19.228Z</time>
      </trkpt>
      <trkpt lat="47.495010" lon="7.621539">
        <ele>335.859630</ele>
        <time>2021-11-13T15:01:21.804Z</time>
      </trkpt>
      <trkpt lat="47.494852" lon="7.621478">
        <ele>336.081030</ele>
        <time>2021-11-13T15:01:25.842Z</time>
      </trkpt>
      <trkpt lat="47.494819" lon="7.621452">
        <ele>336.137665</ele>
        <time>2021-11-13T15:01:26.660Z</time>
      </trkpt>
      <trkpt lat="47.494692" lon="7.621355">
        <ele>336.354172</ele>
        <time>2021-11-13T15:01:29.748Z</time>
      </trkpt>
      <trkpt lat="47.494315" lon="7.620971">
        <ele>337.047492</ele>
        <time>2021-11-13T15:01:40.236Z</time>
      </trkpt>
      <trkpt lat="47.494161" lon="7.621164">
        <ele>337.353200</ele>
        <time>2021-11-13T15:01:45.462Z</time>
      </trkpt>
      <trkpt lat="47.494011" lon="7.621266">
        <ele>337.603280</ele>
        <time>2021-11-13T15:01:49.932Z</time>
      </trkpt>
      <trkpt lat="47.493709" lon="7.621322">
        <ele>338.064372</ele>
        <time>2021-11-13T15:01:58.272Z</time>
      </trkpt>
      <trkpt lat="47.493640" lon="7.621349">
        <ele>338.172496</ele>
        <time>2021-11-13T15:02:00.597Z</time>
      </trkpt>
      <trkpt lat="47.493550" lon="7.621473">
        <ele>338.358777</ele>
        <time>2021-11-13T15:02:04.369Z</time>
      </trkpt>
      <trkpt lat="47.493250" lon="7.622027">
        <ele>339.796858</ele>
        <time>2021-11-13T15:02:18.479Z</time>
      </trkpt>
      <trkpt lat="47.493141" lon="7.622177">
        <ele>340.393284</ele>
        <time>2021-11-13T15:02:23.471Z</time>
      </trkpt>
      <trkpt lat="47.492932" lon="7.622359">
        <ele>341.365002</ele>
        <time>2021-11-13T15:02:31.602Z</time>
      </trkpt>
      <trkpt lat="47.492791" lon="7.622733">
        <ele>342.524599</ele>
        <time>2021-11-13T15:02:41.419Z</time>
      </trkpt>
      <trkpt lat="47.492595" lon="7.623200">
        <ele>344.013115</ele>
        <time>2021-11-13T15:02:54.330Z</time>
      </trkpt>
      <trkpt lat="47.492552" lon="7.623386">
        <ele>344.545389</ele>
        <time>2021-11-13T15:03:01.919Z</time>
      </trkpt>
      <trkpt lat="47.492583" lon="7.623626">
        <ele>345.206978</ele>
        <time>2021-11-13T15:03:07.123Z</time>
      </trkpt>
      <trkpt lat="47.492671" lon="7.623981">
        <ele>346.724136</ele>
        <time>2021-11-13T15:03:19.279Z</time>
      </trkpt>
      <trkpt lat="47.492832" lon="7.624248">
        <ele>348.984149</ele>
        <time>2021-11-13T15:03:30.644Z</time>
      </trkpt>
      <trkpt lat="47.493362" lon="7.624708">
        <ele>354.726812</ele>
        <time>2021-11-13T15:03:57.795Z</time>
      </trkpt>
      <trkpt lat="47.493429" lon="7.624794">
        <ele>355.555740</ele>
        <time>2021-11-13T15:04:03.936Z</time>
      </trkpt>
      <trkpt lat="47.493442" lon="7.624819">
        <ele>355.754963</ele>
        <time>2021-11-13T15:04:06.349Z</time>
      </trkpt>
      <trkpt lat="47.493385" lon="7.625203">
        <ele>358.237847</ele>
        <time>2021-11-13T15:04:21.127Z</time>
      </trkpt>
      <trkpt lat="47.493025" lon="7.625930">
        <ele>364.346232</ele>
        <time>2021-11-13T15:05:08.209Z</time>
      </trkpt>
      <trkpt lat="47.492753" lon="7.626506">
        <ele>370.252169</ele>
        <time>2021-11-13T15:05:44.237Z</time>
      </trkpt>
      <trkpt lat="47.492598" lon="7.626897">
        <ele>374.062064</ele>
        <time>2021-11-13T15:06:09.779Z</time>
      </trkpt>
      <trkpt lat="47.492519" lon="7.627211">
        <ele>376.878031</ele>
        <time>2021-11-13T15:06:24.176Z</time>
      </trkpt>
      <trkpt lat="47.492509" lon="7.627643">
        <ele>380.510841</ele>
        <time>2021-11-13T15:06:42.451Z</time>
      </trkpt>
      <trkpt lat="47.492535" lon="7.627845">
        <ele>382.239047</ele>
        <time>2021-11-13T15:06:54.238Z</time>
      </trkpt>
      <trkpt lat="47.492558" lon="7.627982">
        <ele>383.425451</ele>
        <time>2021-11-13T15:06:59.769Z</time>
      </trkpt>
      <trkpt lat="47.492633" lon="7.628596">
        <ele>386.906909</ele>
        <time>2021-11-13T15:07:24.515Z</time>
      </trkpt>
      <trkpt lat="47.492729" lon="7.629308">
        <ele>390.042637</ele>
        <time>2021-11-13T15:07:47.878Z</time>
      </trkpt>
      <trkpt lat="47.492750" lon="7.629836">
        <ele>392.326994</ele>
        <time>2021-11-13T15:08:01.291Z</time>
      </trkpt>
      <trkpt lat="47.492728" lon="7.630150">
        <ele>393.690418</ele>
        <time>2021-11-13T15:08:11.485Z</time>
      </trkpt>
      <trkpt lat="47.492666" lon="7.630289">
        <ele>394.409764</ele>
        <time>2021-11-13T15:08:14.246Z</time>
      </trkpt>
      <trkpt lat="47.492637" lon="7.630364">
        <ele>394.782975</ele>
        <time>2021-11-13T15:08:16.181Z</time>
      </trkpt>
      <trkpt lat="47.492589" lon="7.630489">
        <ele>395.403939</ele>
        <time>2021-11-13T15:08:20.120Z</time>
      </trkpt>
      <trkpt lat="47.492504" lon="7.630642">
        <ele>396.259425</ele>
        <time>2021-11-13T15:08:24.227Z</time>
      </trkpt>
      <trkpt lat="47.492431" lon="7.630780">
        <ele>397.120554</ele>
        <time>2021-11-13T15:08:27.872Z</time>
      </trkpt>
      <trkpt lat="47.492317" lon="7.630995">
        <ele>398.559373</ele>
        <time>2021-11-13T15:08:34.967Z</time>
      </trkpt>
      <trkpt lat="47.492129" lon="7.631294">
        <ele>400.709641</ele>
        <time>2021-11-13T15:08:44.673Z</time>
      </trkpt>
      <trkpt lat="47.492095" lon="7.631365">
        <ele>401.167793</ele>
        <time>2021-11-13T15:08:47.395Z</time>
      </trkpt>
      <trkpt lat="47.492091" lon="7.631507">
        <ele>401.916034</ele>
        <time>2021-11-13T15:08:49.945Z</time>
      </trkpt>
      <trkpt lat="47.492138" lon="7.631901">
        <ele>404.022414</ele>
        <time>2021-11-13T15:09:02.846Z</time>
      </trkpt>
      <trkpt lat="47.492522" lon="7.633524">
        <ele>414.694535</ele>
        <time>2021-11-13T15:10:05.750Z</time>
      </trkpt>
      <trkpt lat="47.493013" lon="7.634943">
        <ele>428.477584</ele>
        <time>2021-11-13T15:11:19.555Z</time>
      </trkpt>
      <trkpt lat="47.493208" lon="7.635355">
        <ele>432.826454</ele>
        <time>2021-11-13T15:11:43.365Z</time>
      </trkpt>
      <trkpt lat="47.494030" lon="7.636493">
        <ele>449.215223</ele>
        <time>2021-11-13T15:13:06.551Z</time>
      </trkpt>
      <trkpt lat="47.494616" lon="7.638027">
        <ele>466.388973</ele>
        <time>2021-11-13T15:14:35.270Z</time>
      </trkpt>
      <trkpt lat="47.495154" lon="7.639734">
        <ele>484.274624</ele>
        <time>2021-11-13T15:16:06.328Z</time>
      </trkpt>
      <trkpt lat="47.495235" lon="7.640048">
        <ele>486.776641</ele>
        <time>2021-11-13T15:16:21.952Z</time>
      </trkpt>
      <trkpt lat="47.495352" lon="7.640661">
        <ele>490.978133</ele>
        <time>2021-11-13T15:16:47.573Z</time>
      </trkpt>
      <trkpt lat="47.495377" lon="7.640809">
        <ele>491.984365</ele>
        <time>2021-11-13T15:16:53.780Z</time>
      </trkpt>
      <trkpt lat="47.495536" lon="7.641841">
        <ele>498.966003</ele>
        <time>2021-11-13T15:17:31.864Z</time>
      </trkpt>
      <trkpt lat="47.495687" lon="7.642298">
        <ele>502.321432</ele>
        <time>2021-11-13T15:17:47.367Z</time>
      </trkpt>
      <trkpt lat="47.496129" lon="7.642958">
        <ele>504.911109</ele>
        <time>2021-11-13T15:18:09.122Z</time>
      </trkpt>
      <trkpt lat="47.496525" lon="7.644145">
        <ele>508.204933</ele>
        <time>2021-11-13T15:18:30.354Z</time>
      </trkpt>
      <trkpt lat="47.497368" lon="7.644893">
        <ele>513.953538</ele>
        <time>2021-11-13T15:18:55.925Z</time>
      </trkpt>
      <trkpt lat="47.497705" lon="7.645397">
        <ele>517.261185</ele>
        <time>2021-11-13T15:19:15.147Z</time>
      </trkpt>
      <trkpt lat="47.497758" lon="7.645554">
        <ele>518.079853</ele>
        <time>2021-11-13T15:19:20.768Z</time>
      </trkpt>
      <trkpt lat="47.497745" lon="7.645708">
        <ele>518.803783</ele>
        <time>2021-11-13T15:19:26.201Z</time>
      </trkpt>
      <trkpt lat="47.497703" lon="7.645817">
        <ele>519.389100</ele>
        <time>2021-11-13T15:19:31.105Z</time>
      </trkpt>
      <trkpt lat="47.497662" lon="7.645912">
        <ele>519.914930</ele>
        <time>2021-11-13T15:19:35.793Z</time>
      </trkpt>
      <trkpt lat="47.497552" lon="7.646070">
        <ele>520.973207</ele>
        <time>2021-11-13T15:19:45.629Z</time>
      </trkpt>
      <trkpt lat="47.497184" lon="7.646598">
        <ele>527.113726</ele>
        <time>2021-11-13T15:20:19.220Z</time>
      </trkpt>
      <trkpt lat="47.497039" lon="7.646831">
        <ele>530.013869</ele>
        <time>2021-11-13T15:20:34.777Z</time>
      </trkpt>
      <trkpt lat="47.497014" lon="7.647054">
        <ele>532.083376</ele>
        <time>2021-11-13T15:20:45.413Z</time>
      </trkpt>
      <trkpt lat="47.497068" lon="7.647656">
        <ele>537.643120</ele>
        <time>2021-11-13T15:21:16.847Z</time>
      </trkpt>
      <trkpt lat="47.497010" lon="7.647884">
        <ele>539.873543</ele>
        <time>2021-11-13T15:21:30.209Z</time>
      </trkpt>
      <trkpt lat="47.496884" lon="7.647996">
        <ele>541.865149</ele>
        <time>2021-11-13T15:21:40.639Z</time>
      </trkpt>
      <trkpt lat="47.495983" lon="7.648341">
        <ele>551.538237</ele>
        <time>2021-11-13T15:22:41.168Z</time>
      </trkpt>
      <trkpt lat="47.495767" lon="7.648381">
        <ele>553.443211</ele>
        <time>2021-11-13T15:22:51.588Z</time>
      </trkpt>
      <trkpt lat="47.495680" lon="7.648377">
        <ele>554.204924</ele>
        <time>2021-11-13T15:22:56.328Z</time>
      </trkpt>
      <trkpt lat="47.494991" lon="7.648468">
        <ele>560.258386</ele>
        <time>2021-11-13T15:23:21.887Z</time>
      </trkpt>
      <trkpt lat="47.494687" lon="7.648581">
        <ele>562.743296</ele>
        <time>2021-11-13T15:23:33.481Z</time>
      </trkpt>
      <trkpt lat="47.494554" lon="7.648897">
        <ele>564.418559</ele>
        <time>2021-11-13T15:23:43.696Z</time>
      </trkpt>
      <trkpt lat="47.494583" lon="7.649621">
        <ele>567.682155</ele>
        <time>2021-11-13T15:24:04.321Z</time>
      </trkpt>
      <trkpt lat="47.494584" lon="7.650102">
        <ele>569.846582</ele>
        <time>2021-11-13T15:24:17.918Z</time>
      </trkpt>
      <trkpt lat="47.494570" lon="7.650358">
        <ele>571.002305</ele>
        <time>2021-11-13T15:24:25.167Z</time>
      </trkpt>
      <trkpt lat="47.494545" lon="7.650544">
        <ele>571.855673</ele>
        <time>2021-11-13T15:24:31.526Z</time>
      </trkpt>
      <trkpt lat="47.494429" lon="7.651155">
        <ele>574.696554</ele>
        <time>2021-11-13T15:24:50.008Z</time>
      </trkpt>
      <trkpt lat="47.494432" lon="7.651550">
        <ele>576.441250</ele>
        <time>2021-11-13T15:25:01.944Z</time>
      </trkpt>
      <trkpt lat="47.494627" lon="7.652792">
        <ele>582.072898</ele>
        <time>2021-11-13T15:25:39.022Z</time>
      </trkpt>
      <trkpt lat="47.494612" lon="7.652906">
        <ele>582.585855</ele>
        <time>2021-11-13T15:25:43.041Z</time>
      </trkpt>
      <trkpt lat="47.494507" lon="7.652980">
        <ele>583.346063</ele>
        <time>2021-11-13T15:25:48.102Z</time>
      </trkpt>
      <trkpt lat="47.494102" lon="7.652865">
        <ele>585.986983</ele>
        <time>2021-11-13T15:26:02.477Z</time>
      </trkpt>
      <trkpt lat="47.493903" lon="7.652871">
        <ele>587.102542</ele>
        <time>2021-11-13T15:26:08.478Z</time>
      </trkpt>
      <trkpt lat="47.493840" lon="7.652926">
        <ele>587.512488</ele>
        <time>2021-11-13T15:26:11.106Z</time>
      </trkpt>
      <trkpt lat="47.493765" lon="7.653083">
        <ele>588.240620</ele>
        <time>2021-11-13T15:26:15.010Z</time>
      </trkpt>
      <trkpt lat="47.493687" lon="7.653273">
        <ele>589.082529</ele>
        <time>2021-11-13T15:26:20.712Z</time>
      </trkpt>
      <trkpt lat="47.493555" lon="7.653642">
        <ele>590.663660</ele>
        <time>2021-11-13T15:26:29.835Z</time>
      </trkpt>
      <trkpt lat="47.493521" lon="7.653728">
        <ele>591.040989</ele>
        <time>2021-11-13T15:26:32.997Z</time>
      </trkpt>
      <trkpt lat="47.493088" lon="7.655195">
        <ele>597.352973</ele>
        <time>2021-11-13T15:27:16.727Z</time>
      </trkpt>
      <trkpt lat="47.492960" lon="7.655784">
        <ele>600.124514</ele>
        <time>2021-11-13T15:27:34.811Z</time>
      </trkpt>
      <trkpt lat="47.492898" lon="7.656011">
        <ele>601.221300</ele>
        <time>2021-11-13T15:27:42.102Z</time>
      </trkpt>
      <trkpt lat="47.492834" lon="7.656127">
        <ele>601.892149</ele>
        <time>2021-11-13T15:27:46.023Z</time>
      </trkpt>
      <trkpt lat="47.492655" lon="7.656259">
        <ele>603.218009</ele>
        <time>2021-11-13T15:27:54.348Z</time>
      </trkpt>
      <trkpt lat="47.492368" lon="7.656441">
        <ele>605.288026</ele>
        <time>2021-11-13T15:28:07.273Z</time>
      </trkpt>
      <trkpt lat="47.492098" lon="7.656633">
        <ele>607.273937</ele>
        <time>2021-11-13T15:28:19.771Z</time>
      </trkpt>
      <trkpt lat="47.491848" lon="7.656926">
        <ele>608.924079</ele>
        <time>2021-11-13T15:28:33.152Z</time>
      </trkpt>
      <trkpt lat="47.491315" lon="7.657218">
        <ele>611.678600</ele>
        <time>2021-11-13T15:28:53.716Z</time>
      </trkpt>
      <trkpt lat="47.490868" lon="7.657356">
        <ele>613.891644</ele>
        <time>2021-11-13T15:29:08.866Z</time>
      </trkpt>
      <trkpt lat="47.491290" lon="7.658126">
        <ele>616.688775</ele>
        <time>2021-11-13T15:29:28.299Z</time>
      </trkpt>
      <trkpt lat="47.491352" lon="7.658296">
        <ele>616.946321</ele>
        <time>2021-11-13T15:29:31.991Z</time>
      </trkpt>
      <trkpt lat="47.491366" lon="7.658534">
        <ele>617.264819</ele>
        <time>2021-11-13T15:29:36.205Z</time>
      </trkpt>
      <trkpt lat="47.491283" lon="7.659274">
        <ele>618.264873</ele>
        <time>2021-11-13T15:29:48.753Z</time>
      </trkpt>
      <trkpt lat="47.491148" lon="7.660578">
        <ele>619.861142</ele>
        <time>2021-11-13T15:30:06.369Z</time>
      </trkpt>
      <trkpt lat="47.491135" lon="7.660667">
        <ele>619.774508</ele>
        <time>2021-11-13T15:30:07.031Z</time>
      </trkpt>
      <trkpt lat="47.491038" lon="7.661369">
        <ele>619.092771</ele>
        <time>2021-11-13T15:30:14.307Z</time>
      </trkpt>
      <trkpt lat="47.491127" lon="7.662280">
        <ele>618.216992</ele>
        <time>2021-11-13T15:30:22.341Z</time>
      </trkpt>
      <trkpt lat="47.491078" lon="7.662652">
        <ele>617.856392</ele>
        <time>2021-11-13T15:30:25.133Z</time>
      </trkpt>
      <trkpt lat="47.490960" lon="7.662986">
        <ele>617.497793</ele>
        <time>2021-11-13T15:30:27.539Z</time>
      </trkpt>
      <trkpt lat="47.490710" lon="7.663509">
        <ele>615.397319</ele>
        <time>2021-11-13T15:30:31.653Z</time>
      </trkpt>
      <trkpt lat="47.490681" lon="7.663697">
        <ele>614.675278</ele>
        <time>2021-11-13T15:30:33.026Z</time>
      </trkpt>
      <trkpt lat="47.490690" lon="7.663753">
        <ele>614.459747</ele>
        <time>2021-11-13T15:30:34.196Z</time>
      </trkpt>
      <trkpt lat="47.490724" lon="7.663818">
        <ele>614.151964</ele>
        <time>2021-11-13T15:30:34.662Z</time>
      </trkpt>
      <trkpt lat="47.491023" lon="7.664258">
        <ele>611.815431</ele>
        <time>2021-11-13T15:30:38.482Z</time>
      </trkpt>
      <trkpt lat="47.491167" lon="7.664633">
        <ele>610.200426</ele>
        <time>2021-11-13T15:30:41.267Z</time>
      </trkpt>
      <trkpt lat="47.491209" lon="7.664759">
        <ele>609.674364</ele>
        <time>2021-11-13T15:30:42.077Z</time>
      </trkpt>
      <trkpt lat="47.491235" lon="7.664889">
        <ele>609.166734</ele>
        <time>2021-11-13T15:30:42.961Z</time>
      </trkpt>
      <trkpt lat="47.491257" lon="7.665065">
        <ele>608.496560</ele>
        <time>2021-11-13T15:30:44.805Z</time>
      </trkpt>
      <trkpt lat="47.491275" lon="7.665260">
        <ele>607.759645</ele>
        <time>2021-11-13T15:30:45.929Z</time>
      </trkpt>
      <trkpt lat="47.491290" lon="7.665444">
        <ele>607.041415</ele>
        <time>2021-11-13T15:30:47.093Z</time>
      </trkpt>
      <trkpt lat="47.491308" lon="7.665727">
        <ele>605.906017</ele>
        <time>2021-11-13T15:30:48.837Z</time>
      </trkpt>
      <trkpt lat="47.491307" lon="7.665780">
        <ele>605.694234</ele>
        <time>2021-11-13T15:30:49.138Z</time>
      </trkpt>
      <trkpt lat="47.491296" lon="7.665853">
        <ele>605.395484</ele>
        <time>2021-11-13T15:30:49.575Z</time>
      </trkpt>
      <trkpt lat="47.491273" lon="7.665952">
        <ele>604.977323</ele>
        <time>2021-11-13T15:30:50.234Z</time>
      </trkpt>
      <trkpt lat="47.491126" lon="7.666409">
        <ele>602.955620</ele>
        <time>2021-11-13T15:30:53.331Z</time>
      </trkpt>
      <trkpt lat="47.490942" lon="7.667164">
        <ele>599.749715</ele>
        <time>2021-11-13T15:30:58.342Z</time>
      </trkpt>
      <trkpt lat="47.490690" lon="7.668617">
        <ele>593.757939</ele>
        <time>2021-11-13T15:31:07.922Z</time>
      </trkpt>
      <trkpt lat="47.490666" lon="7.670201">
        <ele>587.429632</ele>
        <time>2021-11-13T15:31:17.593Z</time>
      </trkpt>
      <trkpt lat="47.490706" lon="7.670713">
        <ele>585.844131</ele>
        <time>2021-11-13T15:31:20.756Z</time>
      </trkpt>
      <trkpt lat="47.490770" lon="7.671048">
        <ele>585.282188</ele>
        <time>2021-11-13T15:31:22.968Z</time>
      </trkpt>
      <trkpt lat="47.491002" lon="7.671806">
        <ele>583.938987</ele>
        <time>2021-11-13T15:31:28.965Z</time>
      </trkpt>
      <trkpt lat="47.491257" lon="7.672549">
        <ele>582.593837</ele>
        <time>2021-11-13T15:31:36.077Z</time>
      </trkpt>
      <trkpt lat="47.491431" lon="7.672880">
        <ele>581.916909</ele>
        <time>2021-11-13T15:31:39.662Z</time>
      </trkpt>
      <trkpt lat="47.491487" lon="7.672963">
        <ele>581.853718</ele>
        <time>2021-11-13T15:31:40.808Z</time>
      </trkpt>
      <trkpt lat="47.492120" lon="7.673689">
        <ele>581.655060</ele>
        <time>2021-11-13T15:31:54.391Z</time>
      </trkpt>
      <trkpt lat="47.492397" lon="7.673977">
        <ele>581.571085</ele>
        <time>2021-11-13T15:32:00.940Z</time>
      </trkpt>
      <trkpt lat="47.492419" lon="7.674013">
        <ele>581.562949</ele>
        <time>2021-11-13T15:32:01.836Z</time>
      </trkpt>
      <trkpt lat="47.492441" lon="7.674076">
        <ele>581.551063</ele>
        <time>2021-11-13T15:32:02.251Z</time>
      </trkpt>
      <trkpt lat="47.492431" lon="7.674567">
        <ele>581.468727</ele>
        <time>2021-11-13T15:32:09.371Z</time>
      </trkpt>
      <trkpt lat="47.492357" lon="7.674981">
        <ele>580.678688</ele>
        <time>2021-11-13T15:32:12.920Z</time>
      </trkpt>
      <trkpt lat="47.492252" lon="7.675376">
        <ele>578.580314</ele>
        <time>2021-11-13T15:32:15.594Z</time>
      </trkpt>
      <trkpt lat="47.492259" lon="7.675423">
        <ele>578.342391</ele>
        <time>2021-11-13T15:32:16.860Z</time>
      </trkpt>
      <trkpt lat="47.492364" lon="7.675466">
        <ele>577.545312</ele>
        <time>2021-11-13T15:32:17.853Z</time>
      </trkpt>
      <trkpt lat="47.492876" lon="7.675193">
        <ele>573.563678</ele>
        <time>2021-11-13T15:32:22.707Z</time>
      </trkpt>
      <trkpt lat="47.493934" lon="7.674840">
        <ele>562.928094</ele>
        <time>2021-11-13T15:32:32.000Z</time>
      </trkpt>
      <trkpt lat="47.494214" lon="7.674823">
        <ele>558.775599</ele>
        <time>2021-11-13T15:32:34.319Z</time>
      </trkpt>
      <trkpt lat="47.494287" lon="7.674903">
        <ele>557.429639</ele>
        <time>2021-11-13T15:32:35.088Z</time>
      </trkpt>
      <trkpt lat="47.494344" lon="7.675092">
        <ele>555.357446</ele>
        <time>2021-11-13T15:32:36.253Z</time>
      </trkpt>
      <trkpt lat="47.494342" lon="7.675161">
        <ele>554.665990</ele>
        <time>2021-11-13T15:32:36.637Z</time>
      </trkpt>
      <trkpt lat="47.494328" lon="7.675230">
        <ele>553.944693</ele>
        <time>2021-11-13T15:32:37.035Z</time>
      </trkpt>
      <trkpt lat="47.494233" lon="7.675518">
        <ele>550.735991</ele>
        <time>2021-11-13T15:32:38.839Z</time>
      </trkpt>
      <trkpt lat="47.494229" lon="7.675736">
        <ele>548.552590</ele>
        <time>2021-11-13T15:32:40.047Z</time>
      </trkpt>
      <trkpt lat="47.494465" lon="7.676284">
        <ele>542.046363</ele>
        <time>2021-11-13T15:32:43.692Z</time>
      </trkpt>
      <trkpt lat="47.494529" lon="7.676434">
        <ele>540.430243</ele>
        <time>2021-11-13T15:32:44.678Z</time>
      </trkpt>
      <trkpt lat="47.494913" lon="7.677178">
        <ele>532.175808</ele>
        <time>2021-11-13T15:32:49.918Z</time>
      </trkpt>
      <trkpt lat="47.495197" lon="7.677947">
        <ele>524.449164</ele>
        <time>2021-11-13T15:32:54.937Z</time>
      </trkpt>
      <trkpt lat="47.495874" lon="7.678827">
        <ele>513.856827</ele>
        <time>2021-11-13T15:33:02.662Z</time>
      </trkpt>
      <trkpt lat="47.496153" lon="7.679066">
        <ele>510.549814</ele>
        <time>2021-11-13T15:33:05.426Z</time>
      </trkpt>
      <trkpt lat="47.496289" lon="7.679485">
        <ele>507.327892</ele>
        <time>2021-11-13T15:33:08.144Z</time>
      </trkpt>
      <trkpt lat="47.496525" lon="7.679952">
        <ele>503.285762</ele>
        <time>2021-11-13T15:33:11.512Z</time>
      </trkpt>
      <trkpt lat="47.496907" lon="7.680663">
        <ele>497.090246</ele>
        <time>2021-11-13T15:33:19.073Z</time>
      </trkpt>
      <trkpt lat="47.496916" lon="7.680688">
        <ele>496.901233</ele>
        <time>2021-11-13T15:33:19.240Z</time>
      </trkpt>
      <trkpt lat="47.496959" lon="7.680793">
        <ele>496.081977</ele>
        <time>2021-11-13T15:33:19.922Z</time>
      </trkpt>
      <trkpt lat="47.497186" lon="7.681839">
        <ele>488.751452</ele>
        <time>2021-11-13T15:33:26.269Z</time>
      </trkpt>
      <trkpt lat="47.497142" lon="7.682124">
        <ele>486.800810</ele>
        <time>2021-11-13T15:33:28.009Z</time>
      </trkpt>
      <trkpt lat="47.496983" lon="7.682567">
        <ele>483.453742</ele>
        <time>2021-11-13T15:33:30.942Z</time>
      </trkpt>
      <trkpt lat="47.497012" lon="7.682986">
        <ele>480.874964</ele>
        <time>2021-11-13T15:33:33.398Z</time>
      </trkpt>
      <trkpt lat="47.497149" lon="7.683668">
        <ele>476.985077</ele>
        <time>2021-11-13T15:33:37.684Z</time>
      </trkpt>
      <trkpt lat="47.497155" lon="7.683756">
        <ele>476.501528</ele>
        <time>2021-11-13T15:33:38.229Z</time>
      </trkpt>
      <trkpt lat="47.497128" lon="7.683933">
        <ele>475.509492</ele>
        <time>2021-11-13T15:33:39.339Z</time>
      </trkpt>
      <trkpt lat="47.497043" lon="7.684092">
        <ele>474.401017</ele>
        <time>2021-11-13T15:33:40.551Z</time>
      </trkpt>
      <trkpt lat="47.496620" lon="7.684549">
        <ele>470.163272</ele>
        <time>2021-11-13T15:33:45.175Z</time>
      </trkpt>
      <trkpt lat="47.496136" lon="7.684606">
        <ele>466.049770</ele>
        <time>2021-11-13T15:33:49.420Z</time>
      </trkpt>
      <trkpt lat="47.495883" lon="7.684734">
        <ele>463.534740</ele>
        <time>2021-11-13T15:33:51.810Z</time>
      </trkpt>
      <trkpt lat="47.495359" lon="7.684972">
        <ele>458.378886</ele>
        <time>2021-11-13T15:33:56.610Z</time>
      </trkpt>
      <trkpt lat="47.495085" lon="7.685344">
        <ele>454.881390</ele>
        <time>2021-11-13T15:34:01.132Z</time>
      </trkpt>
      <trkpt lat="47.494766" lon="7.685867">
        <ele>450.400170</ele>
        <time>2021-11-13T15:34:06.874Z</time>
      </trkpt>
      <trkpt lat="47.494620" lon="7.686242">
        <ele>447.468158</ele>
        <time>2021-11-13T15:34:10.409Z</time>
      </trkpt>
      <trkpt lat="47.494500" lon="7.686629">
        <ele>444.583524</ele>
        <time>2021-11-13T15:34:13.902Z</time>
      </trkpt>
      <trkpt lat="47.494444" lon="7.686783">
        <ele>443.398752</ele>
        <time>2021-11-13T15:34:15.305Z</time>
      </trkpt>
      <trkpt lat="47.493965" lon="7.687977">
        <ele>433.991596</ele>
        <time>2021-11-13T15:34:26.827Z</time>
      </trkpt>
      <trkpt lat="47.493869" lon="7.688820">
        <ele>429.405426</ele>
        <time>2021-11-13T15:34:33.910Z</time>
      </trkpt>
      <trkpt lat="47.493613" lon="7.689576">
        <ele>425.313712</ele>
        <time>2021-11-13T15:34:41.238Z</time>
      </trkpt>
      <trkpt lat="47.493600" lon="7.690048">
        <ele>423.027960</ele>
        <time>2021-11-13T15:34:45.376Z</time>
      </trkpt>
      <trkpt lat="47.493683" lon="7.690452">
        <ele>420.984769</ele>
        <time>2021-11-13T15:34:49.111Z</time>
      </trkpt>
      <trkpt lat="47.494025" lon="7.691490">
        <ele>416.996367</ele>
        <time>2021-11-13T15:34:59.624Z</time>
      </trkpt>
      <trkpt lat="47.494615" lon="7.692795">
        <ele>412.333634</ele>
        <time>2021-11-13T15:35:14.489Z</time>
      </trkpt>
      <trkpt lat="47.494792" lon="7.693234">
        <ele>410.781817</ele>
        <time>2021-11-13T15:35:19.437Z</time>
      </trkpt>
      <trkpt lat="47.494837" lon="7.693410">
        <ele>410.199934</ele>
        <time>2021-11-13T15:35:21.277Z</time>
      </trkpt>
      <trkpt lat="47.495048" lon="7.694079">
        <ele>407.917003</ele>
        <time>2021-11-13T15:35:28.410Z</time>
      </trkpt>
      <trkpt lat="47.495505" lon="7.695885">
        <ele>401.422653</ele>
        <time>2021-11-13T15:35:45.854Z</time>
      </trkpt>
      <trkpt lat="47.495631" lon="7.696342">
        <ele>399.336256</ele>
        <time>2021-11-13T15:35:50.241Z</time>
      </trkpt>
      <trkpt lat="47.495804" lon="7.696859">
        <ele>396.897555</ele>
        <time>2021-11-13T15:35:55.316Z</time>
      </trkpt>
      <trkpt lat="47.496154" lon="7.697633">
        <ele>392.960717</ele>
        <time>2021-11-13T15:36:03.415Z</time>
      </trkpt>
      <trkpt lat="47.496250" lon="7.697997">
        <ele>391.321498</ele>
        <time>2021-11-13T15:36:06.791Z</time>
      </trkpt>
      <trkpt lat="47.496334" lon="7.698787">
        <ele>387.991315</ele>
        <time>2021-11-13T15:36:13.741Z</time>
      </trkpt>
      <trkpt lat="47.496294" lon="7.699210">
        <ele>386.212704</ele>
        <time>2021-11-13T15:36:17.560Z</time>
      </trkpt>
      <trkpt lat="47.496222" lon="7.699560">
        <ele>384.689184</ele>
        <time>2021-11-13T15:36:20.834Z</time>
      </trkpt>
      <trkpt lat="47.496077" lon="7.699908">
        <ele>382.986640</ele>
        <time>2021-11-13T15:36:24.462Z</time>
      </trkpt>
      <trkpt lat="47.495661" lon="7.700465">
        <ele>379.949236</ele>
        <time>2021-11-13T15:36:31.858Z</time>
      </trkpt>
      <trkpt lat="47.495486" lon="7.700890">
        <ele>378.444365</ele>
        <time>2021-11-13T15:36:36.391Z</time>
      </trkpt>
      <trkpt lat="47.495292" lon="7.701199">
        <ele>377.168965</ele>
        <time>2021-11-13T15:36:40.292Z</time>
      </trkpt>
      <trkpt lat="47.495025" lon="7.701511">
        <ele>375.646582</ele>
        <time>2021-11-13T15:36:45.016Z</time>
      </trkpt>
      <trkpt lat="47.494812" lon="7.701920">
        <ele>374.085186</ele>
        <time>2021-11-13T15:36:49.976Z</time>
      </trkpt>
      <trkpt lat="47.494640" lon="7.702401">
        <ele>372.623075</ele>
        <time>2021-11-13T15:36:55.270Z</time>
      </trkpt>
      <trkpt lat="47.494222" lon="7.703982">
        <ele>369.130503</ele>
        <time>2021-11-13T15:37:12.093Z</time>
      </trkpt>
      <trkpt lat="47.493976" lon="7.704494">
        <ele>367.838053</ele>
        <time>2021-11-13T15:37:18.524Z</time>
      </trkpt>
      <trkpt lat="47.493648" lon="7.705186">
        <ele>366.169800</ele>
        <time>2021-11-13T15:37:27.057Z</time>
      </trkpt>
      <trkpt lat="47.492600" lon="7.707945">
        <ele>359.725726</ele>
        <time>2021-11-13T15:37:58.613Z</time>
      </trkpt>
      <trkpt lat="47.492308" lon="7.708870">
        <ele>357.513829</ele>
        <time>2021-11-13T15:38:08.636Z</time>
      </trkpt>
      <trkpt lat="47.492149" lon="7.709619">
        <ele>355.644870</ele>
        <time>2021-11-13T15:38:16.269Z</time>
      </trkpt>
      <trkpt lat="47.492099" lon="7.710117">
        <ele>354.309695</ele>
        <time>2021-11-13T15:38:21.133Z</time>
      </trkpt>
      <trkpt lat="47.491989" lon="7.711389">
        <ele>350.908886</ele>
        <time>2021-11-13T15:38:33.423Z</time>
      </trkpt>
      <trkpt lat="47.491849" lon="7.712800">
        <ele>346.599218</ele>
        <time>2021-11-13T15:38:46.541Z</time>
      </trkpt>
      <trkpt lat="47.491736" lon="7.713412">
        <ele>344.543215</ele>
        <time>2021-11-13T15:38:52.330Z</time>
      </trkpt>
      <trkpt lat="47.491697" lon="7.713947">
        <ele>342.799394</ele>
        <time>2021-11-13T15:38:57.228Z</time>
      </trkpt>
      <trkpt lat="47.491706" lon="7.714312">
        <ele>341.615761</ele>
        <time>2021-11-13T15:38:59.563Z</time>
      </trkpt>
      <trkpt lat="47.491733" lon="7.714864">
        <ele>339.946309</ele>
        <time>2021-11-13T15:39:03.141Z</time>
      </trkpt>
      <trkpt lat="47.491636" lon="7.715360">
        <ele>338.469760</ele>
        <time>2021-11-13T15:39:06.494Z</time>
      </trkpt>
      <trkpt lat="47.491513" lon="7.715837">
        <ele>337.009801</ele>
        <time>2021-11-13T15:39:09.791Z</time>
      </trkpt>
      <trkpt lat="47.491472" lon="7.716017">
        <ele>336.466622</ele>
        <time>2021-11-13T15:39:11.009Z</time>
      </trkpt>
      <trkpt lat="47.491306" lon="7.716757">
        <ele>334.236976</ele>
        <time>2021-11-13T15:39:16.165Z</time>
      </trkpt>
      <trkpt lat="47.491263" lon="7.716920">
        <ele>333.736602</ele>
        <time>2021-11-13T15:39:17.304Z</time>
      </trkpt>
      <trkpt lat="47.491157" lon="7.717265">
        <ele>332.748437</ele>
        <time>2021-11-13T15:39:19.886Z</time>
      </trkpt>
      <trkpt lat="47.491015" lon="7.717616">
        <ele>331.761131</ele>
        <time>2021-11-13T15:39:22.674Z</time>
      </trkpt>
      <trkpt lat="47.490797" lon="7.718126">
        <ele>330.304720</ele>
        <time>2021-11-13T15:39:26.836Z</time>
      </trkpt>
      <trkpt lat="47.490481" lon="7.719358">
        <ele>327.124446</ele>
        <time>2021-11-13T15:39:35.663Z</time>
      </trkpt>
      <trkpt lat="47.490473" lon="7.719772">
        <ele>325.998886</ele>
        <time>2021-11-13T15:39:38.409Z</time>
      </trkpt>
      <trkpt lat="47.490529" lon="7.720667">
        <ele>323.448155</ele>
        <time>2021-11-13T15:39:44.358Z</time>
      </trkpt>
      <trkpt lat="47.490567" lon="7.720806">
        <ele>323.022634</ele>
        <time>2021-11-13T15:39:45.306Z</time>
      </trkpt>
      <trkpt lat="47.490835" lon="7.721711">
        <ele>320.218590</ele>
        <time>2021-11-13T15:39:51.747Z</time>
      </trkpt>
      <trkpt lat="47.490881" lon="7.721901">
        <ele>319.645839</ele>
        <time>2021-11-13T15:39:53.030Z</time>
      </trkpt>
      <trkpt lat="47.490927" lon="7.722082">
        <ele>319.089382</ele>
        <time>2021-11-13T15:39:54.353Z</time>
      </trkpt>
      <trkpt lat="47.490944" lon="7.722136">
        <ele>318.913503</ele>
        <time>2021-11-13T15:39:54.736Z</time>
      </trkpt>
      <trkpt lat="47.491055" lon="7.722482">
        <ele>317.782721</ele>
        <time>2021-11-13T15:39:57.200Z</time>
      </trkpt>
      <trkpt lat="47.491113" lon="7.722665">
        <ele>317.185970</ele>
        <time>2021-11-13T15:39:58.528Z</time>
      </trkpt>
      <trkpt lat="47.491148" lon="7.722916">
        <ele>316.429328</ele>
        <time>2021-11-13T15:40:00.156Z</time>
      </trkpt>
      <trkpt lat="47.491616" lon="7.724299">
        <ele>311.862911</ele>
        <time>2021-11-13T15:40:10.167Z</time>
      </trkpt>
      <trkpt lat="47.491661" lon="7.724441">
        <ele>311.411440</ele>
        <time>2021-11-13T15:40:11.170Z</time>
      </trkpt>
      <trkpt lat="47.491736" lon="7.724677">
        <ele>310.949223</ele>
        <time>2021-11-13T15:40:12.932Z</time>
      </trkpt>
      <trkpt lat="47.491806" lon="7.724918">
        <ele>310.484305</ele>
        <time>2021-11-13T15:40:14.696Z</time>
      </trkpt>
      <trkpt lat="47.491834" lon="7.725016">
        <ele>310.295730</ele>
        <time>2021-11-13T15:40:15.409Z</time>
      </trkpt>
      <trkpt lat="47.491815" lon="7.725034">
        <ele>310.236558</ele>
        <time>2021-11-13T15:40:15.657Z</time>
      </trkpt>
      <trkpt lat="47.491785" lon="7.725084">
        <ele>310.118048</ele>
        <time>2021-11-13T15:40:16.195Z</time>
      </trkpt>
      <trkpt lat="47.491776" lon="7.725115">
        <ele>310.058250</ele>
        <time>2021-11-13T15:40:16.446Z</time>
      </trkpt>
      <trkpt lat="47.491771" lon="7.725150">
        <ele>309.994848</ele>
        <time>2021-11-13T15:40:16.697Z</time>
      </trkpt>
      <trkpt lat="47.491788" lon="7.725254">
        <ele>309.805211</ele>
        <time>2021-11-13T15:40:17.520Z</time>
      </trkpt>
      <trkpt lat="47.491803" lon="7.725283">
        <ele>309.740484</ele>
        <time>2021-11-13T15:40:17.753Z</time>
      </trkpt>
      <trkpt lat="47.491822" lon="7.725306">
        <ele>309.676100</ele>
        <time>2021-11-13T15:40:17.986Z</time>
      </trkpt>
      <trkpt lat="47.491891" lon="7.725334">
        <ele>309.488437</ele>
        <time>2021-11-13T15:40:18.715Z</time>
      </trkpt>
      <trkpt lat="47.491915" lon="7.725328">
        <ele>309.424595</ele>
        <time>2021-11-13T15:40:18.945Z</time>
      </trkpt>
      <trkpt lat="47.491939" lon="7.725313">
        <ele>309.356261</ele>
        <time>2021-11-13T15:40:19.209Z</time>
      </trkpt>
      <trkpt lat="47.491961" lon="7.725291">
        <ele>309.286619</ele>
        <time>2021-11-13T15:40:19.489Z</time>
      </trkpt>
      <trkpt lat="47.491978" lon="7.725262">
        <ele>309.218575</ele>
        <time>2021-11-13T15:40:19.787Z</time>
      </trkpt>
      <trkpt lat="47.491989" lon="7.725231">
        <ele>309.156519</ele>
        <time>2021-11-13T15:40:20.092Z</time>
      </trkpt>
      <trkpt lat="47.491996" lon="7.725198">
        <ele>309.095219</ele>
        <time>2021-11-13T15:40:20.344Z</time>
      </trkpt>
      <trkpt lat="47.491998" lon="7.725163">
        <ele>309.032967</ele>
        <time>2021-11-13T15:40:20.606Z</time>
      </trkpt>
      <trkpt lat="47.492086" lon="7.725087">
        <ele>308.765721</ele>
        <time>2021-11-13T15:40:21.668Z</time>
      </trkpt>
      <trkpt lat="47.492200" lon="7.725003">
        <ele>308.431696</ele>
        <time>2021-11-13T15:40:22.921Z</time>
      </trkpt>
      <trkpt lat="47.492463" lon="7.724897">
        <ele>307.716740</ele>
        <time>2021-11-13T15:40:25.878Z</time>
      </trkpt>
      <trkpt lat="47.492533" lon="7.724869">
        <ele>307.526546</ele>
        <time>2021-11-13T15:40:26.595Z</time>
      </trkpt>
      <trkpt lat="47.492679" lon="7.724813">
        <ele>307.130945</ele>
        <time>2021-11-13T15:40:28.326Z</time>
      </trkpt>
      <trkpt lat="47.492858" lon="7.724732">
        <ele>306.732290</ele>
        <time>2021-11-13T15:40:30.522Z</time>
      </trkpt>
      <trkpt lat="47.492952" lon="7.724675">
        <ele>306.811757</ele>
        <time>2021-11-13T15:40:31.693Z</time>
      </trkpt>
      <trkpt lat="47.493160" lon="7.724550">
        <ele>306.987373</ele>
        <time>2021-11-13T15:40:34.802Z</time>
      </trkpt>
      <trkpt lat="47.493271" lon="7.724493">
        <ele>307.079284</ele>
        <time>2021-11-13T15:40:36.520Z</time>
      </trkpt>
      <trkpt lat="47.493492" lon="7.724383">
        <ele>307.261682</ele>
        <time>2021-11-13T15:40:41.020Z</time>
      </trkpt>
      <trkpt lat="47.493620" lon="7.724323">
        <ele>307.366716</ele>
        <time>2021-11-13T15:40:43.600Z</time>
      </trkpt>
      <trkpt lat="47.493698" lon="7.724293">
        <ele>307.429760</ele>
        <time>2021-11-13T15:40:45.462Z</time>
      </trkpt>
      <trkpt lat="47.493945" lon="7.724198">
        <ele>307.629400</ele>
        <time>2021-11-13T15:40:50.377Z</time>
      </trkpt>
      <trkpt lat="47.494130" lon="7.724127">
        <ele>307.778908</ele>
        <time>2021-11-13T15:40:54.550Z</time>
      </trkpt>
      <trkpt lat="47.494301" lon="7.724060">
        <ele>307.917285</ele>
        <time>2021-11-13T15:40:58.206Z</time>
      </trkpt>
      <trkpt lat="47.494609" lon="7.723957">
        <ele>308.221639</ele>
        <time>2021-11-13T15:41:05.016Z</time>
      </trkpt>
      <trkpt lat="47.494619" lon="7.723781">
        <ele>308.430904</ele>
        <time>2021-11-13T15:41:08.208Z</time>
      </trkpt>
      <trkpt lat="47.494681" lon="7.723583">
        <ele>308.689467</ele>
        <time>2021-11-13T15:41:11.428Z</time>
      </trkpt>
      <trkpt lat="47.494828" lon="7.723217">
        <ele>309.193943</ele>
        <time>2021-11-13T15:41:18.577Z</time>
      </trkpt>
      <trkpt lat="47.494900" lon="7.723018">
        <ele>309.461399</ele>
        <time>2021-11-13T15:41:22.010Z</time>
      </trkpt>
      <trkpt lat="47.495028" lon="7.722751">
        <ele>309.849285</ele>
        <time>2021-11-13T15:41:27.571Z</time>
      </trkpt>
      <trkpt lat="47.495139" lon="7.722633">
        <ele>310.088939</ele>
        <time>2021-11-13T15:41:30.439Z</time>
      </trkpt>
      <trkpt lat="47.495344" lon="7.722481">
        <ele>310.491010</ele>
        <time>2021-11-13T15:41:35.735Z</time>
      </trkpt>
      <trkpt lat="47.495949" lon="7.722125">
        <ele>311.320720</ele>
        <time>2021-11-13T15:41:48.376Z</time>
      </trkpt>
      <trkpt lat="47.496600" lon="7.721528">
        <ele>311.501520</ele>
        <time>2021-11-13T15:42:00.199Z</time>
      </trkpt>
      <trkpt lat="47.496711" lon="7.721431">
        <ele>311.531952</ele>
        <time>2021-11-13T15:42:02.079Z</time>
      </trkpt>
      <trkpt lat="47.497096" lon="7.721134">
        <ele>311.634448</ele>
        <time>2021-11-13T15:42:08.329Z</time>
      </trkpt>
      <trkpt lat="47.497360" lon="7.720894">
        <ele>311.691560</ele>
        <time>2021-11-13T15:42:12.687Z</time>
      </trkpt>
      <trkpt lat="47.498011" lon="7.720304">
        <ele>311.603711</ele>
        <time>2021-11-13T15:42:23.753Z</time>
      </trkpt>
      <trkpt lat="47.498324" lon="7.720041">
        <ele>311.562290</ele>
        <time>2021-11-13T15:42:29.194Z</time>
      </trkpt>
      <trkpt lat="47.498470" lon="7.719926">
        <ele>311.543257</ele>
        <time>2021-11-13T15:42:31.655Z</time>
      </trkpt>
      <trkpt lat="47.498634" lon="7.719796">
        <ele>311.521847</ele>
        <time>2021-11-13T15:42:34.500Z</time>
      </trkpt>
      <trkpt lat="47.498930" lon="7.719621">
        <ele>311.460467</ele>
        <time>2021-11-13T15:42:38.937Z</time>
      </trkpt>
      <trkpt lat="47.499164" lon="7.719542">
        <ele>311.286245</ele>
        <time>2021-11-13T15:42:42.105Z</time>
      </trkpt>
      <trkpt lat="47.499674" lon="7.719462">
        <ele>310.913966</ele>
        <time>2021-11-13T15:42:48.702Z</time>
      </trkpt>
      <trkpt lat="47.499921" lon="7.719450">
        <ele>310.734574</ele>
        <time>2021-11-13T15:42:51.756Z</time>
      </trkpt>
      <trkpt lat="47.500043" lon="7.719444">
        <ele>310.645966</ele>
        <time>2021-11-13T15:42:53.316Z</time>
      </trkpt>
      <trkpt lat="47.500077" lon="7.719446">
        <ele>310.621266</ele>
        <time>2021-11-13T15:42:53.731Z</time>
      </trkpt>
      <trkpt lat="47.500460" lon="7.719466">
        <ele>310.343076</ele>
        <time>2021-11-13T15:42:58.531Z</time>
      </trkpt>
      <trkpt lat="47.500997" lon="7.719436">
        <ele>309.559054</ele>
        <time>2021-11-13T15:43:05.243Z</time>
      </trkpt>
      <trkpt lat="47.501149" lon="7.719429">
        <ele>309.260575</ele>
        <time>2021-11-13T15:43:06.940Z</time>
      </trkpt>
      <trkpt lat="47.501280" lon="7.719417">
        <ele>309.002965</ele>
        <time>2021-11-13T15:43:08.543Z</time>
      </trkpt>
      <trkpt lat="47.501340" lon="7.719429">
        <ele>308.884131</ele>
        <time>2021-11-13T15:43:09.234Z</time>
      </trkpt>
      <trkpt lat="47.501396" lon="7.719453">
        <ele>308.769704</ele>
        <time>2021-11-13T15:43:09.931Z</time>
      </trkpt>
      <trkpt lat="47.501439" lon="7.719488">
        <ele>308.673388</ele>
        <time>2021-11-13T15:43:10.508Z</time>
      </trkpt>
      <trkpt lat="47.501478" lon="7.719538">
        <ele>308.572122</ele>
        <time>2021-11-13T15:43:11.011Z</time>
      </trkpt>
      <trkpt lat="47.501497" lon="7.719587">
        <ele>308.497209</ele>
        <time>2021-11-13T15:43:11.496Z</time>
      </trkpt>
      <trkpt lat="47.501514" lon="7.719743">
        <ele>308.287684</ele>
        <time>2021-11-13T15:43:12.732Z</time>
      </trkpt>
      <trkpt lat="47.501586" lon="7.720404">
        <ele>307.399903</ele>
        <time>2021-11-13T15:43:17.569Z</time>
      </trkpt>
      <trkpt lat="47.501580" lon="7.720527">
        <ele>307.236386</ele>
        <time>2021-11-13T15:43:18.434Z</time>
      </trkpt>
      <trkpt lat="47.501549" lon="7.720527">
        <ele>307.175541</ele>
        <time>2021-11-13T15:43:18.722Z</time>
      </trkpt>
      <trkpt lat="47.501471" lon="7.720655">
        <ele>306.946973</ele>
        <time>2021-11-13T15:43:19.950Z</time>
      </trkpt>
      <trkpt lat="47.501475" lon="7.720701">
        <ele>306.885475</ele>
        <time>2021-11-13T15:43:20.284Z</time>
      </trkpt>
      <trkpt lat="47.501487" lon="7.720740">
        <ele>306.828651</ele>
        <time>2021-11-13T15:43:20.577Z</time>
      </trkpt>
      <trkpt lat="47.501590" lon="7.720794">
        <ele>306.576761</ele>
        <time>2021-11-13T15:43:21.727Z</time>
      </trkpt>
      <trkpt lat="47.501616" lon="7.720776">
        <ele>306.467395</ele>
        <time>2021-11-13T15:43:22.027Z</time>
      </trkpt>
      <trkpt lat="47.501635" lon="7.720835">
        <ele>306.299152</ele>
        <time>2021-11-13T15:43:22.428Z</time>
      </trkpt>
      <trkpt lat="47.501658" lon="7.720911">
        <ele>306.084790</ele>
        <time>2021-11-13T15:43:23.031Z</time>
      </trkpt>
      <trkpt lat="47.501816" lon="7.721777">
        <ele>303.775781</ele>
        <time>2021-11-13T15:43:29.170Z</time>
      </trkpt>
      <trkpt lat="47.501908" lon="7.722222">
        <ele>302.577883</ele>
        <time>2021-11-13T15:43:32.199Z</time>
      </trkpt>
      <trkpt lat="47.501978" lon="7.722527">
        <ele>301.748725</ele>
        <time>2021-11-13T15:43:34.249Z</time>
      </trkpt>
      <trkpt lat="47.502028" lon="7.722740">
        <ele>301.168294</ele>
        <time>2021-11-13T15:43:35.728Z</time>
      </trkpt>
      <trkpt lat="47.502046" lon="7.722829">
        <ele>300.929157</ele>
        <time>2021-11-13T15:43:36.316Z</time>
      </trkpt>
      <trkpt lat="47.502072" lon="7.722973">
        <ele>300.545482</ele>
        <time>2021-11-13T15:43:37.260Z</time>
      </trkpt>
      <trkpt lat="47.502112" lon="7.723201">
        <ele>299.939130</ele>
        <time>2021-11-13T15:43:38.801Z</time>
      </trkpt>
      <trkpt lat="47.502133" lon="7.723553">
        <ele>299.322775</ele>
        <time>2021-11-13T15:43:41.146Z</time>
      </trkpt>
      <trkpt lat="47.502126" lon="7.723727">
        <ele>299.044712</ele>
        <time>2021-11-13T15:43:42.314Z</time>
      </trkpt>
      <trkpt lat="47.502105" lon="7.724063">
        <ele>298.506423</ele>
        <time>2021-11-13T15:43:44.609Z</time>
      </trkpt>
      <trkpt lat="47.502074" lon="7.724375">
        <ele>298.003355</ele>
        <time>2021-11-13T15:43:46.813Z</time>
      </trkpt>
      <trkpt lat="47.502069" lon="7.724437">
        <ele>297.903748</ele>
        <time>2021-11-13T15:43:47.275Z</time>
      </trkpt>
      <trkpt lat="47.502067" lon="7.724454">
        <ele>297.876220</ele>
        <time>2021-11-13T15:43:47.383Z</time>
      </trkpt>
      <trkpt lat="47.502055" lon="7.724669">
        <ele>297.532075</ele>
        <time>2021-11-13T15:43:48.990Z</time>
      </trkpt>
      <trkpt lat="47.502055" lon="7.724669">
        <ele>297.532075</ele>
        <time>2021-11-13T15:43:48.991Z</time>
      </trkpt>
      <trkpt lat="47.502055" lon="7.724669">
        <ele>297.532075</ele>
        <time>2021-11-13T15:43:49.009Z</time>
      </trkpt>
      <trkpt lat="47.502172" lon="7.724685">
        <ele>297.254621</ele>
        <time>2021-11-13T15:43:50.887Z</time>
      </trkpt>
      <trkpt lat="47.502179" lon="7.724686">
        <ele>297.238015</ele>
        <time>2021-11-13T15:43:51.003Z</time>
      </trkpt>
      <trkpt lat="47.502205" lon="7.724690">
        <ele>297.176289</ele>
        <time>2021-11-13T15:43:51.419Z</time>
      </trkpt>
      <trkpt lat="47.502283" lon="7.724703">
        <ele>296.990941</ele>
        <time>2021-11-13T15:43:52.689Z</time>
      </trkpt>
      <trkpt lat="47.502584" lon="7.724671">
        <ele>296.278345</ele>
        <time>2021-11-13T15:43:57.773Z</time>
      </trkpt>
      <trkpt lat="47.502794" lon="7.724635">
        <ele>295.779148</ele>
        <time>2021-11-13T15:44:01.413Z</time>
      </trkpt>
      <trkpt lat="47.503201" lon="7.724541">
        <ele>295.212576</ele>
        <time>2021-11-13T15:44:08.693Z</time>
      </trkpt>
      <trkpt lat="47.503333" lon="7.724502">
        <ele>295.067532</ele>
        <time>2021-11-13T15:44:11.078Z</time>
      </trkpt>
      <trkpt lat="47.503457" lon="7.724469">
        <ele>294.931771</ele>
        <time>2021-11-13T15:44:13.424Z</time>
      </trkpt>
      <trkpt lat="47.503494" lon="7.724462">
        <ele>294.891577</ele>
        <time>2021-11-13T15:44:14.183Z</time>
      </trkpt>
      <trkpt lat="47.503945" lon="7.724377">
        <ele>294.401670</ele>
        <time>2021-11-13T15:44:22.430Z</time>
      </trkpt>
      <trkpt lat="47.504048" lon="7.724357">
        <ele>294.289730</ele>
        <time>2021-11-13T15:44:24.150Z</time>
      </trkpt>
      <trkpt lat="47.504396" lon="7.724291">
        <ele>293.911672</ele>
        <time>2021-11-13T15:44:30.063Z</time>
      </trkpt>
      <trkpt lat="47.504514" lon="7.724269">
        <ele>293.783514</ele>
        <time>2021-11-13T15:44:32.082Z</time>
      </trkpt>
      <trkpt lat="47.504610" lon="7.724250">
        <ele>293.679147</ele>
        <time>2021-11-13T15:44:33.746Z</time>
      </trkpt>
      <trkpt lat="47.504856" lon="7.724220">
        <ele>293.213752</ele>
        <time>2021-11-13T15:44:37.657Z</time>
      </trkpt>
      <trkpt lat="47.505012" lon="7.724231">
        <ele>292.879436</ele>
        <time>2021-11-13T15:44:40.212Z</time>
      </trkpt>
      <trkpt lat="47.505073" lon="7.724246">
        <ele>292.747068</ele>
        <time>2021-11-13T15:44:41.104Z</time>
      </trkpt>
      <trkpt lat="47.505161" lon="7.724267">
        <ele>292.556261</ele>
        <time>2021-11-13T15:44:42.523Z</time>
      </trkpt>
      <trkpt lat="47.505365" lon="7.724317">
        <ele>292.113629</ele>
        <time>2021-11-13T15:44:45.877Z</time>
      </trkpt>
      <trkpt lat="47.505646" lon="7.724350">
        <ele>291.510224</ele>
        <time>2021-11-13T15:44:50.176Z</time>
      </trkpt>
      <trkpt lat="47.505783" lon="7.724344">
        <ele>291.216830</ele>
        <time>2021-11-13T15:44:52.211Z</time>
      </trkpt>
      <trkpt lat="47.505851" lon="7.724341">
        <ele>291.071203</ele>
        <time>2021-11-13T15:44:53.292Z</time>
      </trkpt>
      <trkpt lat="47.505891" lon="7.724339">
        <ele>290.985529</ele>
        <time>2021-11-13T15:44:53.888Z</time>
      </trkpt>
      <trkpt lat="47.505930" lon="7.724337">
        <ele>290.901994</ele>
        <time>2021-11-13T15:44:54.490Z</time>
      </trkpt>
      <trkpt lat="47.506453" lon="7.724284">
        <ele>289.779828</ele>
        <time>2021-11-13T15:45:02.459Z</time>
      </trkpt>
      <trkpt lat="47.506607" lon="7.724268">
        <ele>289.503306</ele>
        <time>2021-11-13T15:45:04.776Z</time>
      </trkpt>
      <trkpt lat="47.506921" lon="7.724257">
        <ele>288.945841</ele>
        <time>2021-11-13T15:45:09.773Z</time>
      </trkpt>
      <trkpt lat="47.506945" lon="7.724261">
        <ele>288.902975</ele>
        <time>2021-11-13T15:45:10.153Z</time>
      </trkpt>
      <trkpt lat="47.507064" lon="7.724278">
        <ele>288.690784</ele>
        <time>2021-11-13T15:45:12.029Z</time>
      </trkpt>
      <trkpt lat="47.507444" lon="7.724343">
        <ele>288.011846</ele>
        <time>2021-11-13T15:45:18.153Z</time>
      </trkpt>
      <trkpt lat="47.507810" lon="7.724326">
        <ele>287.361924</ele>
        <time>2021-11-13T15:45:24.135Z</time>
      </trkpt>
      <trkpt lat="47.508175" lon="7.724311">
        <ele>286.713847</ele>
        <time>2021-11-13T15:45:30.175Z</time>
      </trkpt>
      <trkpt lat="47.508425" lon="7.724317">
        <ele>286.453012</ele>
        <time>2021-11-13T15:45:34.400Z</time>
      </trkpt>
      <trkpt lat="47.508629" lon="7.724301">
        <ele>286.309593</ele>
        <time>2021-11-13T15:45:37.769Z</time>
      </trkpt>
      <trkpt lat="47.508823" lon="7.724215">
        <ele>286.167421</ele>
        <time>2021-11-13T15:45:40.251Z</time>
      </trkpt>
      <trkpt lat="47.509150" lon="7.724070">
        <ele>285.927775</ele>
        <time>2021-11-13T15:45:44.426Z</time>
      </trkpt>
      <trkpt lat="47.509672" lon="7.723906">
        <ele>285.553144</ele>
        <time>2021-11-13T15:45:51.350Z</time>
      </trkpt>
      <trkpt lat="47.509849" lon="7.723882">
        <ele>285.428362</ele>
        <time>2021-11-13T15:45:54.953Z</time>
      </trkpt>
      <trkpt lat="47.510349" lon="7.724011">
        <ele>285.334119</ele>
        <time>2021-11-13T15:46:05.921Z</time>
      </trkpt>
      <trkpt lat="47.510952" lon="7.724263">
        <ele>285.378718</ele>
        <time>2021-11-13T15:46:19.981Z</time>
      </trkpt>
      <trkpt lat="47.511606" lon="7.724590">
        <ele>285.427853</ele>
        <time>2021-11-13T15:46:32.451Z</time>
      </trkpt>
      <trkpt lat="47.511791" lon="7.724622">
        <ele>285.489966</ele>
        <time>2021-11-13T15:46:36.020Z</time>
      </trkpt>
      <trkpt lat="47.511979" lon="7.724618">
        <ele>285.715002</ele>
        <time>2021-11-13T15:46:39.863Z</time>
      </trkpt>
      <trkpt lat="47.512214" lon="7.724543">
        <ele>286.002730</ele>
        <time>2021-11-13T15:46:45.931Z</time>
      </trkpt>
      <trkpt lat="47.512277" lon="7.724501">
        <ele>286.085425</ele>
        <time>2021-11-13T15:46:47.031Z</time>
      </trkpt>
      <trkpt lat="47.512857" lon="7.723931">
        <ele>286.918630</ele>
        <time>2021-11-13T15:47:07.787Z</time>
      </trkpt>
      <trkpt lat="47.512888" lon="7.724074">
        <ele>287.040040</ele>
        <time>2021-11-13T15:47:09.882Z</time>
      </trkpt>
      <trkpt lat="47.512910" lon="7.724174">
        <ele>287.125060</ele>
        <time>2021-11-13T15:47:11.728Z</time>
      </trkpt>
      <trkpt lat="47.512976" lon="7.724418">
        <ele>287.337540</ele>
        <time>2021-11-13T15:47:15.113Z</time>
      </trkpt>
      <trkpt lat="47.513078" lon="7.724821">
        <ele>287.632942</ele>
        <time>2021-11-13T15:47:21.021Z</time>
      </trkpt>
      <trkpt lat="47.513150" lon="7.725105">
        <ele>287.742155</ele>
        <time>2021-11-13T15:47:23.400Z</time>
      </trkpt>
      <trkpt lat="47.513193" lon="7.725244">
        <ele>287.797197</ele>
        <time>2021-11-13T15:47:26.389Z</time>
      </trkpt>
      <trkpt lat="47.513232" lon="7.725318">
        <ele>287.830990</ele>
        <time>2021-11-13T15:47:27.537Z</time>
      </trkpt>
      <trkpt lat="47.513538" lon="7.725582">
        <ele>288.019772</ele>
        <time>2021-11-13T15:47:34.636Z</time>
      </trkpt>
      <trkpt lat="47.513681" lon="7.725617">
        <ele>288.097031</ele>
        <time>2021-11-13T15:47:36.978Z</time>
      </trkpt>
      <trkpt lat="47.513902" lon="7.725579">
        <ele>288.215624</ele>
        <time>2021-11-13T15:47:42.380Z</time>
      </trkpt>
      <trkpt lat="47.514143" lon="7.725538">
        <ele>288.344931</ele>
        <time>2021-11-13T15:47:46.613Z</time>
      </trkpt>
      <trkpt lat="47.515140" lon="7.725368">
        <ele>287.314184</ele>
        <time>2021-11-13T15:47:58.530Z</time>
      </trkpt>
      <trkpt lat="47.515697" lon="7.725255">
        <ele>286.193564</ele>
        <time>2021-11-13T15:48:04.333Z</time>
      </trkpt>
      <trkpt lat="47.515959" lon="7.725102">
        <ele>285.632179</ele>
        <time>2021-11-13T15:48:07.316Z</time>
      </trkpt>
      <trkpt lat="47.516416" lon="7.724623">
        <ele>284.505909</ele>
        <time>2021-11-13T15:48:13.273Z</time>
      </trkpt>
      <trkpt lat="47.517269" lon="7.723372">
        <ele>282.058283</ele>
        <time>2021-11-13T15:48:26.337Z</time>
      </trkpt>
      <trkpt lat="47.517885" lon="7.722793">
        <ele>280.924244</ele>
        <time>2021-11-13T15:48:34.671Z</time>
      </trkpt>
      <trkpt lat="47.518038" lon="7.722700">
        <ele>280.751050</ele>
        <time>2021-11-13T15:48:36.550Z</time>
      </trkpt>
      <trkpt lat="47.518237" lon="7.722578">
        <ele>280.525506</ele>
        <time>2021-11-13T15:48:39.169Z</time>
      </trkpt>
      <trkpt lat="47.519305" lon="7.722165">
        <ele>279.449476</ele>
        <time>2021-11-13T15:48:52.768Z</time>
      </trkpt>
      <trkpt lat="47.520760" lon="7.721667">
        <ele>280.697193</ele>
        <time>2021-11-13T15:49:16.766Z</time>
      </trkpt>
      <trkpt lat="47.521121" lon="7.721544">
        <ele>281.505399</ele>
        <time>2021-11-13T15:49:26.208Z</time>
      </trkpt>
      <trkpt lat="47.521455" lon="7.721426">
        <ele>283.384116</ele>
        <time>2021-11-13T15:49:37.379Z</time>
      </trkpt>
      <trkpt lat="47.521722" lon="7.721283">
        <ele>284.937578</ele>
        <time>2021-11-13T15:49:46.977Z</time>
      </trkpt>
      <trkpt lat="47.521846" lon="7.721211">
        <ele>285.666316</ele>
        <time>2021-11-13T15:49:53.252Z</time>
      </trkpt>
      <trkpt lat="47.521984" lon="7.721168">
        <ele>286.437895</ele>
        <time>2021-11-13T15:49:58.006Z</time>
      </trkpt>
      <trkpt lat="47.522249" lon="7.721165">
        <ele>287.887841</ele>
        <time>2021-11-13T15:50:10.062Z</time>
      </trkpt>
      <trkpt lat="47.522498" lon="7.721207">
        <ele>289.259013</ele>
        <time>2021-11-13T15:50:20.700Z</time>
      </trkpt>
      <trkpt lat="47.522682" lon="7.721170">
        <ele>290.274979</ele>
        <time>2021-11-13T15:50:28.152Z</time>
      </trkpt>
      <trkpt lat="47.522888" lon="7.721170">
        <ele>291.351846</ele>
        <time>2021-11-13T15:50:37.885Z</time>
      </trkpt>
      <trkpt lat="47.523111" lon="7.721224">
        <ele>292.491776</ele>
        <time>2021-11-13T15:50:46.249Z</time>
      </trkpt>
      <trkpt lat="47.523300" lon="7.721328">
        <ele>293.508941</ele>
        <time>2021-11-13T15:50:55.573Z</time>
      </trkpt>
      <trkpt lat="47.523671" lon="7.721634">
        <ele>295.651287</ele>
        <time>2021-11-13T15:51:11.490Z</time>
      </trkpt>
      <trkpt lat="47.523902" lon="7.721670">
        <ele>296.823070</ele>
        <time>2021-11-13T15:51:20.305Z</time>
      </trkpt>
      <trkpt lat="47.524263" lon="7.721598">
        <ele>298.660683</ele>
        <time>2021-11-13T15:51:31.648Z</time>
      </trkpt>
      <trkpt lat="47.524632" lon="7.721805">
        <ele>299.803942</ele>
        <time>2021-11-13T15:51:41.007Z</time>
      </trkpt>
      <trkpt lat="47.524884" lon="7.722022">
        <ele>299.754371</ele>
        <time>2021-11-13T15:51:46.255Z</time>
      </trkpt>
      <trkpt lat="47.525258" lon="7.722384">
        <ele>299.678393</ele>
        <time>2021-11-13T15:51:52.393Z</time>
      </trkpt>
      <trkpt lat="47.525373" lon="7.722545">
        <ele>299.651482</ele>
        <time>2021-11-13T15:51:54.400Z</time>
      </trkpt>
      <trkpt lat="47.526099" lon="7.723563">
        <ele>299.257661</ele>
        <time>2021-11-13T15:52:05.798Z</time>
      </trkpt>
      <trkpt lat="47.526744" lon="7.724750">
        <ele>298.197850</ele>
        <time>2021-11-13T15:52:17.734Z</time>
      </trkpt>
      <trkpt lat="47.526894" lon="7.725042">
        <ele>297.942643</ele>
        <time>2021-11-13T15:52:20.771Z</time>
      </trkpt>
      <trkpt lat="47.527862" lon="7.727114">
        <ele>298.225357</ele>
        <time>2021-11-13T15:52:48.983Z</time>
      </trkpt>
      <trkpt lat="47.528009" lon="7.727429">
        <ele>298.324592</ele>
        <time>2021-11-13T15:52:53.746Z</time>
      </trkpt>
      <trkpt lat="47.528065" lon="7.727556">
        <ele>298.362715</ele>
        <time>2021-11-13T15:52:55.560Z</time>
      </trkpt>
      <trkpt lat="47.528164" lon="7.727824">
        <ele>298.304276</ele>
        <time>2021-11-13T15:52:59.206Z</time>
      </trkpt>
      <trkpt lat="47.528320" lon="7.728136">
        <ele>298.230008</ele>
        <time>2021-11-13T15:53:03.342Z</time>
      </trkpt>
      <trkpt lat="47.528408" lon="7.728307">
        <ele>298.188878</ele>
        <time>2021-11-13T15:53:05.417Z</time>
      </trkpt>
      <trkpt lat="47.528552" lon="7.728411">
        <ele>298.143489</ele>
        <time>2021-11-13T15:53:07.708Z</time>
      </trkpt>
      <trkpt lat="47.528614" lon="7.728431">
        <ele>298.125511</ele>
        <time>2021-11-13T15:53:08.632Z</time>
      </trkpt>
      <trkpt lat="47.528688" lon="7.728441">
        <ele>298.104459</ele>
        <time>2021-11-13T15:53:09.647Z</time>
      </trkpt>
      <trkpt lat="47.528715" lon="7.728334">
        <ele>298.082608</ele>
        <time>2021-11-13T15:53:10.597Z</time>
      </trkpt>
      <trkpt lat="47.528746" lon="7.728265">
        <ele>298.066753</ele>
        <time>2021-11-13T15:53:11.381Z</time>
      </trkpt>
      <trkpt lat="47.528803" lon="7.728159">
        <ele>298.040831</ele>
        <time>2021-11-13T15:53:12.640Z</time>
      </trkpt>
      <trkpt lat="47.528848" lon="7.728118">
        <ele>298.025862</ele>
        <time>2021-11-13T15:53:13.360Z</time>
      </trkpt>
      <trkpt lat="47.528941" lon="7.728048">
        <ele>297.996307</ele>
        <time>2021-11-13T15:53:14.732Z</time>
      </trkpt>
      <trkpt lat="47.528985" lon="7.728021">
        <ele>297.982813</ele>
        <time>2021-11-13T15:53:15.284Z</time>
      </trkpt>
      <trkpt lat="47.529269" lon="7.727844">
        <ele>297.895519</ele>
        <time>2021-11-13T15:53:19.209Z</time>
      </trkpt>
      <trkpt lat="47.529976" lon="7.727410">
        <ele>297.238393</ele>
        <time>2021-11-13T15:53:28.334Z</time>
      </trkpt>
      <trkpt lat="47.530372" lon="7.727161">
        <ele>296.809758</ele>
        <time>2021-11-13T15:53:33.460Z</time>
      </trkpt>
      <trkpt lat="47.530756" lon="7.726844">
        <ele>296.371746</ele>
        <time>2021-11-13T15:53:38.845Z</time>
      </trkpt>
      <trkpt lat="47.531031" lon="7.726569">
        <ele>296.051997</ele>
        <time>2021-11-13T15:53:43.008Z</time>
      </trkpt>
      <trkpt lat="47.531193" lon="7.726888">
        <ele>295.926008</ele>
        <time>2021-11-13T15:53:46.445Z</time>
      </trkpt>
      <trkpt lat="47.531296" lon="7.727089">
        <ele>295.846362</ele>
        <time>2021-11-13T15:53:48.779Z</time>
      </trkpt>
      <trkpt lat="47.531623" lon="7.727725">
        <ele>295.594041</ele>
        <time>2021-11-13T15:53:55.990Z</time>
      </trkpt>
      <trkpt lat="47.531815" lon="7.728165">
        <ele>295.428683</ele>
        <time>2021-11-13T15:54:00.740Z</time>
      </trkpt>
      <trkpt lat="47.531944" lon="7.728603">
        <ele>295.277856</ele>
        <time>2021-11-13T15:54:05.077Z</time>
      </trkpt>
      <trkpt lat="47.532193" lon="7.730459">
        <ele>295.241921</ele>
        <time>2021-11-13T15:54:23.349Z</time>
      </trkpt>
      <trkpt lat="47.532405" lon="7.731493">
        <ele>295.256491</ele>
        <time>2021-11-13T15:54:35.307Z</time>
      </trkpt>
      <trkpt lat="47.532473" lon="7.731703">
        <ele>295.261571</ele>
        <time>2021-11-13T15:54:37.774Z</time>
      </trkpt>
      <trkpt lat="47.532665" lon="7.732105">
        <ele>295.272311</ele>
        <time>2021-11-13T15:54:43.258Z</time>
      </trkpt>
      <trkpt lat="47.532776" lon="7.732283">
        <ele>295.277596</ele>
        <time>2021-11-13T15:54:45.834Z</time>
      </trkpt>
      <trkpt lat="47.532853" lon="7.732416">
        <ele>295.281418</ele>
        <time>2021-11-13T15:54:47.750Z</time>
      </trkpt>
      <trkpt lat="47.532961" lon="7.732599">
        <ele>295.286719</ele>
        <time>2021-11-13T15:54:50.040Z</time>
      </trkpt>
      <trkpt lat="47.533220" lon="7.733022">
        <ele>295.299175</ele>
        <time>2021-11-13T15:54:55.635Z</time>
      </trkpt>
      <trkpt lat="47.533324" lon="7.733190">
        <ele>295.304146</ele>
        <time>2021-11-13T15:54:57.991Z</time>
      </trkpt>
      <trkpt lat="47.533436" lon="7.733399">
        <ele>295.309966</ele>
        <time>2021-11-13T15:55:00.390Z</time>
      </trkpt>
      <trkpt lat="47.533577" lon="7.733712">
        <ele>295.160881</ele>
        <time>2021-11-13T15:55:03.893Z</time>
      </trkpt>
      <trkpt lat="47.533685" lon="7.734026">
        <ele>294.978752</ele>
        <time>2021-11-13T15:55:07.039Z</time>
      </trkpt>
      <trkpt lat="47.533860" lon="7.734479">
        <ele>294.709014</ele>
        <time>2021-11-13T15:55:11.535Z</time>
      </trkpt>
      <trkpt lat="47.534209" lon="7.735386">
        <ele>294.169470</ele>
        <time>2021-11-13T15:55:20.105Z</time>
      </trkpt>
      <trkpt lat="47.534301" lon="7.735625">
        <ele>294.027284</ele>
        <time>2021-11-13T15:55:22.330Z</time>
      </trkpt>
      <trkpt lat="47.534450" lon="7.736026">
        <ele>294.103662</ele>
        <time>2021-11-13T15:55:26.115Z</time>
      </trkpt>
      <trkpt lat="47.534670" lon="7.736644">
        <ele>294.526001</ele>
        <time>2021-11-13T15:55:32.143Z</time>
      </trkpt>
      <trkpt lat="47.534765" lon="7.736911">
        <ele>294.708447</ele>
        <time>2021-11-13T15:55:34.804Z</time>
      </trkpt>
      <trkpt lat="47.535216" lon="7.738157">
        <ele>295.685563</ele>
        <time>2021-11-13T15:55:54.021Z</time>
      </trkpt>
      <trkpt lat="47.534755" lon="7.738529">
        <ele>299.416342</ele>
        <time>2021-11-13T15:56:14.244Z</time>
      </trkpt>
      <trkpt lat="47.534011" lon="7.739126">
        <ele>305.429692</ele>
        <time>2021-11-13T15:56:56.056Z</time>
      </trkpt>
      <trkpt lat="47.533446" lon="7.739598">
        <ele>309.679662</ele>
        <time>2021-11-13T15:57:27.977Z</time>
      </trkpt>
      <trkpt lat="47.533226" lon="7.739781">
        <ele>311.095834</ele>
        <time>2021-11-13T15:57:39.314Z</time>
      </trkpt>
      <trkpt lat="47.533191" lon="7.739816">
        <ele>311.332856</ele>
        <time>2021-11-13T15:57:42.565Z</time>
      </trkpt>
      <trkpt lat="47.533352" lon="7.740430">
        <ele>313.828864</ele>
        <time>2021-11-13T15:58:01.249Z</time>
      </trkpt>
      <trkpt lat="47.533707" lon="7.742025">
        <ele>318.486775</ele>
        <time>2021-11-13T15:58:33.533Z</time>
      </trkpt>
      <trkpt lat="47.533870" lon="7.743466">
        <ele>318.687209</ele>
        <time>2021-11-13T15:58:45.612Z</time>
      </trkpt>
      <trkpt lat="47.534043" lon="7.744207">
        <ele>318.783244</ele>
        <time>2021-11-13T15:58:52.695Z</time>
      </trkpt>
      <trkpt lat="47.534097" lon="7.744343">
        <ele>318.767201</ele>
        <time>2021-11-13T15:58:54.142Z</time>
      </trkpt>
      <trkpt lat="47.534179" lon="7.744495">
        <ele>318.747418</ele>
        <time>2021-11-13T15:58:56.021Z</time>
      </trkpt>
      <trkpt lat="47.534370" lon="7.744709">
        <ele>318.711349</ele>
        <time>2021-11-13T15:58:59.315Z</time>
      </trkpt>
      <trkpt lat="47.534429" lon="7.744856">
        <ele>318.693961</ele>
        <time>2021-11-13T15:59:01.078Z</time>
      </trkpt>
      <trkpt lat="47.534874" lon="7.746551">
        <ele>318.533895</ele>
        <time>2021-11-13T15:59:18.628Z</time>
      </trkpt>
      <trkpt lat="47.535912" lon="7.749669">
        <ele>319.236570</ele>
        <time>2021-11-13T15:59:56.968Z</time>
      </trkpt>
      <trkpt lat="47.537134" lon="7.752309">
        <ele>320.126836</ele>
        <time>2021-11-13T16:00:31.121Z</time>
      </trkpt>
      <trkpt lat="47.537371" lon="7.752851">
        <ele>320.375299</ele>
        <time>2021-11-13T16:00:37.769Z</time>
      </trkpt>
      <trkpt lat="47.537564" lon="7.753073">
        <ele>320.514565</ele>
        <time>2021-11-13T16:00:41.585Z</time>
      </trkpt>
      <trkpt lat="47.537715" lon="7.753194">
        <ele>320.671490</ele>
        <time>2021-11-13T16:00:45.429Z</time>
      </trkpt>
      <trkpt lat="47.538052" lon="7.753460">
        <ele>322.092291</ele>
        <time>2021-11-13T16:00:54.514Z</time>
      </trkpt>
      <trkpt lat="47.538359" lon="7.753900">
        <ele>323.681720</ele>
        <time>2021-11-13T16:01:05.767Z</time>
      </trkpt>
      <trkpt lat="47.538494" lon="7.754103">
        <ele>324.397479</ele>
        <time>2021-11-13T16:01:11.550Z</time>
      </trkpt>
      <trkpt lat="47.538723" lon="7.754445">
        <ele>325.607419</ele>
        <time>2021-11-13T16:01:21.702Z</time>
      </trkpt>
      <trkpt lat="47.538792" lon="7.754549">
        <ele>325.973688</ele>
        <time>2021-11-13T16:01:25.626Z</time>
      </trkpt>
      <trkpt lat="47.539079" lon="7.754976">
        <ele>327.559919</ele>
        <time>2021-11-13T16:01:41.345Z</time>
      </trkpt>
      <trkpt lat="47.539230" lon="7.755294">
        <ele>328.904164</ele>
        <time>2021-11-13T16:01:51.963Z</time>
      </trkpt>
      <trkpt lat="47.539281" lon="7.755489">
        <ele>329.627213</ele>
        <time>2021-11-13T16:01:58.008Z</time>
      </trkpt>
      <trkpt lat="47.539323" lon="7.755649">
        <ele>330.220769</ele>
        <time>2021-11-13T16:02:02.333Z</time>
      </trkpt>
      <trkpt lat="47.539346" lon="7.755736">
        <ele>330.543817</ele>
        <time>2021-11-13T16:02:05.254Z</time>
      </trkpt>
      <trkpt lat="47.539595" lon="7.757548">
        <ele>336.478947</ele>
        <time>2021-11-13T16:02:49.233Z</time>
      </trkpt>
      <trkpt lat="47.539722" lon="7.758107">
        <ele>336.351059</ele>
        <time>2021-11-13T16:02:58.184Z</time>
      </trkpt>
      <trkpt lat="47.539949" lon="7.758688">
        <ele>336.205504</ele>
        <time>2021-11-13T16:03:05.397Z</time>
      </trkpt>
      <trkpt lat="47.540447" lon="7.759585">
        <ele>335.953685</ele>
        <time>2021-11-13T16:03:13.920Z</time>
      </trkpt>
      <trkpt lat="47.540567" lon="7.759901">
        <ele>334.901483</ele>
        <time>2021-11-13T16:03:16.306Z</time>
      </trkpt>
      <trkpt lat="47.540921" lon="7.761599">
        <ele>327.466821</ele>
        <time>2021-11-13T16:03:27.429Z</time>
      </trkpt>
      <trkpt lat="47.541004" lon="7.762306">
        <ele>324.297432</ele>
        <time>2021-11-13T16:03:31.649Z</time>
      </trkpt>
      <trkpt lat="47.541023" lon="7.762922">
        <ele>320.356718</ele>
        <time>2021-11-13T16:03:35.233Z</time>
      </trkpt>
      <trkpt lat="47.541219" lon="7.763853">
        <ele>314.124473</ele>
        <time>2021-11-13T16:03:40.856Z</time>
      </trkpt>
      <trkpt lat="47.541334" lon="7.764020">
        <ele>312.599951</ele>
        <time>2021-11-13T16:03:42.323Z</time>
      </trkpt>
      <trkpt lat="47.541377" lon="7.764045">
        <ele>312.162655</ele>
        <time>2021-11-13T16:03:42.695Z</time>
      </trkpt>
      <trkpt lat="47.541364" lon="7.764150">
        <ele>311.480455</ele>
        <time>2021-11-13T16:03:43.307Z</time>
      </trkpt>
      <trkpt lat="47.541443" lon="7.764512">
        <ele>309.049195</ele>
        <time>2021-11-13T16:03:45.617Z</time>
      </trkpt>
      <trkpt lat="47.541552" lon="7.764869">
        <ele>307.100305</ele>
        <time>2021-11-13T16:03:47.911Z</time>
      </trkpt>
      <trkpt lat="47.541697" lon="7.765479">
        <ele>304.864347</ele>
        <time>2021-11-13T16:03:51.793Z</time>
      </trkpt>
      <trkpt lat="47.542317" lon="7.768533">
        <ele>296.929487</ele>
        <time>2021-11-13T16:04:13.267Z</time>
      </trkpt>
      <trkpt lat="47.542450" lon="7.769311">
        <ele>295.978070</ele>
        <time>2021-11-13T16:04:20.981Z</time>
      </trkpt>
      <trkpt lat="47.542720" lon="7.770771">
        <ele>295.643470</ele>
        <time>2021-11-13T16:04:37.525Z</time>
      </trkpt>
      <trkpt lat="47.543108" lon="7.773069">
        <ele>296.135810</ele>
        <time>2021-11-13T16:05:04.377Z</time>
      </trkpt>
      <trkpt lat="47.543145" lon="7.773277">
        <ele>296.156406</ele>
        <time>2021-11-13T16:05:06.503Z</time>
      </trkpt>
      <trkpt lat="47.543350" lon="7.774507">
        <ele>296.277714</ele>
        <time>2021-11-13T16:05:18.966Z</time>
      </trkpt>
      <trkpt lat="47.543402" lon="7.775016">
        <ele>296.354460</ele>
        <time>2021-11-13T16:05:24.030Z</time>
      </trkpt>
      <trkpt lat="47.543449" lon="7.775478">
        <ele>296.660476</ele>
        <time>2021-11-13T16:05:28.723Z</time>
      </trkpt>
      <trkpt lat="47.543482" lon="7.776095">
        <ele>297.065863</ele>
        <time>2021-11-13T16:05:35.431Z</time>
      </trkpt>
      <trkpt lat="47.543527" lon="7.776532">
        <ele>297.355398</ele>
        <time>2021-11-13T16:05:40.590Z</time>
      </trkpt>
      <trkpt lat="47.543707" lon="7.777394">
        <ele>297.946383</ele>
        <time>2021-11-13T16:05:52.876Z</time>
      </trkpt>
      <trkpt lat="47.543933" lon="7.778374">
        <ele>300.625019</ele>
        <time>2021-11-13T16:06:11.203Z</time>
      </trkpt>
      <trkpt lat="47.544100" lon="7.779438">
        <ele>303.909197</ele>
        <time>2021-11-13T16:06:35.403Z</time>
      </trkpt>
      <trkpt lat="47.544461" lon="7.782254">
        <ele>313.554877</ele>
        <time>2021-11-13T16:07:56.005Z</time>
      </trkpt>
      <trkpt lat="47.544469" lon="7.782455">
        <ele>314.256746</ele>
        <time>2021-11-13T16:08:01.038Z</time>
      </trkpt>
      <trkpt lat="47.544474" lon="7.782623">
        <ele>314.842935</ele>
        <time>2021-11-13T16:08:03.426Z</time>
      </trkpt>
      <trkpt lat="47.544490" lon="7.783060">
        <ele>314.690027</ele>
        <time>2021-11-13T16:08:07.317Z</time>
      </trkpt>
      <trkpt lat="47.544555" lon="7.783372">
        <ele>313.921327</ele>
        <time>2021-11-13T16:08:09.802Z</time>
      </trkpt>
      <trkpt lat="47.544627" lon="7.783499">
        <ele>313.530882</ele>
        <time>2021-11-13T16:08:11.199Z</time>
      </trkpt>
      <trkpt lat="47.544950" lon="7.784008">
        <ele>311.886224</ele>
        <time>2021-11-13T16:08:18.011Z</time>
      </trkpt>
      <trkpt lat="47.545054" lon="7.784227">
        <ele>311.255851</ele>
        <time>2021-11-13T16:08:20.584Z</time>
      </trkpt>
      <trkpt lat="47.545240" lon="7.784746">
        <ele>309.872502</ele>
        <time>2021-11-13T16:08:25.738Z</time>
      </trkpt>
      <trkpt lat="47.545250" lon="7.784778">
        <ele>309.789487</ele>
        <time>2021-11-13T16:08:26.012Z</time>
      </trkpt>
      <trkpt lat="47.545624" lon="7.785548">
        <ele>306.913277</ele>
        <time>2021-11-13T16:08:34.175Z</time>
      </trkpt>
      <trkpt lat="47.545672" lon="7.785654">
        <ele>306.487110</ele>
        <time>2021-11-13T16:08:35.184Z</time>
      </trkpt>
      <trkpt lat="47.545856" lon="7.785973">
        <ele>305.086163</ele>
        <time>2021-11-13T16:08:39.025Z</time>
      </trkpt>
      <trkpt lat="47.546102" lon="7.786217">
        <ele>303.621850</ele>
        <time>2021-11-13T16:08:43.009Z</time>
      </trkpt>
      <trkpt lat="47.546417" lon="7.786331">
        <ele>302.017960</ele>
        <time>2021-11-13T16:08:47.577Z</time>
      </trkpt>
      <trkpt lat="47.546464" lon="7.786335">
        <ele>301.785102</ele>
        <time>2021-11-13T16:08:48.338Z</time>
      </trkpt>
      <trkpt lat="47.546526" lon="7.786353">
        <ele>301.472601</ele>
        <time>2021-11-13T16:08:49.335Z</time>
      </trkpt>
      <trkpt lat="47.546913" lon="7.786470">
        <ele>300.182772</ele>
        <time>2021-11-13T16:08:55.490Z</time>
      </trkpt>
      <trkpt lat="47.546952" lon="7.786540">
        <ele>300.176385</ele>
        <time>2021-11-13T16:08:56.428Z</time>
      </trkpt>
      <trkpt lat="47.546959" lon="7.786598">
        <ele>300.172238</ele>
        <time>2021-11-13T16:08:57.130Z</time>
      </trkpt>
      <trkpt lat="47.546897" lon="7.787133">
        <ele>300.134035</ele>
        <time>2021-11-13T16:09:04.599Z</time>
      </trkpt>
      <trkpt lat="47.546813" lon="7.787809">
        <ele>300.085660</ele>
        <time>2021-11-13T16:09:14.772Z</time>
      </trkpt>
      <trkpt lat="47.546695" lon="7.788763">
        <ele>300.017402</ele>
        <time>2021-11-13T16:09:29.351Z</time>
      </trkpt>
      <trkpt lat="47.546673" lon="7.788921">
        <ele>300.041750</ele>
        <time>2021-11-13T16:09:31.954Z</time>
      </trkpt>
      <trkpt lat="47.546611" lon="7.789379">
        <ele>300.345852</ele>
        <time>2021-11-13T16:09:39.130Z</time>
      </trkpt>
      <trkpt lat="47.546253" lon="7.791998">
        <ele>301.810891</ele>
        <time>2021-11-13T16:10:23.987Z</time>
      </trkpt>
      <trkpt lat="47.546027" lon="7.793254">
        <ele>301.976081</ele>
        <time>2021-11-13T16:10:42.916Z</time>
      </trkpt>
      <trkpt lat="47.545969" lon="7.793663">
        <ele>302.029193</ele>
        <time>2021-11-13T16:10:47.997Z</time>
      </trkpt>
      <trkpt lat="47.545937" lon="7.794201">
        <ele>302.053240</ele>
        <time>2021-11-13T16:10:54.483Z</time>
      </trkpt>
      <trkpt lat="47.545921" lon="7.794468">
        <ele>301.985401</ele>
        <time>2021-11-13T16:10:57.807Z</time>
      </trkpt>
      <trkpt lat="47.545947" lon="7.794710">
        <ele>301.923384</ele>
        <time>2021-11-13T16:11:00.640Z</time>
      </trkpt>
      <trkpt lat="47.546019" lon="7.795020">
        <ele>301.840413</ele>
        <time>2021-11-13T16:11:04.665Z</time>
      </trkpt>
      <trkpt lat="47.546165" lon="7.795511">
        <ele>301.704627</ele>
        <time>2021-11-13T16:11:11.594Z</time>
      </trkpt>
      <trkpt lat="47.546170" lon="7.795612">
        <ele>301.678997</ele>
        <time>2021-11-13T16:11:12.646Z</time>
      </trkpt>
      <trkpt lat="47.546154" lon="7.795747">
        <ele>301.644308</ele>
        <time>2021-11-13T16:11:14.482Z</time>
      </trkpt>
      <trkpt lat="47.546105" lon="7.795928">
        <ele>301.594953</ele>
        <time>2021-11-13T16:11:17.617Z</time>
      </trkpt>
      <trkpt lat="47.546038" lon="7.796107">
        <ele>301.543152</ele>
        <time>2021-11-13T16:11:19.938Z</time>
      </trkpt>
      <trkpt lat="47.545889" lon="7.796500">
        <ele>301.429075</ele>
        <time>2021-11-13T16:11:26.801Z</time>
      </trkpt>
      <trkpt lat="47.545788" lon="7.796748">
        <ele>301.416651</ele>
        <time>2021-11-13T16:11:30.453Z</time>
      </trkpt>
      <trkpt lat="47.545728" lon="7.796950">
        <ele>301.425234</ele>
        <time>2021-11-13T16:11:33.777Z</time>
      </trkpt>
      <trkpt lat="47.545689" lon="7.797076">
        <ele>301.430625</ele>
        <time>2021-11-13T16:11:35.238Z</time>
      </trkpt>
      <trkpt lat="47.545670" lon="7.797142">
        <ele>301.433416</ele>
        <time>2021-11-13T16:11:36.296Z</time>
      </trkpt>
      <trkpt lat="47.545645" lon="7.797258">
        <ele>301.438151</ele>
        <time>2021-11-13T16:11:38.051Z</time>
      </trkpt>
      <trkpt lat="47.545637" lon="7.797310">
        <ele>301.440225</ele>
        <time>2021-11-13T16:11:39.394Z</time>
      </trkpt>
      <trkpt lat="47.545608" lon="7.797614">
        <ele>301.452166</ele>
        <time>2021-11-13T16:11:43.030Z</time>
      </trkpt>
      <trkpt lat="47.545558" lon="7.798144">
        <ele>301.472979</ele>
        <time>2021-11-13T16:11:50.880Z</time>
      </trkpt>
      <trkpt lat="47.545511" lon="7.798680">
        <ele>301.493999</ele>
        <time>2021-11-13T16:11:58.948Z</time>
      </trkpt>
      <trkpt lat="47.545581" lon="7.798713">
        <ele>301.498232</ele>
        <time>2021-11-13T16:12:00.451Z</time>
      </trkpt>
      <trkpt lat="47.545731" lon="7.798810">
        <ele>301.507662</ele>
        <time>2021-11-13T16:12:04.456Z</time>
      </trkpt>
      <trkpt lat="47.545807" lon="7.798846">
        <ele>301.511394</ele>
        <time>2021-11-13T16:12:05.797Z</time>
      </trkpt>
      <trkpt lat="47.546418" lon="7.798980">
        <ele>301.188400</ele>
        <time>2021-11-13T16:12:17.834Z</time>
      </trkpt>
      <trkpt lat="47.547540" lon="7.799538">
        <ele>300.570795</ele>
        <time>2021-11-13T16:12:38.466Z</time>
      </trkpt>
      <trkpt lat="47.547912" lon="7.799646">
        <ele>300.494742</ele>
        <time>2021-11-13T16:12:45.846Z</time>
      </trkpt>
      <trkpt lat="47.548459" lon="7.799691">
        <ele>300.384830</ele>
        <time>2021-11-13T16:12:56.784Z</time>
      </trkpt>
      <trkpt lat="47.548535" lon="7.799720">
        <ele>300.369085</ele>
        <time>2021-11-13T16:12:58.305Z</time>
      </trkpt>
      <trkpt lat="47.548514" lon="7.799795">
        <ele>300.358090</ele>
        <time>2021-11-13T16:12:59.369Z</time>
      </trkpt>
      <trkpt lat="47.548519" lon="7.799896">
        <ele>300.344376</ele>
        <time>2021-11-13T16:13:00.723Z</time>
      </trkpt>
      <trkpt lat="47.548545" lon="7.800404">
        <ele>300.275387</ele>
        <time>2021-11-13T16:13:07.514Z</time>
      </trkpt>
      <trkpt lat="47.548560" lon="7.800672">
        <ele>300.238971</ele>
        <time>2021-11-13T16:13:11.206Z</time>
      </trkpt>
      <trkpt lat="47.548569" lon="7.800838">
        <ele>300.216420</ele>
        <time>2021-11-13T16:13:13.450Z</time>
      </trkpt>
      <trkpt lat="47.548576" lon="7.800968">
        <ele>300.202515</ele>
        <time>2021-11-13T16:13:15.226Z</time>
      </trkpt>
      <trkpt lat="47.548596" lon="7.801213">
        <ele>300.179562</ele>
        <time>2021-11-13T16:13:18.604Z</time>
      </trkpt>
      <trkpt lat="47.548607" lon="7.801690">
        <ele>300.135172</ele>
        <time>2021-11-13T16:13:25.106Z</time>
      </trkpt>
      <trkpt lat="47.548626" lon="7.802129">
        <ele>300.094259</ele>
        <time>2021-11-13T16:13:31.024Z</time>
      </trkpt>
      <trkpt lat="47.548877" lon="7.802168">
        <ele>300.059483</ele>
        <time>2021-11-13T16:13:36.005Z</time>
      </trkpt>
      <trkpt lat="47.549410" lon="7.802226">
        <ele>299.985842</ele>
        <time>2021-11-13T16:13:46.449Z</time>
      </trkpt>
      <trkpt lat="47.549481" lon="7.802234">
        <ele>299.976030</ele>
        <time>2021-11-13T16:13:47.798Z</time>
      </trkpt>
      <trkpt lat="47.549879" lon="7.802247">
        <ele>299.854055</ele>
        <time>2021-11-13T16:13:55.263Z</time>
      </trkpt>
      <trkpt lat="47.550146" lon="7.802262">
        <ele>299.758023</ele>
        <time>2021-11-13T16:14:00.330Z</time>
      </trkpt>
      <trkpt lat="47.550142" lon="7.802573">
        <ele>299.682566</ele>
        <time>2021-11-13T16:14:04.337Z</time>
      </trkpt>
      <trkpt lat="47.550136" lon="7.802913">
        <ele>299.600060</ele>
        <time>2021-11-13T16:14:08.798Z</time>
      </trkpt>
      <trkpt lat="47.550134" lon="7.803051">
        <ele>299.566576</ele>
        <time>2021-11-13T16:14:10.527Z</time>
      </trkpt>
      <trkpt lat="47.550196" lon="7.803120">
        <ele>299.538706</ele>
        <time>2021-11-13T16:14:11.993Z</time>
      </trkpt>
      <trkpt lat="47.550981" lon="7.803132">
        <ele>299.369647</ele>
        <time>2021-11-13T16:14:26.653Z</time>
      </trkpt>
      <trkpt lat="47.551163" lon="7.803129">
        <ele>299.427735</ele>
        <time>2021-11-13T16:14:30.052Z</time>
      </trkpt>
      <trkpt lat="47.551598" lon="7.803160">
        <ele>299.566724</ele>
        <time>2021-11-13T16:14:38.637Z</time>
      </trkpt>
      <trkpt lat="47.551666" lon="7.803144">
        <ele>299.588698</ele>
        <time>2021-11-13T16:14:43.382Z</time>
      </trkpt>
      <trkpt lat="47.551732" lon="7.803125">
        <ele>299.610156</ele>
        <time>2021-11-13T16:14:48.049Z</time>
      </trkpt>
      <trkpt lat="47.551744" lon="7.803277">
        <ele>299.643120</ele>
        <time>2021-11-13T16:14:49.743Z</time>
      </trkpt>
      <trkpt lat="47.551751" lon="7.803369">
        <ele>299.663062</ele>
        <time>2021-11-13T16:14:50.816Z</time>
      </trkpt>
      <trkpt lat="47.551692" lon="7.803510">
        <ele>299.698797</ele>
        <time>2021-11-13T16:14:53.411Z</time>
      </trkpt>
      <trkpt lat="47.551741" lon="7.804294">
        <ele>299.868393</ele>
        <time>2021-11-13T16:15:06.428Z</time>
      </trkpt>
      <trkpt lat="47.551744" lon="7.804473">
        <ele>299.923922</ele>
        <time>2021-11-13T16:15:08.948Z</time>
      </trkpt>
      <trkpt lat="47.551731" lon="7.804667">
        <ele>300.009146</ele>
        <time>2021-11-13T16:15:12.928Z</time>
      </trkpt>
      <trkpt lat="47.551709" lon="7.805000">
        <ele>300.155413</ele>
        <time>2021-11-13T16:15:17.420Z</time>
      </trkpt>
      <trkpt lat="47.551681" lon="7.805477">
        <ele>300.364722</ele>
        <time>2021-11-13T16:15:25.156Z</time>
      </trkpt>
      <trkpt lat="47.551671" lon="7.806117">
        <ele>300.644574</ele>
        <time>2021-11-13T16:15:35.245Z</time>
      </trkpt>
      <trkpt lat="47.551651" lon="7.806246">
        <ele>300.702435</ele>
        <time>2021-11-13T16:15:38.148Z</time>
      </trkpt>
      <trkpt lat="47.551895" lon="7.806278">
        <ele>300.861093</ele>
        <time>2021-11-13T16:15:41.673Z</time>
      </trkpt>
      <trkpt lat="47.552015" lon="7.806307">
        <ele>300.939844</ele>
        <time>2021-11-13T16:15:44.544Z</time>
      </trkpt>
      <trkpt lat="47.552068" lon="7.806445">
        <ele>301.009254</ele>
        <time>2021-11-13T16:15:46.001Z</time>
      </trkpt>
      <trkpt lat="47.552398" lon="7.808880">
        <ele>300.388770</ele>
        <time>2021-11-13T16:16:08.143Z</time>
      </trkpt>
      <trkpt lat="47.552566" lon="7.810386">
        <ele>299.742496</ele>
        <time>2021-11-13T16:16:21.155Z</time>
      </trkpt>
      <trkpt lat="47.552711" lon="7.812955">
        <ele>298.597354</ele>
        <time>2021-11-13T16:16:43.763Z</time>
      </trkpt>
      <trkpt lat="47.552844" lon="7.816432">
        <ele>297.442870</ele>
        <time>2021-11-13T16:17:14.256Z</time>
      </trkpt>
      <trkpt lat="47.552948" lon="7.819358">
        <ele>297.778715</ele>
        <time>2021-11-13T16:17:45.486Z</time>
      </trkpt>
      <trkpt lat="47.552896" lon="7.820699">
        <ele>298.335005</ele>
        <time>2021-11-13T16:18:01.570Z</time>
      </trkpt>
      <trkpt lat="47.552567" lon="7.824508">
        <ele>300.237504</ele>
        <time>2021-11-13T16:18:48.055Z</time>
      </trkpt>
      <trkpt lat="47.552491" lon="7.827227">
        <ele>301.660362</ele>
        <time>2021-11-13T16:19:19.795Z</time>
      </trkpt>
      <trkpt lat="47.552515" lon="7.828094">
        <ele>302.352774</ele>
        <time>2021-11-13T16:19:31.504Z</time>
      </trkpt>
      <trkpt lat="47.552477" lon="7.828294">
        <ele>302.601577</ele>
        <time>2021-11-13T16:19:34.122Z</time>
      </trkpt>
      <trkpt lat="47.552421" lon="7.828481">
        <ele>302.846557</ele>
        <time>2021-11-13T16:19:37.053Z</time>
      </trkpt>
      <trkpt lat="47.552404" lon="7.828582">
        <ele>302.971206</ele>
        <time>2021-11-13T16:19:38.737Z</time>
      </trkpt>
      <trkpt lat="47.552416" lon="7.828822">
        <ele>303.259387</ele>
        <time>2021-11-13T16:19:41.898Z</time>
      </trkpt>
      <trkpt lat="47.552554" lon="7.829266">
        <ele>303.844733</ele>
        <time>2021-11-13T16:19:49.026Z</time>
      </trkpt>
      <trkpt lat="47.552645" lon="7.830686">
        <ele>305.824857</ele>
        <time>2021-11-13T16:20:11.548Z</time>
      </trkpt>
      <trkpt lat="47.552684" lon="7.832361">
        <ele>309.117948</ele>
        <time>2021-11-13T16:20:42.239Z</time>
      </trkpt>
      <trkpt lat="47.552690" lon="7.832598">
        <ele>309.583946</ele>
        <time>2021-11-13T16:20:47.247Z</time>
      </trkpt>
      <trkpt lat="47.552616" lon="7.832891">
        <ele>310.198637</ele>
        <time>2021-11-13T16:20:52.307Z</time>
      </trkpt>
      <trkpt lat="47.552556" lon="7.832977">
        <ele>310.436444</ele>
        <time>2021-11-13T16:20:55.209Z</time>
      </trkpt>
      <trkpt lat="47.552511" lon="7.833072">
        <ele>310.649030</ele>
        <time>2021-11-13T16:20:57.348Z</time>
      </trkpt>
      <trkpt lat="47.552467" lon="7.833198">
        <ele>310.908880</ele>
        <time>2021-11-13T16:20:59.606Z</time>
      </trkpt>
      <trkpt lat="47.552452" lon="7.833284">
        <ele>311.071577</ele>
        <time>2021-11-13T16:21:01.127Z</time>
      </trkpt>
      <trkpt lat="47.552696" lon="7.833789">
        <ele>312.209154</ele>
        <time>2021-11-13T16:21:12.405Z</time>
      </trkpt>
      <trkpt lat="47.552700" lon="7.833938">
        <ele>312.482284</ele>
        <time>2021-11-13T16:21:15.654Z</time>
      </trkpt>
      <trkpt lat="47.552714" lon="7.835010">
        <ele>314.446167</ele>
        <time>2021-11-13T16:21:34.693Z</time>
      </trkpt>
      <trkpt lat="47.552719" lon="7.836790">
        <ele>316.668189</ele>
        <time>2021-11-13T16:21:59.976Z</time>
      </trkpt>
      <trkpt lat="47.552697" lon="7.838068">
        <ele>318.021682</ele>
        <time>2021-11-13T16:22:17.618Z</time>
      </trkpt>
      <trkpt lat="47.552736" lon="7.838578">
        <ele>318.567823</ele>
        <time>2021-11-13T16:22:24.745Z</time>
      </trkpt>
      <trkpt lat="47.552802" lon="7.839009">
        <ele>319.038303</ele>
        <time>2021-11-13T16:22:30.964Z</time>
      </trkpt>
      <trkpt lat="47.552939" lon="7.839526">
        <ele>319.629573</ele>
        <time>2021-11-13T16:22:38.754Z</time>
      </trkpt>
      <trkpt lat="47.553231" lon="7.841529">
        <ele>321.688786</ele>
        <time>2021-11-13T16:23:08.884Z</time>
      </trkpt>
      <trkpt lat="47.553216" lon="7.841849">
        <ele>321.984219</ele>
        <time>2021-11-13T16:23:13.408Z</time>
      </trkpt>
      <trkpt lat="47.553123" lon="7.842222">
        <ele>322.350449</ele>
        <time>2021-11-13T16:23:18.637Z</time>
      </trkpt>
      <trkpt lat="47.553133" lon="7.842431">
        <ele>322.543423</ele>
        <time>2021-11-13T16:23:21.767Z</time>
      </trkpt>
      <trkpt lat="47.552833" lon="7.842495">
        <ele>322.957039</ele>
        <time>2021-11-13T16:23:29.076Z</time>
      </trkpt>
      <trkpt lat="47.552380" lon="7.842592">
        <ele>323.485305</ele>
        <time>2021-11-13T16:23:40.124Z</time>
      </trkpt>
      <trkpt lat="47.551922" lon="7.842704">
        <ele>323.844721</ele>
        <time>2021-11-13T16:23:50.690Z</time>
      </trkpt>
      <trkpt lat="47.551668" lon="7.842770">
        <ele>324.044388</ele>
        <time>2021-11-13T16:23:56.649Z</time>
      </trkpt>
      <trkpt lat="47.551454" lon="7.842815">
        <ele>324.211743</ele>
        <time>2021-11-13T16:24:01.336Z</time>
      </trkpt>
      <trkpt lat="47.551344" lon="7.844621">
        <ele>325.377675</ele>
        <time>2021-11-13T16:24:23.850Z</time>
      </trkpt>
      <trkpt lat="47.551205" lon="7.846694">
        <ele>327.097009</ele>
        <time>2021-11-13T16:24:51.763Z</time>
      </trkpt>
      <trkpt lat="47.551184" lon="7.847206">
        <ele>327.632144</ele>
        <time>2021-11-13T16:24:59.153Z</time>
      </trkpt>
      <trkpt lat="47.551196" lon="7.847517">
        <ele>327.957127</ele>
        <time>2021-11-13T16:25:03.694Z</time>
      </trkpt>
      <trkpt lat="47.551669" lon="7.848083">
        <ele>328.896924</ele>
        <time>2021-11-13T16:25:16.774Z</time>
      </trkpt>
      <trkpt lat="47.551394" lon="7.848482">
        <ele>329.491869</ele>
        <time>2021-11-13T16:25:24.938Z</time>
      </trkpt>
      <trkpt lat="47.551242" lon="7.848702">
        <ele>329.801088</ele>
        <time>2021-11-13T16:25:29.391Z</time>
      </trkpt>
      <trkpt lat="47.550975" lon="7.849066">
        <ele>330.290137</ele>
        <time>2021-11-13T16:25:36.706Z</time>
      </trkpt>
      <trkpt lat="47.550810" lon="7.849346">
        <ele>330.628287</ele>
        <time>2021-11-13T16:25:43.077Z</time>
      </trkpt>
      <trkpt lat="47.550488" lon="7.850081">
        <ele>331.425448</ele>
        <time>2021-11-13T16:25:58.513Z</time>
      </trkpt>
      <trkpt lat="47.550333" lon="7.850434">
        <ele>331.808562</ele>
        <time>2021-11-13T16:26:05.941Z</time>
      </trkpt>
      <trkpt lat="47.550009" lon="7.851173">
        <ele>332.200403</ele>
        <time>2021-11-13T16:26:20.537Z</time>
      </trkpt>
      <trkpt lat="47.549790" lon="7.851660">
        <ele>332.309786</ele>
        <time>2021-11-13T16:26:29.285Z</time>
      </trkpt>
      <trkpt lat="47.549652" lon="7.851969">
        <ele>332.379043</ele>
        <time>2021-11-13T16:26:34.418Z</time>
      </trkpt>
      <trkpt lat="47.549535" lon="7.852225">
        <ele>332.436833</ele>
        <time>2021-11-13T16:26:38.471Z</time>
      </trkpt>
      <trkpt lat="47.549285" lon="7.852784">
        <ele>332.562177</ele>
        <time>2021-11-13T16:26:47.107Z</time>
      </trkpt>
      <trkpt lat="47.549708" lon="7.853279">
        <ele>332.377394</ele>
        <time>2021-11-13T16:26:57.504Z</time>
      </trkpt>
      <trkpt lat="47.550221" lon="7.853833">
        <ele>332.059359</ele>
        <time>2021-11-13T16:27:09.441Z</time>
      </trkpt>
      <trkpt lat="47.549883" lon="7.854434">
        <ele>331.794833</ele>
        <time>2021-11-13T16:27:16.119Z</time>
      </trkpt>
      <trkpt lat="47.549566" lon="7.855225">
        <ele>331.534309</ele>
        <time>2021-11-13T16:27:27.263Z</time>
      </trkpt>
      <trkpt lat="47.549362" lon="7.855774">
        <ele>331.373973</ele>
        <time>2021-11-13T16:27:35.185Z</time>
      </trkpt>
      <trkpt lat="47.548887" lon="7.857308">
        <ele>331.086868</ele>
        <time>2021-11-13T16:27:57.293Z</time>
      </trkpt>
      <trkpt lat="47.548743" lon="7.857692">
        <ele>331.215501</ele>
        <time>2021-11-13T16:28:03.265Z</time>
      </trkpt>
      <trkpt lat="47.548701" lon="7.857893">
        <ele>331.277114</ele>
        <time>2021-11-13T16:28:06.236Z</time>
      </trkpt>
      <trkpt lat="47.548686" lon="7.857973">
        <ele>331.301427</ele>
        <time>2021-11-13T16:28:07.359Z</time>
      </trkpt>
      <trkpt lat="47.548611" lon="7.858381">
        <ele>331.425251</ele>
        <time>2021-11-13T16:28:13.573Z</time>
      </trkpt>
      <trkpt lat="47.548334" lon="7.859801">
        <ele>332.023105</ele>
        <time>2021-11-13T16:28:36.611Z</time>
      </trkpt>
      <trkpt lat="47.548049" lon="7.860929">
        <ele>333.230278</ele>
        <time>2021-11-13T16:28:57.629Z</time>
      </trkpt>
      <trkpt lat="47.547930" lon="7.861711">
        <ele>334.033729</ele>
        <time>2021-11-13T16:29:12.393Z</time>
      </trkpt>
      <trkpt lat="47.547568" lon="7.863151">
        <ele>335.401267</ele>
        <time>2021-11-13T16:29:41.521Z</time>
      </trkpt>
      <trkpt lat="47.547320" lon="7.863864">
        <ele>336.080540</ele>
        <time>2021-11-13T16:29:55.461Z</time>
      </trkpt>
      <trkpt lat="47.546974" lon="7.864423">
        <ele>336.715008</ele>
        <time>2021-11-13T16:30:06.284Z</time>
      </trkpt>
      <trkpt lat="47.546885" lon="7.864500">
        <ele>336.655750</ele>
        <time>2021-11-13T16:30:09.369Z</time>
      </trkpt>
      <trkpt lat="47.546894" lon="7.864837">
        <ele>336.524861</ele>
        <time>2021-11-13T16:30:13.253Z</time>
      </trkpt>
      <trkpt lat="47.546889" lon="7.865225">
        <ele>336.374255</ele>
        <time>2021-11-13T16:30:18.678Z</time>
      </trkpt>
      <trkpt lat="47.546819" lon="7.865489">
        <ele>336.264178</ele>
        <time>2021-11-13T16:30:22.622Z</time>
      </trkpt>
      <trkpt lat="47.546510" lon="7.865766">
        <ele>336.056523</ele>
        <time>2021-11-13T16:30:29.256Z</time>
      </trkpt>
      <trkpt lat="47.546327" lon="7.865959">
        <ele>335.927368</ele>
        <time>2021-11-13T16:30:32.772Z</time>
      </trkpt>
      <trkpt lat="47.546096" lon="7.866147">
        <ele>335.775831</ele>
        <time>2021-11-13T16:30:37.328Z</time>
      </trkpt>
      <trkpt lat="47.545240" lon="7.866887">
        <ele>335.597948</ele>
        <time>2021-11-13T16:30:54.001Z</time>
      </trkpt>
      <trkpt lat="47.545160" lon="7.866985">
        <ele>335.587272</ele>
        <time>2021-11-13T16:30:55.957Z</time>
      </trkpt>
      <trkpt lat="47.545003" lon="7.867278">
        <ele>335.561303</ele>
        <time>2021-11-13T16:31:01.625Z</time>
      </trkpt>
      <trkpt lat="47.544568" lon="7.867693">
        <ele>335.508093</ele>
        <time>2021-11-13T16:31:14.416Z</time>
      </trkpt>
      <trkpt lat="47.544469" lon="7.867776">
        <ele>335.526241</ele>
        <time>2021-11-13T16:31:17.278Z</time>
      </trkpt>
      <trkpt lat="47.544410" lon="7.867825">
        <ele>335.625427</ele>
        <time>2021-11-13T16:31:19.366Z</time>
      </trkpt>
      <trkpt lat="47.544246" lon="7.867967">
        <ele>335.903980</ele>
        <time>2021-11-13T16:31:24.050Z</time>
      </trkpt>
      <trkpt lat="47.544214" lon="7.867988">
        <ele>335.955303</ele>
        <time>2021-11-13T16:31:24.898Z</time>
      </trkpt>
      <trkpt lat="47.543801" lon="7.868269">
        <ele>336.621745</ele>
        <time>2021-11-13T16:31:36.501Z</time>
      </trkpt>
      <trkpt lat="47.543657" lon="7.868359">
        <ele>336.850930</ele>
        <time>2021-11-13T16:31:40.850Z</time>
      </trkpt>
      <trkpt lat="47.543201" lon="7.868657">
        <ele>337.581781</ele>
        <time>2021-11-13T16:31:51.051Z</time>
      </trkpt>
      <trkpt lat="47.543105" lon="7.868711">
        <ele>337.732362</ele>
        <time>2021-11-13T16:31:53.635Z</time>
      </trkpt>
      <trkpt lat="47.543049" lon="7.868759">
        <ele>337.827236</ele>
        <time>2021-11-13T16:31:55.012Z</time>
      </trkpt>
      <trkpt lat="47.542722" lon="7.869201">
        <ele>338.135879</ele>
        <time>2021-11-13T16:32:04.844Z</time>
      </trkpt>
      <trkpt lat="47.542696" lon="7.869257">
        <ele>338.135879</ele>
        <time>2021-11-13T16:32:05.674Z</time>
      </trkpt>
      <trkpt lat="47.542657" lon="7.869354">
        <ele>338.135879</ele>
        <time>2021-11-13T16:32:07.109Z</time>
      </trkpt>
      <trkpt lat="47.542372" lon="7.869746">
        <ele>338.135879</ele>
        <time>2021-11-13T16:32:14.309Z</time>
      </trkpt>
      <trkpt lat="47.542329" lon="7.869820">
        <ele>338.135879</ele>
        <time>2021-11-13T16:32:15.500Z</time>
      </trkpt>
      <trkpt lat="47.542348" lon="7.869983">
        <ele>338.135879</ele>
        <time>2021-11-13T16:32:17.072Z</time>
      </trkpt>
      <trkpt lat="47.542317" lon="7.870012">
        <ele>338.135879</ele>
        <time>2021-11-13T16:32:17.782Z</time>
      </trkpt>
      <trkpt lat="47.542181" lon="7.870131">
        <ele>338.135879</ele>
        <time>2021-11-13T16:32:20.406Z</time>
      </trkpt>
      <trkpt lat="47.542118" lon="7.870135">
        <ele>338.135879</ele>
        <time>2021-11-13T16:32:21.419Z</time>
      </trkpt>
      <trkpt lat="47.542014" lon="7.870126">
        <ele>338.135879</ele>
        <time>2021-11-13T16:32:22.800Z</time>
      </trkpt>
      <trkpt lat="47.541910" lon="7.870106">
        <ele>338.135879</ele>
        <time>2021-11-13T16:32:24.480Z</time>
      </trkpt>
      <trkpt lat="47.541606" lon="7.870424">
        <ele>338.135879</ele>
        <time>2021-11-13T16:32:29.854Z</time>
      </trkpt>
      <trkpt lat="47.541521" lon="7.870517">
        <ele>338.135879</ele>
        <time>2021-11-13T16:32:31.336Z</time>
      </trkpt>
      <trkpt lat="47.541550" lon="7.870601">
        <ele>338.135879</ele>
        <time>2021-11-13T16:32:32.202Z</time>
      </trkpt>
      <trkpt lat="47.541576" lon="7.870664">
        <ele>338.135879</ele>
        <time>2021-11-13T16:32:32.879Z</time>
      </trkpt>
      <trkpt lat="47.541410" lon="7.870791">
        <ele>338.135879</ele>
        <time>2021-11-13T16:32:36.102Z</time>
      </trkpt>
      <trkpt lat="47.541102" lon="7.871047">
        <ele>338.135879</ele>
        <time>2021-11-13T16:32:41.579Z</time>
      </trkpt>
    </trkseg>
  </trk>
</gpx>